Wetterdaten: Donnerstag, 01.02.2018
Datum Zeit Temp. A. Pool Temp. Feuchte A. Luftdruck Regen Wind Richtung Richtung Sonnenschein ET UV Solar Taupunkt Windchill Windben Empfang
01.02.2018 00:00 1,2 C 4,4 C 95 % 1004,8 hPa 0,0 l/m 0,3 km/h (0 Bft) W-SW 250 0 min 0,000 mm 0,0 UV-I 0 W/m 0,5 C 1,2 C 3,2 km/h (1 Bft) 95,74 %
01.02.2018 00:02 1,1 C 4,4 C 94 % 1004,9 hPa 0,0 l/m 3,7 km/h (1 Bft) W-SW 250 0 min 0,000 mm 0,0 UV-I 0 W/m 0,2 C 1,1 C 6,4 km/h (2 Bft) 95,35 %
01.02.2018 00:04 1,4 C 4,4 C 95 % 1004,8 hPa 0,0 l/m 3,2 km/h (1 Bft) W-SW 250 0 min 0,000 mm 0,0 UV-I 0 W/m 0,7 C 1,4 C 4,8 km/h (1 Bft) 96,00 %
01.02.2018 00:06 1,5 C 4,4 C 95 % 1004,8 hPa 0,0 l/m 3,5 km/h (1 Bft) S 189 0 min 0,000 mm 0,0 UV-I 0 W/m 0,8 C 1,5 C 4,8 km/h (1 Bft) 95,12 %
01.02.2018 00:08 1,5 C 4,4 C 95 % 1004,7 hPa 0,0 l/m 2,3 km/h (1 Bft) S 189 0 min 0,000 mm 0,0 UV-I 0 W/m 0,8 C 1,5 C 6,4 km/h (2 Bft) 97,78 %
01.02.2018 00:10 1,3 C 4,4 C 94 % 1004,8 hPa 0,0 l/m 0,7 km/h (0 Bft) W-NW 288 0 min 0,000 mm 0,0 UV-I 0 W/m 0,4 C 1,3 C 3,2 km/h (1 Bft) 97,87 %
01.02.2018 00:12 1,4 C 4,4 C 95 % 1004,8 hPa 0,0 l/m 2,7 km/h (1 Bft) W-NW 289 0 min 0,000 mm 0,0 UV-I 0 W/m 0,7 C 1,4 C 4,8 km/h (1 Bft) 96,00 %
01.02.2018 00:14 1,3 C 4,4 C 95 % 1004,7 hPa 0,0 l/m 0,9 km/h (0 Bft) SO 130 0 min 0,000 mm 0,0 UV-I 0 W/m 0,6 C 1,3 C 3,2 km/h (1 Bft) 98,11 %
01.02.2018 00:16 1,4 C 4,4 C 95 % 1004,8 hPa 0,0 l/m 1,4 km/h (1 Bft) SO 130 0 min 0,000 mm 0,0 UV-I 0 W/m 0,7 C 1,4 C 4,8 km/h (1 Bft) 97,14 %
01.02.2018 00:18 1,5 C 4,4 C 94 % 1004,8 hPa 0,0 l/m 2,2 km/h (1 Bft) NW 305 0 min 0,000 mm 0,0 UV-I 0 W/m 0,6 C 1,5 C 4,8 km/h (1 Bft) 98,00 %
01.02.2018 00:20 1,6 C 4,4 C 95 % 1004,8 hPa 0,0 l/m 0,0 km/h (0 Bft) NW 305 0 min 0,000 mm 0,0 UV-I 0 W/m 0,9 C 1,6 C 1,6 km/h (1 Bft) 98,11 %
01.02.2018 00:22 1,5 C 4,4 C 94 % 1004,8 hPa 0,0 l/m 0,2 km/h (0 Bft) NW 305 0 min 0,000 mm 0,0 UV-I 0 W/m 0,6 C 1,5 C 1,6 km/h (1 Bft) 95,12 %
01.02.2018 00:24 1,4 C 4,4 C 94 % 1004,8 hPa 0,0 l/m 2,1 km/h (1 Bft) NW 305 0 min 0,000 mm 0,0 UV-I 0 W/m 0,5 C 1,4 C 3,2 km/h (1 Bft) 97,87 %
01.02.2018 00:26 1,4 C 4,4 C 94 % 1004,8 hPa 0,0 l/m 0,6 km/h (0 Bft) NW 305 0 min 0,000 mm 0,0 UV-I 0 W/m 0,5 C 1,4 C 1,6 km/h (1 Bft) 96,23 %
01.02.2018 00:28 1,3 C 4,4 C 94 % 1004,8 hPa 0,0 l/m 0,6 km/h (0 Bft) NW 315 0 min 0,000 mm 0,0 UV-I 0 W/m 0,4 C 1,3 C 3,2 km/h (1 Bft) 97,87 %
01.02.2018 00:30 1,3 C 4,4 C 94 % 1004,9 hPa 0,0 l/m 0,1 km/h (0 Bft) NW 315 0 min 0,000 mm 0,0 UV-I 0 W/m 0,4 C 1,3 C 1,6 km/h (1 Bft) 95,74 %
01.02.2018 00:32 1,2 C 4,4 C 94 % 1004,9 hPa 0,0 l/m 0,0 km/h (0 Bft) NW 315 0 min 0,000 mm 0,0 UV-I 0 W/m 0,3 C 1,2 C 0,0 km/h (0 Bft) 94,29 %
01.02.2018 00:34 1,1 C 4,4 C 94 % 1004,9 hPa 0,0 l/m 0,5 km/h (0 Bft) NW 315 0 min 0,000 mm 0,0 UV-I 0 W/m 0,2 C 1,1 C 1,6 km/h (1 Bft) 96,43 %
01.02.2018 00:36 1,2 C 4,4 C 95 % 1005,0 hPa 0,0 l/m 0,9 km/h (0 Bft) NW 315 0 min 0,000 mm 0,0 UV-I 0 W/m 0,5 C 1,2 C 3,2 km/h (1 Bft) 98,00 %
01.02.2018 00:38 1,2 C 4,4 C 95 % 1004,9 hPa 0,0 l/m 0,2 km/h (0 Bft) NW 315 0 min 0,000 mm 0,0 UV-I 0 W/m 0,5 C 1,2 C 1,6 km/h (1 Bft) 97,56 %
01.02.2018 00:40 1,2 C 4,4 C 95 % 1004,9 hPa 0,0 l/m 0,2 km/h (0 Bft) NW 315 0 min 0,000 mm 0,0 UV-I 0 W/m 0,5 C 1,2 C 1,6 km/h (1 Bft) 98,00 %
01.02.2018 00:42 1,3 C 4,4 C 95 % 1004,9 hPa 0,0 l/m 0,3 km/h (0 Bft) NW 315 0 min 0,000 mm 0,0 UV-I 0 W/m 0,6 C 1,3 C 1,6 km/h (1 Bft) 97,87 %
01.02.2018 00:44 1,2 C 4,4 C 95 % 1004,9 hPa 0,0 l/m 0,1 km/h (0 Bft) NW 315 0 min 0,000 mm 0,0 UV-I 0 W/m 0,5 C 1,2 C 1,6 km/h (1 Bft) 100,00 %
01.02.2018 00:46 1,2 C 4,4 C 95 % 1004,9 hPa 0,0 l/m 0,0 km/h (0 Bft) NW 315 0 min 0,000 mm 0,0 UV-I 0 W/m 0,5 C 1,2 C 0,0 km/h (0 Bft) 97,44 %
01.02.2018 00:48 1,2 C 4,4 C 95 % 1004,9 hPa 0,0 l/m 0,0 km/h (0 Bft) NW 315 0 min 0,000 mm 0,0 UV-I 0 W/m 0,5 C 1,2 C 1,6 km/h (1 Bft) 100,00 %
01.02.2018 00:50 1,3 C 4,4 C 95 % 1004,9 hPa 0,0 l/m 0,7 km/h (0 Bft) NW 315 0 min 0,000 mm 0,0 UV-I 0 W/m 0,6 C 1,3 C 1,6 km/h (1 Bft) 100,00 %
01.02.2018 00:52 1,3 C 4,4 C 95 % 1004,9 hPa 0,0 l/m 0,0 km/h (0 Bft) NW 315 0 min 0,000 mm 0,0 UV-I 0 W/m 0,6 C 1,3 C 0,0 km/h (0 Bft) 100,00 %
01.02.2018 00:54 1,2 C 4,4 C 95 % 1004,9 hPa 0,0 l/m 0,2 km/h (0 Bft) NW 315 0 min 0,000 mm 0,0 UV-I 0 W/m 0,5 C 1,2 C 1,6 km/h (1 Bft) 96,00 %
01.02.2018 00:56 1,2 C 4,4 C 95 % 1004,8 hPa 0,0 l/m 0,2 km/h (0 Bft) NW 315 0 min 0,000 mm 0,0 UV-I 0 W/m 0,5 C 1,2 C 1,6 km/h (1 Bft) 100,00 %
01.02.2018 00:58 1,3 C 4,4 C 95 % 1004,8 hPa 0,0 l/m 0,6 km/h (0 Bft) NW 315 0 min 0,000 mm 0,0 UV-I 0 W/m 0,6 C 1,3 C 3,2 km/h (1 Bft) 100,00 %
01.02.2018 01:00 1,4 C 4,4 C 95 % 1004,7 hPa 0,0 l/m 0,5 km/h (0 Bft) NW 315 0 min 0,000 mm 0,0 UV-I 0 W/m 0,7 C 1,4 C 3,2 km/h (1 Bft) 100,00 %
01.02.2018 01:02 1,4 C 4,4 C 95 % 1004,7 hPa 0,0 l/m 0,0 km/h (0 Bft) NW 315 0 min 0,000 mm 0,0 UV-I 0 W/m 0,7 C 1,4 C 0,0 km/h (0 Bft) 100,00 %
01.02.2018 01:04 1,3 C 4,4 C 95 % 1004,7 hPa 0,0 l/m 0,0 km/h (0 Bft) NW 315 0 min 0,000 mm 0,0 UV-I 0 W/m 0,6 C 1,3 C 0,0 km/h (0 Bft) 100,00 %
01.02.2018 01:06 1,0 C 4,4 C 94 % 1004,7 hPa 0,0 l/m 0,0 km/h (0 Bft) NW 315 0 min 0,000 mm 0,0 UV-I 0 W/m 0,1 C 1,0 C 0,0 km/h (0 Bft) 97,87 %
01.02.2018 01:08 0,8 C 4,4 C 95 % 1004,7 hPa 0,0 l/m 0,0 km/h (0 Bft) NW 315 0 min 0,000 mm 0,0 UV-I 0 W/m 0,1 C 0,8 C 1,6 km/h (1 Bft) 100,00 %
01.02.2018 01:10 0,8 C 4,4 C 95 % 1004,7 hPa 0,0 l/m 1,1 km/h (1 Bft) NW 315 0 min 0,000 mm 0,0 UV-I 0 W/m 0,1 C 0,8 C 3,2 km/h (1 Bft) 100,00 %
01.02.2018 01:12 0,8 C 4,4 C 95 % 1004,6 hPa 0,0 l/m 2,2 km/h (1 Bft) NW 314 0 min 0,000 mm 0,0 UV-I 0 W/m 0,1 C 0,8 C 3,2 km/h (1 Bft) 97,87 %
01.02.2018 01:14 0,7 C 4,4 C 95 % 1004,6 hPa 0,0 l/m 0,4 km/h (0 Bft) NW 314 0 min 0,000 mm 0,0 UV-I 0 W/m -0,0 C 0,7 C 3,2 km/h (1 Bft) 100,00 %
01.02.2018 01:16 0,7 C 4,4 C 95 % 1004,6 hPa 0,0 l/m 0,0 km/h (0 Bft) NW 314 0 min 0,000 mm 0,0 UV-I 0 W/m -0,0 C 0,7 C 0,0 km/h (0 Bft) 100,00 %
01.02.2018 01:18 0,8 C 4,4 C 95 % 1004,6 hPa 0,0 l/m 0,0 km/h (0 Bft) NW 314 0 min 0,000 mm 0,0 UV-I 0 W/m 0,1 C 0,8 C 0,0 km/h (0 Bft) 100,00 %
01.02.2018 01:20 0,8 C 4,4 C 95 % 1004,5 hPa 0,0 l/m 2,3 km/h (1 Bft) NW 313 0 min 0,000 mm 0,0 UV-I 0 W/m 0,1 C 0,8 C 4,8 km/h (1 Bft) 97,87 %
01.02.2018 01:22 0,8 C 4,4 C 95 % 1004,6 hPa 0,0 l/m 2,4 km/h (1 Bft) NW 313 0 min 0,000 mm 0,0 UV-I 0 W/m 0,1 C 0,8 C 3,2 km/h (1 Bft) 100,00 %
01.02.2018 01:24 0,8 C 4,4 C 95 % 1004,7 hPa 0,0 l/m 2,1 km/h (1 Bft) NW 313 0 min 0,000 mm 0,0 UV-I 0 W/m 0,1 C 0,8 C 3,2 km/h (1 Bft) 100,00 %
01.02.2018 01:26 0,8 C 4,4 C 95 % 1004,7 hPa 0,0 l/m 0,0 km/h (0 Bft) NW 313 0 min 0,000 mm 0,0 UV-I 0 W/m 0,1 C 0,8 C 0,0 km/h (0 Bft) 98,00 %
01.02.2018 01:28 0,8 C 4,4 C 95 % 1004,6 hPa 0,0 l/m 0,0 km/h (0 Bft) NW 313 0 min 0,000 mm 0,0 UV-I 0 W/m 0,1 C 0,8 C 0,0 km/h (0 Bft) 100,00 %
01.02.2018 01:30 0,6 C 4,4 C 95 % 1004,6 hPa 0,0 l/m 0,0 km/h (0 Bft) NW 313 0 min 0,000 mm 0,0 UV-I 0 W/m -0,1 C 0,6 C 0,0 km/h (0 Bft) 100,00 %
01.02.2018 01:32 0,6 C 4,4 C 95 % 1004,6 hPa 0,0 l/m 1,3 km/h (1 Bft) NW 313 0 min 0,000 mm 0,0 UV-I 0 W/m -0,1 C 0,6 C 3,2 km/h (1 Bft) 100,00 %
01.02.2018 01:34 0,7 C 4,4 C 96 % 1004,5 hPa 0,0 l/m 0,7 km/h (0 Bft) NW 313 0 min 0,000 mm 0,0 UV-I 0 W/m 0,1 C 0,7 C 1,6 km/h (1 Bft) 100,00 %
01.02.2018 01:36 0,7 C 4,4 C 96 % 1004,6 hPa 0,0 l/m 1,4 km/h (1 Bft) NW 313 0 min 0,000 mm 0,0 UV-I 0 W/m 0,1 C 0,7 C 3,2 km/h (1 Bft) 100,00 %
01.02.2018 01:38 0,7 C 4,4 C 96 % 1004,6 hPa 0,0 l/m 0,8 km/h (0 Bft) NW 313 0 min 0,000 mm 0,0 UV-I 0 W/m 0,1 C 0,7 C 4,8 km/h (1 Bft) 97,56 %
01.02.2018 01:40 0,7 C 4,4 C 96 % 1004,4 hPa 0,0 l/m 2,1 km/h (1 Bft) NW 313 0 min 0,000 mm 0,0 UV-I 0 W/m 0,1 C 0,7 C 4,8 km/h (1 Bft) 97,87 %
01.02.2018 01:42 0,8 C 4,4 C 96 % 1004,6 hPa 0,0 l/m 3,0 km/h (1 Bft) W 275 0 min 0,000 mm 0,0 UV-I 0 W/m 0,2 C 0,8 C 6,4 km/h (2 Bft) 95,74 %
01.02.2018 01:44 0,7 C 4,4 C 96 % 1004,5 hPa 0,0 l/m 2,3 km/h (1 Bft) W-NW 287 0 min 0,000 mm 0,0 UV-I 0 W/m 0,1 C 0,7 C 4,8 km/h (1 Bft) 98,00 %
01.02.2018 01:46 0,7 C 4,4 C 96 % 1004,5 hPa 0,0 l/m 0,6 km/h (0 Bft) W-NW 287 0 min 0,000 mm 0,0 UV-I 0 W/m 0,1 C 0,7 C 3,2 km/h (1 Bft) 98,00 %
01.02.2018 01:48 0,7 C 4,4 C 96 % 1004,5 hPa 0,0 l/m 1,3 km/h (1 Bft) S-SW 211 0 min 0,000 mm 0,0 UV-I 0 W/m 0,1 C 0,7 C 4,8 km/h (1 Bft) 96,00 %
01.02.2018 01:50 0,7 C 4,4 C 96 % 1004,4 hPa 0,0 l/m 1,8 km/h (1 Bft) S 172 0 min 0,000 mm 0,0 UV-I 0 W/m 0,1 C 0,7 C 4,8 km/h (1 Bft) 97,56 %
01.02.2018 01:52 0,6 C 4,4 C 96 % 1004,3 hPa 0,0 l/m 1,0 km/h (0 Bft) S 172 0 min 0,000 mm 0,0 UV-I 0 W/m 0,0 C 0,6 C 3,2 km/h (1 Bft) 98,11 %
01.02.2018 01:54 0,6 C 4,4 C 96 % 1004,4 hPa 0,0 l/m 0,7 km/h (0 Bft) S 172 0 min 0,000 mm 0,0 UV-I 0 W/m 0,0 C 0,6 C 3,2 km/h (1 Bft) 97,87 %
01.02.2018 01:56 0,7 C 4,4 C 96 % 1004,4 hPa 0,0 l/m 2,3 km/h (1 Bft) S 172 0 min 0,000 mm 0,0 UV-I 0 W/m 0,1 C 0,7 C 4,8 km/h (1 Bft) 97,56 %
01.02.2018 01:58 0,7 C 4,4 C 96 % 1004,5 hPa 0,0 l/m 3,1 km/h (1 Bft) S 181 0 min 0,000 mm 0,0 UV-I 0 W/m 0,1 C 0,7 C 8,0 km/h (2 Bft) 94,00 %
01.02.2018 02:00 0,7 C 4,4 C 96 % 1004,4 hPa 0,0 l/m 3,1 km/h (1 Bft) S 181 0 min 0,000 mm 0,0 UV-I 0 W/m 0,1 C 0,7 C 4,8 km/h (1 Bft) 97,87 %
01.02.2018 02:02 0,7 C 4,4 C 96 % 1004,4 hPa 0,0 l/m 2,4 km/h (1 Bft) S 181 0 min 0,000 mm 0,0 UV-I 0 W/m 0,1 C 0,7 C 4,8 km/h (1 Bft) 97,44 %
01.02.2018 02:04 0,6 C 4,4 C 96 % 1004,4 hPa 0,0 l/m 0,6 km/h (0 Bft) S 181 0 min 0,000 mm 0,0 UV-I 0 W/m 0,0 C 0,6 C 1,6 km/h (1 Bft) 93,62 %
01.02.2018 02:06 0,6 C 4,4 C 96 % 1004,5 hPa 0,0 l/m 1,0 km/h (0 Bft) S 181 0 min 0,000 mm 0,0 UV-I 0 W/m 0,0 C 0,6 C 3,2 km/h (1 Bft) 94,00 %
01.02.2018 02:08 0,7 C 4,4 C 96 % 1004,4 hPa 0,0 l/m 1,6 km/h (1 Bft) S 181 0 min 0,000 mm 0,0 UV-I 0 W/m 0,1 C 0,7 C 3,2 km/h (1 Bft) 97,87 %
01.02.2018 02:10 0,7 C 4,4 C 96 % 1004,5 hPa 0,0 l/m 1,7 km/h (1 Bft) S 181 0 min 0,000 mm 0,0 UV-I 0 W/m 0,1 C 0,7 C 3,2 km/h (1 Bft) 98,11 %
01.02.2018 02:12 0,8 C 4,4 C 96 % 1004,5 hPa 0,0 l/m 0,4 km/h (0 Bft) S 181 0 min 0,000 mm 0,0 UV-I 0 W/m 0,2 C 0,8 C 1,6 km/h (1 Bft) 97,37 %
01.02.2018 02:14 0,7 C 4,4 C 96 % 1004,5 hPa 0,0 l/m 0,0 km/h (0 Bft) S 181 0 min 0,000 mm 0,0 UV-I 0 W/m 0,1 C 0,7 C 0,0 km/h (0 Bft) 98,00 %
01.02.2018 02:16 0,7 C 4,4 C 96 % 1004,5 hPa 0,0 l/m 0,0 km/h (0 Bft) S 181 0 min 0,000 mm 0,0 UV-I 0 W/m 0,1 C 0,7 C 0,0 km/h (0 Bft) 100,00 %
01.02.2018 02:18 0,7 C 4,4 C 96 % 1004,5 hPa 0,0 l/m 0,1 km/h (0 Bft) S 181 0 min 0,000 mm 0,0 UV-I 0 W/m 0,1 C 0,7 C 1,6 km/h (1 Bft) 100,00 %
01.02.2018 02:20 0,7 C 4,4 C 96 % 1004,5 hPa 0,0 l/m 1,8 km/h (1 Bft) S 181 0 min 0,000 mm 0,0 UV-I 0 W/m 0,1 C 0,7 C 3,2 km/h (1 Bft) 100,00 %
01.02.2018 02:22 0,8 C 4,4 C 96 % 1004,5 hPa 0,0 l/m 1,0 km/h (0 Bft) S 181 0 min 0,000 mm 0,0 UV-I 0 W/m 0,2 C 0,8 C 3,2 km/h (1 Bft) 95,12 %
01.02.2018 02:24 0,8 C 4,4 C 96 % 1004,5 hPa 0,0 l/m 1,6 km/h (1 Bft) S 181 0 min 0,000 mm 0,0 UV-I 0 W/m 0,2 C 0,8 C 3,2 km/h (1 Bft) 100,00 %
01.02.2018 02:26 0,8 C 4,4 C 96 % 1004,4 hPa 0,0 l/m 1,9 km/h (1 Bft) S 181 0 min 0,000 mm 0,0 UV-I 0 W/m 0,2 C 0,8 C 4,8 km/h (1 Bft) 97,87 %
01.02.2018 02:28 0,9 C 4,4 C 96 % 1004,4 hPa 0,0 l/m 1,1 km/h (1 Bft) S 181 0 min 0,000 mm 0,0 UV-I 0 W/m 0,3 C 0,9 C 1,6 km/h (1 Bft) 100,00 %
01.02.2018 02:30 0,9 C 4,4 C 96 % 1004,3 hPa 0,0 l/m 0,8 km/h (0 Bft) S 181 0 min 0,000 mm 0,0 UV-I 0 W/m 0,3 C 0,9 C 3,2 km/h (1 Bft) 100,00 %
01.02.2018 02:32 1,0 C 4,4 C 96 % 1004,4 hPa 0,0 l/m 1,6 km/h (1 Bft) S 182 0 min 0,000 mm 0,0 UV-I 0 W/m 0,4 C 1,0 C 4,8 km/h (1 Bft) 100,00 %
01.02.2018 02:34 1,1 C 4,4 C 96 % 1004,3 hPa 0,0 l/m 3,0 km/h (1 Bft) S 181 0 min 0,000 mm 0,0 UV-I 0 W/m 0,5 C 1,1 C 4,8 km/h (1 Bft) 100,00 %
01.02.2018 02:36 1,1 C 4,4 C 96 % 1004,2 hPa 0,0 l/m 1,5 km/h (1 Bft) S 181 0 min 0,000 mm 0,0 UV-I 0 W/m 0,5 C 1,1 C 3,2 km/h (1 Bft) 100,00 %
01.02.2018 02:38 1,1 C 4,4 C 96 % 1004,2 hPa 0,0 l/m 0,8 km/h (0 Bft) S 181 0 min 0,000 mm 0,0 UV-I 0 W/m 0,5 C 1,1 C 1,6 km/h (1 Bft) 100,00 %
01.02.2018 02:40 1,1 C 4,4 C 95 % 1004,1 hPa 0,0 l/m 0,0 km/h (0 Bft) S 181 0 min 0,000 mm 0,0 UV-I 0 W/m 0,4 C 1,1 C 0,0 km/h (0 Bft) 100,00 %
01.02.2018 02:42 1,1 C 4,4 C 95 % 1004,1 hPa 0,0 l/m 1,6 km/h (1 Bft) S 181 0 min 0,000 mm 0,0 UV-I 0 W/m 0,4 C 1,1 C 3,2 km/h (1 Bft) 100,00 %
01.02.2018 02:44 1,1 C 4,4 C 95 % 1004,1 hPa 0,0 l/m 2,1 km/h (1 Bft) S 181 0 min 0,000 mm 0,0 UV-I 0 W/m 0,4 C 1,1 C 3,2 km/h (1 Bft) 100,00 %
01.02.2018 02:46 1,0 C 4,4 C 95 % 1004,1 hPa 0,0 l/m 1,6 km/h (1 Bft) S 181 0 min 0,000 mm 0,0 UV-I 0 W/m 0,3 C 1,0 C 3,2 km/h (1 Bft) 100,00 %
01.02.2018 02:48 0,9 C 4,4 C 95 % 1004,0 hPa 0,0 l/m 0,5 km/h (0 Bft) S 181 0 min 0,000 mm 0,0 UV-I 0 W/m 0,2 C 0,9 C 1,6 km/h (1 Bft) 100,00 %
01.02.2018 02:50 0,9 C 4,4 C 95 % 1003,9 hPa 0,0 l/m 1,4 km/h (1 Bft) S 181 0 min 0,000 mm 0,0 UV-I 0 W/m 0,2 C 0,9 C 3,2 km/h (1 Bft) 100,00 %
01.02.2018 02:52 1,0 C 4,4 C 95 % 1003,9 hPa 0,0 l/m 1,0 km/h (0 Bft) S 181 0 min 0,000 mm 0,0 UV-I 0 W/m 0,3 C 1,0 C 3,2 km/h (1 Bft) 97,87 %
01.02.2018 02:54 0,9 C 4,4 C 95 % 1003,9 hPa 0,0 l/m 2,1 km/h (1 Bft) S 181 0 min 0,000 mm 0,0 UV-I 0 W/m 0,2 C 0,9 C 3,2 km/h (1 Bft) 100,00 %
01.02.2018 02:56 0,9 C 4,4 C 95 % 1003,8 hPa 0,0 l/m 3,3 km/h (1 Bft) S 181 0 min 0,000 mm 0,0 UV-I 0 W/m 0,2 C 0,9 C 6,4 km/h (2 Bft) 100,00 %
01.02.2018 02:58 0,9 C 4,4 C 95 % 1003,8 hPa 0,0 l/m 1,3 km/h (1 Bft) S 181 0 min 0,000 mm 0,0 UV-I 0 W/m 0,2 C 0,9 C 3,2 km/h (1 Bft) 98,00 %
01.02.2018 03:00 0,8 C 4,4 C 95 % 1003,8 hPa 0,0 l/m 2,0 km/h (1 Bft) S 181 0 min 0,000 mm 0,0 UV-I 0 W/m 0,1 C 0,8 C 3,2 km/h (1 Bft) 100,00 %
01.02.2018 03:02 0,8 C 4,4 C 95 % 1003,8 hPa 0,0 l/m 3,6 km/h (1 Bft) S-SW 195 0 min 0,000 mm 0,0 UV-I 0 W/m 0,1 C 0,8 C 6,4 km/h (2 Bft) 97,87 %
01.02.2018 03:04 0,8 C 4,4 C 95 % 1003,8 hPa 0,0 l/m 4,2 km/h (1 Bft) S-SW 196 0 min 0,000 mm 0,0 UV-I 0 W/m 0,1 C 0,8 C 6,4 km/h (2 Bft) 100,00 %
01.02.2018 03:06 0,8 C 4,4 C 95 % 1003,7 hPa 0,0 l/m 3,8 km/h (1 Bft) S-SW 195 0 min 0,000 mm 0,0 UV-I 0 W/m 0,1 C 0,8 C 6,4 km/h (2 Bft) 100,00 %
01.02.2018 03:08 0,9 C 4,4 C 95 % 1003,7 hPa 0,0 l/m 4,4 km/h (1 Bft) S-SW 195 0 min 0,000 mm 0,0 UV-I 0 W/m 0,2 C 0,9 C 6,4 km/h (2 Bft) 98,11 %
01.02.2018 03:10 1,1 C 4,4 C 96 % 1003,6 hPa 0,0 l/m 4,2 km/h (1 Bft) S-SW 207 0 min 0,000 mm 0,0 UV-I 0 W/m 0,5 C 1,1 C 8,0 km/h (2 Bft) 100,00 %
01.02.2018 03:12 1,3 C 4,4 C 96 % 1003,7 hPa 0,0 l/m 3,7 km/h (1 Bft) S-SW 206 0 min 0,000 mm 0,0 UV-I 0 W/m 0,7 C 1,3 C 6,4 km/h (2 Bft) 97,73 %
01.02.2018 03:14 1,5 C 4,4 C 95 % 1003,6 hPa 0,0 l/m 4,7 km/h (1 Bft) S-SW 206 0 min 0,000 mm 0,0 UV-I 0 W/m 0,8 C 1,5 C 6,4 km/h (2 Bft) 100,00 %
01.02.2018 03:16 1,6 C 4,4 C 95 % 1003,6 hPa 0,0 l/m 3,9 km/h (1 Bft) S-SW 206 0 min 0,000 mm 0,0 UV-I 0 W/m 0,9 C 1,6 C 6,4 km/h (2 Bft) 100,00 %
01.02.2018 03:18 1,7 C 4,4 C 94 % 1003,6 hPa 0,0 l/m 3,7 km/h (1 Bft) S-SW 206 0 min 0,000 mm 0,0 UV-I 0 W/m 0,8 C 1,7 C 6,4 km/h (2 Bft) 100,00 %
01.02.2018 03:20 1,7 C 4,4 C 94 % 1003,6 hPa 0,0 l/m 4,0 km/h (1 Bft) S-SW 201 0 min 0,000 mm 0,0 UV-I 0 W/m 0,8 C 1,7 C 6,4 km/h (2 Bft) 100,00 %
01.02.2018 03:22 1,8 C 4,4 C 94 % 1003,6 hPa 0,0 l/m 2,8 km/h (1 Bft) S-SW 201 0 min 0,000 mm 0,0 UV-I 0 W/m 0,9 C 1,8 C 6,4 km/h (2 Bft) 100,00 %
01.02.2018 03:24 1,8 C 4,4 C 93 % 1003,6 hPa 0,0 l/m 3,4 km/h (1 Bft) S-SW 201 0 min 0,000 mm 0,0 UV-I 0 W/m 0,8 C 1,8 C 4,8 km/h (1 Bft) 100,00 %
01.02.2018 03:26 1,9 C 4,4 C 93 % 1003,5 hPa 0,0 l/m 2,0 km/h (1 Bft) S-SW 201 0 min 0,000 mm 0,0 UV-I 0 W/m 0,9 C 1,9 C 4,8 km/h (1 Bft) 100,00 %
01.02.2018 03:28 1,9 C 4,4 C 93 % 1003,5 hPa 0,0 l/m 3,5 km/h (1 Bft) S-SW 201 0 min 0,000 mm 0,0 UV-I 0 W/m 0,9 C 1,9 C 4,8 km/h (1 Bft) 100,00 %
01.02.2018 03:30 1,8 C 4,4 C 92 % 1003,5 hPa 0,0 l/m 1,8 km/h (1 Bft) S-SW 201 0 min 0,000 mm 0,0 UV-I 0 W/m 0,6 C 1,8 C 4,8 km/h (1 Bft) 100,00 %
01.02.2018 03:32 1,7 C 4,4 C 92 % 1003,4 hPa 0,0 l/m 4,0 km/h (1 Bft) S-SW 201 0 min 0,000 mm 0,0 UV-I 0 W/m 0,5 C 1,7 C 4,8 km/h (1 Bft) 100,00 %
01.02.2018 03:34 1,7 C 4,4 C 93 % 1003,3 hPa 0,0 l/m 2,8 km/h (1 Bft) S-SW 201 0 min 0,000 mm 0,0 UV-I 0 W/m 0,7 C 1,7 C 3,2 km/h (1 Bft) 100,00 %
01.02.2018 03:36 1,7 C 4,4 C 93 % 1003,3 hPa 0,0 l/m 2,0 km/h (1 Bft) S-SW 201 0 min 0,000 mm 0,0 UV-I 0 W/m 0,7 C 1,7 C 3,2 km/h (1 Bft) 97,87 %
01.02.2018 03:38 1,7 C 4,4 C 93 % 1003,3 hPa 0,0 l/m 1,8 km/h (1 Bft) S-SW 201 0 min 0,000 mm 0,0 UV-I 0 W/m 0,7 C 1,7 C 3,2 km/h (1 Bft) 97,87 %
01.02.2018 03:40 1,8 C 4,4 C 93 % 1003,3 hPa 0,0 l/m 1,8 km/h (1 Bft) S-SW 201 0 min 0,000 mm 0,0 UV-I 0 W/m 0,8 C 1,8 C 3,2 km/h (1 Bft) 100,00 %
01.02.2018 03:42 1,8 C 4,4 C 93 % 1003,2 hPa 0,0 l/m 1,4 km/h (1 Bft) S-SW 201 0 min 0,000 mm 0,0 UV-I 0 W/m 0,8 C 1,8 C 3,2 km/h (1 Bft) 100,00 %
01.02.2018 03:44 1,8 C 4,4 C 93 % 1003,2 hPa 0,0 l/m 1,6 km/h (1 Bft) S-SW 201 0 min 0,000 mm 0,0 UV-I 0 W/m 0,8 C 1,8 C 3,2 km/h (1 Bft) 98,21 %
01.02.2018 03:46 1,7 C 4,4 C 93 % 1003,2 hPa 0,0 l/m 0,1 km/h (0 Bft) S-SW 201 0 min 0,000 mm 0,0 UV-I 0 W/m 0,7 C 1,7 C 1,6 km/h (1 Bft) 97,87 %
01.02.2018 03:48 1,8 C 4,4 C 93 % 1003,2 hPa 0,0 l/m 0,9 km/h (0 Bft) S-SW 201 0 min 0,000 mm 0,0 UV-I 0 W/m 0,8 C 1,8 C 3,2 km/h (1 Bft) 92,00 %
01.02.2018 03:50 1,9 C 4,4 C 93 % 1003,2 hPa 0,0 l/m 2,9 km/h (1 Bft) S-SW 201 0 min 0,000 mm 0,0 UV-I 0 W/m 0,9 C 1,9 C 4,8 km/h (1 Bft) 94,00 %
01.02.2018 03:52 2,2 C 4,4 C 93 % 1003,2 hPa 0,0 l/m 3,0 km/h (1 Bft) S-SW 201 0 min 0,000 mm 0,0 UV-I 0 W/m 1,2 C 2,2 C 4,8 km/h (1 Bft) 97,87 %
01.02.2018 03:54 2,2 C 4,4 C 92 % 1003,1 hPa 0,0 l/m 1,6 km/h (1 Bft) S-SW 201 0 min 0,000 mm 0,0 UV-I 0 W/m 1,0 C 2,2 C 4,8 km/h (1 Bft) 95,12 %
01.02.2018 03:56 2,2 C 4,4 C 92 % 1003,1 hPa 0,0 l/m 2,1 km/h (1 Bft) S-SW 201 0 min 0,000 mm 0,0 UV-I 0 W/m 1,0 C 2,2 C 3,2 km/h (1 Bft) 96,23 %
01.02.2018 03:58 2,2 C 4,4 C 92 % 1003,1 hPa 0,0 l/m 1,0 km/h (0 Bft) S 169 0 min 0,000 mm 0,0 UV-I 0 W/m 1,0 C 2,2 C 3,2 km/h (1 Bft) 95,45 %
01.02.2018 04:00 2,6 C 4,4 C 91 % 1003,1 hPa 0,0 l/m 3,3 km/h (1 Bft) S 173 0 min 0,000 mm 0,0 UV-I 0 W/m 1,3 C 2,6 C 8,0 km/h (2 Bft) 95,56 %
01.02.2018 04:02 2,7 C 4,4 C 90 % 1003,0 hPa 0,0 l/m 1,5 km/h (1 Bft) S 171 0 min 0,000 mm 0,0 UV-I 0 W/m 1,2 C 2,7 C 3,2 km/h (1 Bft) 100,00 %
01.02.2018 04:04 2,6 C 4,4 C 90 % 1003,1 hPa 0,0 l/m 0,1 km/h (0 Bft) S 171 0 min 0,000 mm 0,0 UV-I 0 W/m 1,1 C 2,6 C 1,6 km/h (1 Bft) 94,34 %
01.02.2018 04:06 2,4 C 4,4 C 91 % 1003,0 hPa 0,0 l/m 0,0 km/h (0 Bft) S 171 0 min 0,000 mm 0,0 UV-I 0 W/m 1,1 C 2,4 C 0,0 km/h (0 Bft) 97,14 %
01.02.2018 04:08 2,2 C 4,4 C 91 % 1003,1 hPa 0,0 l/m 0,0 km/h (0 Bft) S 171 0 min 0,000 mm 0,0 UV-I 0 W/m 0,9 C 2,2 C 0,0 km/h (0 Bft) 94,00 %
01.02.2018 04:10 2,0 C 4,4 C 92 % 1003,0 hPa 0,0 l/m 0,4 km/h (0 Bft) S 171 0 min 0,000 mm 0,0 UV-I 0 W/m 0,8 C 2,0 C 3,2 km/h (1 Bft) 94,44 %
01.02.2018 04:12 1,8 C 4,4 C 92 % 1003,0 hPa 0,0 l/m 1,8 km/h (1 Bft) S 171 0 min 0,000 mm 0,0 UV-I 0 W/m 0,6 C 1,8 C 3,2 km/h (1 Bft) 94,87 %
01.02.2018 04:14 1,7 C 4,4 C 92 % 1003,0 hPa 0,0 l/m 2,7 km/h (1 Bft) S 171 0 min 0,000 mm 0,0 UV-I 0 W/m 0,5 C 1,7 C 3,2 km/h (1 Bft) 96,00 %
01.02.2018 04:16 1,6 C 4,4 C 93 % 1002,9 hPa 0,0 l/m 4,0 km/h (1 Bft) S 171 0 min 0,000 mm 0,0 UV-I 0 W/m 0,6 C 1,6 C 6,4 km/h (2 Bft) 93,62 %
01.02.2018 04:18 1,7 C 4,4 C 93 % 1002,9 hPa 0,0 l/m 4,0 km/h (1 Bft) S 171 0 min 0,000 mm 0,0 UV-I 0 W/m 0,7 C 1,7 C 6,4 km/h (2 Bft) 95,74 %
01.02.2018 04:20 1,8 C 4,4 C 93 % 1002,9 hPa 0,0 l/m 2,5 km/h (1 Bft) S 171 0 min 0,000 mm 0,0 UV-I 0 W/m 0,8 C 1,8 C 6,4 km/h (2 Bft) 96,00 %
01.02.2018 04:22 1,9 C 4,4 C 93 % 1002,8 hPa 0,0 l/m 2,0 km/h (1 Bft) S 171 0 min 0,000 mm 0,0 UV-I 0 W/m 0,9 C 1,9 C 3,2 km/h (1 Bft) 91,49 %
01.02.2018 04:24 1,9 C 4,4 C 93 % 1002,9 hPa 0,0 l/m 2,9 km/h (1 Bft) S 171 0 min 0,000 mm 0,0 UV-I 0 W/m 0,9 C 1,9 C 6,4 km/h (2 Bft) 97,37 %
01.02.2018 04:26 1,9 C 4,4 C 92 % 1002,9 hPa 0,0 l/m 3,3 km/h (1 Bft) S 171 0 min 0,000 mm 0,0 UV-I 0 W/m 0,7 C 1,9 C 6,4 km/h (2 Bft) 96,43 %
01.02.2018 04:28 1,9 C 4,4 C 93 % 1002,9 hPa 0,0 l/m 2,7 km/h (1 Bft) S 171 0 min 0,000 mm 0,0 UV-I 0 W/m 0,9 C 1,9 C 6,4 km/h (2 Bft) 97,37 %
01.02.2018 04:30 1,9 C 4,4 C 93 % 1002,9 hPa 0,0 l/m 2,1 km/h (1 Bft) S 171 0 min 0,000 mm 0,0 UV-I 0 W/m 0,9 C 1,9 C 6,4 km/h (2 Bft) 96,23 %
01.02.2018 04:32 2,0 C 4,4 C 93 % 1002,8 hPa 0,0 l/m 2,7 km/h (1 Bft) S 171 0 min 0,000 mm 0,0 UV-I 0 W/m 1,0 C 2,0 C 6,4 km/h (2 Bft) 97,87 %
01.02.2018 04:34 2,1 C 4,4 C 92 % 1002,9 hPa 0,0 l/m 2,6 km/h (1 Bft) S 171 0 min 0,000 mm 0,0 UV-I 0 W/m 0,9 C 2,1 C 6,4 km/h (2 Bft) 95,74 %
01.02.2018 04:36 2,2 C 4,4 C 92 % 1002,8 hPa 0,0 l/m 1,1 km/h (1 Bft) S 171 0 min 0,000 mm 0,0 UV-I 0 W/m 1,0 C 2,2 C 3,2 km/h (1 Bft) 96,00 %
01.02.2018 04:38 2,3 C 4,4 C 91 % 1002,8 hPa 0,0 l/m 0,0 km/h (0 Bft) S 171 0 min 0,000 mm 0,0 UV-I 0 W/m 1,0 C 2,3 C 0,0 km/h (0 Bft) 97,44 %
01.02.2018 04:40 2,4 C 4,4 C 91 % 1002,8 hPa 0,0 l/m 0,1 km/h (0 Bft) S 171 0 min 0,000 mm 0,0 UV-I 0 W/m 1,1 C 2,4 C 1,6 km/h (1 Bft) 95,74 %
01.02.2018 04:42 2,4 C 4,4 C 91 % 1002,9 hPa 0,0 l/m 0,3 km/h (0 Bft) S 171 0 min 0,000 mm 0,0 UV-I 0 W/m 1,1 C 2,4 C 1,6 km/h (1 Bft) 97,87 %
01.02.2018 04:44 2,1 C 4,4 C 91 % 1002,9 hPa 0,0 l/m 1,5 km/h (1 Bft) S 171 0 min 0,000 mm 0,0 UV-I 0 W/m 0,8 C 2,1 C 3,2 km/h (1 Bft) 98,11 %
01.02.2018 04:46 1,8 C 4,4 C 91 % 1002,9 hPa 0,0 l/m 0,2 km/h (0 Bft) S 171 0 min 0,000 mm 0,0 UV-I 0 W/m 0,5 C 1,8 C 1,6 km/h (1 Bft) 97,37 %
01.02.2018 04:48 1,7 C 4,4 C 92 % 1003,0 hPa 0,0 l/m 3,6 km/h (1 Bft) S 171 0 min 0,000 mm 0,0 UV-I 0 W/m 0,5 C 1,7 C 6,4 km/h (2 Bft) 98,00 %
01.02.2018 04:50 1,7 C 4,4 C 93 % 1003,0 hPa 0,0 l/m 2,5 km/h (1 Bft) S 171 0 min 0,000 mm 0,0 UV-I 0 W/m 0,7 C 1,7 C 3,2 km/h (1 Bft) 98,00 %
01.02.2018 04:52 1,7 C 4,4 C 93 % 1003,0 hPa 0,0 l/m 0,2 km/h (0 Bft) S 171 0 min 0,000 mm 0,0 UV-I 0 W/m 0,7 C 1,7 C 1,6 km/h (1 Bft) 96,00 %
01.02.2018 04:54 1,7 C 4,4 C 93 % 1003,0 hPa 0,0 l/m 0,0 km/h (0 Bft) S 171 0 min 0,000 mm 0,0 UV-I 0 W/m 0,7 C 1,7 C 0,0 km/h (0 Bft) 97,87 %
01.02.2018 04:56 1,8 C 4,4 C 93 % 1003,0 hPa 0,0 l/m 0,0 km/h (0 Bft) S 171 0 min 0,000 mm 0,0 UV-I 0 W/m 0,8 C 1,8 C 0,0 km/h (0 Bft) 97,87 %
01.02.2018 04:58 1,8 C 4,4 C 93 % 1003,0 hPa 0,0 l/m 0,0 km/h (0 Bft) S 171 0 min 0,000 mm 0,0 UV-I 0 W/m 0,8 C 1,8 C 0,0 km/h (0 Bft) 97,87 %
01.02.2018 05:00 1,8 C 4,4 C 93 % 1003,0 hPa 0,0 l/m 0,0 km/h (0 Bft) S 171 0 min 0,000 mm 0,0 UV-I 0 W/m 0,8 C 1,8 C 0,0 km/h (0 Bft) 97,37 %
01.02.2018 05:02 1,8 C 4,4 C 92 % 1003,0 hPa 0,0 l/m 1,4 km/h (1 Bft) S 171 0 min 0,000 mm 0,0 UV-I 0 W/m 0,6 C 1,8 C 3,2 km/h (1 Bft) 100,00 %
01.02.2018 05:04 1,8 C 4,4 C 93 % 1003,0 hPa 0,0 l/m 2,9 km/h (1 Bft) S 171 0 min 0,000 mm 0,0 UV-I 0 W/m 0,8 C 1,8 C 6,4 km/h (2 Bft) 100,00 %
01.02.2018 05:06 1,7 C 4,4 C 93 % 1003,0 hPa 0,0 l/m 0,4 km/h (0 Bft) S 171 0 min 0,000 mm 0,0 UV-I 0 W/m 0,7 C 1,7 C 1,6 km/h (1 Bft) 100,00 %
01.02.2018 05:08 1,6 C 4,4 C 93 % 1002,9 hPa 0,0 l/m 1,4 km/h (1 Bft) S 171 0 min 0,000 mm 0,0 UV-I 0 W/m 0,6 C 1,6 C 3,2 km/h (1 Bft) 100,00 %
01.02.2018 05:10 1,7 C 4,4 C 93 % 1002,9 hPa 0,0 l/m 2,6 km/h (1 Bft) S 171 0 min 0,000 mm 0,0 UV-I 0 W/m 0,7 C 1,7 C 3,2 km/h (1 Bft) 100,00 %
01.02.2018 05:12 1,7 C 4,4 C 93 % 1002,9 hPa 0,0 l/m 4,1 km/h (1 Bft) S 169 0 min 0,000 mm 0,0 UV-I 0 W/m 0,7 C 1,7 C 6,4 km/h (2 Bft) 100,00 %
01.02.2018 05:14 1,8 C 4,4 C 92 % 1003,0 hPa 0,0 l/m 1,6 km/h (1 Bft) O-NO 75 0 min 0,000 mm 0,0 UV-I 0 W/m 0,6 C 1,8 C 4,8 km/h (1 Bft) 100,00 %
01.02.2018 05:16 1,7 C 4,4 C 92 % 1002,9 hPa 0,0 l/m 4,0 km/h (1 Bft) NO 50 0 min 0,000 mm 0,0 UV-I 0 W/m 0,5 C 1,7 C 6,4 km/h (2 Bft) 100,00 %
01.02.2018 05:18 1,7 C 4,4 C 92 % 1002,9 hPa 0,0 l/m 5,3 km/h (1 Bft) NO 51 0 min 0,000 mm 0,0 UV-I 0 W/m 0,5 C 1,7 C 6,4 km/h (2 Bft) 100,00 %
01.02.2018 05:20 1,6 C 4,4 C 93 % 1002,9 hPa 0,0 l/m 3,3 km/h (1 Bft) NO 51 0 min 0,000 mm 0,0 UV-I 0 W/m 0,6 C 1,6 C 4,8 km/h (1 Bft) 97,87 %
01.02.2018 05:22 1,4 C 4,4 C 93 % 1002,9 hPa 0,0 l/m 4,5 km/h (1 Bft) NO 45 0 min 0,000 mm 0,0 UV-I 0 W/m 0,4 C 1,4 C 6,4 km/h (2 Bft) 98,00 %
01.02.2018 05:24 1,4 C 4,4 C 93 % 1002,9 hPa 0,0 l/m 4,6 km/h (1 Bft) NO 45 0 min 0,000 mm 0,0 UV-I 0 W/m 0,4 C 1,4 C 6,4 km/h (2 Bft) 100,00 %
01.02.2018 05:26 1,4 C 4,4 C 94 % 1002,8 hPa 0,0 l/m 3,5 km/h (1 Bft) NO 45 0 min 0,000 mm 0,0 UV-I 0 W/m 0,5 C 1,4 C 4,8 km/h (1 Bft) 100,00 %
01.02.2018 05:28 1,4 C 4,4 C 94 % 1002,9 hPa 0,0 l/m 2,9 km/h (1 Bft) NO 45 0 min 0,000 mm 0,0 UV-I 0 W/m 0,5 C 1,4 C 4,8 km/h (1 Bft) 100,00 %
01.02.2018 05:30 1,3 C 4,4 C 94 % 1002,9 hPa 0,0 l/m 4,0 km/h (1 Bft) NO 45 0 min 0,000 mm 0,0 UV-I 0 W/m 0,4 C 1,3 C 6,4 km/h (2 Bft) 100,00 %
01.02.2018 05:32 1,4 C 4,4 C 94 % 1002,9 hPa 0,0 l/m 5,1 km/h (1 Bft) NO 56 0 min 0,000 mm 0,0 UV-I 0 W/m 0,5 C 1,4 C 6,4 km/h (2 Bft) 100,00 %
01.02.2018 05:34 1,4 C 4,4 C 94 % 1002,9 hPa 0,0 l/m 4,4 km/h (1 Bft) NO 55 0 min 0,000 mm 0,0 UV-I 0 W/m 0,5 C 1,4 C 6,4 km/h (2 Bft) 97,87 %
01.02.2018 05:36 1,4 C 4,4 C 94 % 1002,9 hPa 0,0 l/m 3,5 km/h (1 Bft) NO 55 0 min 0,000 mm 0,0 UV-I 0 W/m 0,5 C 1,4 C 4,8 km/h (1 Bft) 100,00 %
01.02.2018 05:38 1,4 C 4,4 C 94 % 1002,9 hPa 0,0 l/m 4,9 km/h (1 Bft) NO 55 0 min 0,000 mm 0,0 UV-I 0 W/m 0,5 C 1,4 C 6,4 km/h (2 Bft) 100,00 %
01.02.2018 05:40 1,4 C 4,4 C 94 % 1003,0 hPa 0,0 l/m 3,5 km/h (1 Bft) NO 55 0 min 0,000 mm 0,0 UV-I 0 W/m 0,5 C 1,4 C 6,4 km/h (2 Bft) 97,87 %
01.02.2018 05:42 1,4 C 4,4 C 94 % 1003,0 hPa 0,0 l/m 5,6 km/h (1 Bft) N-NO 32 0 min 0,000 mm 0,0 UV-I 0 W/m 0,5 C 1,4 C 8,0 km/h (2 Bft) 100,00 %
01.02.2018 05:44 1,3 C 4,4 C 94 % 1003,0 hPa 0,0 l/m 5,4 km/h (1 Bft) NO 38 0 min 0,000 mm 0,0 UV-I 0 W/m 0,4 C 1,3 C 8,0 km/h (2 Bft) 100,00 %
01.02.2018 05:46 1,3 C 4,4 C 95 % 1003,0 hPa 0,0 l/m 5,4 km/h (1 Bft) NO 34 0 min 0,000 mm 0,0 UV-I 0 W/m 0,6 C 1,3 C 8,0 km/h (2 Bft) 98,11 %
01.02.2018 05:48 1,3 C 4,4 C 95 % 1003,0 hPa 0,0 l/m 4,4 km/h (1 Bft) NO 34 0 min 0,000 mm 0,0 UV-I 0 W/m 0,6 C 1,3 C 6,4 km/h (2 Bft) 97,87 %
01.02.2018 05:50 1,3 C 4,4 C 95 % 1003,1 hPa 0,0 l/m 4,6 km/h (1 Bft) NO 44 0 min 0,000 mm 0,0 UV-I 0 W/m 0,6 C 1,3 C 8,0 km/h (2 Bft) 100,00 %
01.02.2018 05:52 1,2 C 4,4 C 95 % 1003,1 hPa 0,0 l/m 3,4 km/h (1 Bft) NO 44 0 min 0,000 mm 0,0 UV-I 0 W/m 0,5 C 1,2 C 4,8 km/h (1 Bft) 97,87 %
01.02.2018 05:54 1,3 C 4,4 C 95 % 1003,1 hPa 0,0 l/m 2,8 km/h (1 Bft) NO 44 0 min 0,000 mm 0,0 UV-I 0 W/m 0,6 C 1,3 C 4,8 km/h (1 Bft) 100,00 %
01.02.2018 05:56 1,3 C 4,4 C 95 % 1003,1 hPa 0,0 l/m 3,1 km/h (1 Bft) NO 44 0 min 0,000 mm 0,0 UV-I 0 W/m 0,6 C 1,3 C 4,8 km/h (1 Bft) 100,00 %
01.02.2018 05:58 1,3 C 4,4 C 95 % 1003,0 hPa 0,0 l/m 2,6 km/h (1 Bft) NO 44 0 min 0,000 mm 0,0 UV-I 0 W/m 0,6 C 1,3 C 4,8 km/h (1 Bft) 100,00 %
01.02.2018 06:00 1,3 C 4,4 C 95 % 1003,0 hPa 0,0 l/m 1,6 km/h (1 Bft) NO 44 0 min 0,000 mm 0,0 UV-I 0 W/m 0,6 C 1,3 C 3,2 km/h (1 Bft) 100,00 %
01.02.2018 06:02 1,4 C 4,4 C 95 % 1003,0 hPa 0,0 l/m 0,2 km/h (0 Bft) NO 44 0 min 0,000 mm 0,0 UV-I 0 W/m 0,7 C 1,4 C 1,6 km/h (1 Bft) 100,00 %
01.02.2018 06:04 1,4 C 4,4 C 95 % 1003,0 hPa 0,0 l/m 0,0 km/h (0 Bft) NO 44 0 min 0,000 mm 0,0 UV-I 0 W/m 0,7 C 1,4 C 0,0 km/h (0 Bft) 97,37 %
01.02.2018 06:06 1,4 C 4,4 C 95 % 1003,0 hPa 0,0 l/m 0,0 km/h (0 Bft) NO 44 0 min 0,000 mm 0,0 UV-I 0 W/m 0,7 C 1,4 C 1,6 km/h (1 Bft) 100,00 %
01.02.2018 06:08 1,5 C 4,4 C 95 % 1003,0 hPa 0,0 l/m 0,1 km/h (0 Bft) NO 44 0 min 0,000 mm 0,0 UV-I 0 W/m 0,8 C 1,5 C 1,6 km/h (1 Bft) 97,56 %
01.02.2018 06:10 1,5 C 4,4 C 95 % 1003,1 hPa 0,0 l/m 0,0 km/h (0 Bft) NO 44 0 min 0,000 mm 0,0 UV-I 0 W/m 0,8 C 1,5 C 0,0 km/h (0 Bft) 96,00 %
01.02.2018 06:12 1,5 C 4,4 C 95 % 1003,0 hPa 0,0 l/m 0,5 km/h (0 Bft) NO 44 0 min 0,000 mm 0,0 UV-I 0 W/m 0,8 C 1,5 C 1,6 km/h (1 Bft) 98,11 %
01.02.2018 06:14 1,6 C 4,4 C 95 % 1003,0 hPa 0,0 l/m 0,4 km/h (0 Bft) NO 44 0 min 0,000 mm 0,0 UV-I 0 W/m 0,9 C 1,6 C 1,6 km/h (1 Bft) 97,56 %
01.02.2018 06:16 1,6 C 4,4 C 95 % 1003,0 hPa 0,0 l/m 0,8 km/h (0 Bft) NO 44 0 min 0,000 mm 0,0 UV-I 0 W/m 0,9 C 1,6 C 3,2 km/h (1 Bft) 98,11 %
01.02.2018 06:18 1,6 C 4,4 C 95 % 1003,0 hPa 0,0 l/m 0,1 km/h (0 Bft) NO 44 0 min 0,000 mm 0,0 UV-I 0 W/m 0,9 C 1,6 C 1,6 km/h (1 Bft) 97,87 %
01.02.2018 06:20 1,6 C 4,4 C 95 % 1003,0 hPa 0,0 l/m 1,1 km/h (1 Bft) NO 44 0 min 0,000 mm 0,0 UV-I 0 W/m 0,9 C 1,6 C 3,2 km/h (1 Bft) 95,74 %
01.02.2018 06:22 1,6 C 4,4 C 95 % 1002,9 hPa 0,0 l/m 0,8 km/h (0 Bft) NO 44 0 min 0,000 mm 0,0 UV-I 0 W/m 0,9 C 1,6 C 1,6 km/h (1 Bft) 95,74 %
01.02.2018 06:24 1,7 C 4,4 C 95 % 1003,0 hPa 0,0 l/m 1,7 km/h (1 Bft) NO 44 0 min 0,000 mm 0,0 UV-I 0 W/m 1,0 C 1,7 C 3,2 km/h (1 Bft) 96,00 %
01.02.2018 06:26 1,7 C 4,4 C 95 % 1003,0 hPa 0,0 l/m 0,4 km/h (0 Bft) NO 44 0 min 0,000 mm 0,0 UV-I 0 W/m 1,0 C 1,7 C 1,6 km/h (1 Bft) 97,87 %
01.02.2018 06:28 1,8 C 4,4 C 94 % 1003,0 hPa 0,0 l/m 0,0 km/h (0 Bft) NO 44 0 min 0,000 mm 0,0 UV-I 0 W/m 0,9 C 1,8 C 0,0 km/h (0 Bft) 97,56 %
01.02.2018 06:30 1,8 C 4,4 C 94 % 1003,0 hPa 0,0 l/m 0,0 km/h (0 Bft) NO 44 0 min 0,000 mm 0,0 UV-I 0 W/m 0,9 C 1,8 C 0,0 km/h (0 Bft) 97,87 %
01.02.2018 06:32 1,8 C 4,4 C 94 % 1002,9 hPa 0,0 l/m 0,0 km/h (0 Bft) NO 44 0 min 0,000 mm 0,0 UV-I 0 W/m 0,9 C 1,8 C 0,0 km/h (0 Bft) 97,87 %
01.02.2018 06:34 1,8 C 4,4 C 94 % 1002,9 hPa 0,0 l/m 0,7 km/h (0 Bft) NO 44 0 min 0,000 mm 0,0 UV-I 0 W/m 0,9 C 1,8 C 1,6 km/h (1 Bft) 98,00 %
01.02.2018 06:36 1,8 C 4,4 C 94 % 1002,9 hPa 0,0 l/m 0,2 km/h (0 Bft) NO 44 0 min 0,000 mm 0,0 UV-I 0 W/m 0,9 C 1,8 C 1,6 km/h (1 Bft) 97,92 %
01.02.2018 06:38 1,8 C 4,4 C 94 % 1002,9 hPa 0,0 l/m 0,0 km/h (0 Bft) NO 44 0 min 0,000 mm 0,0 UV-I 0 W/m 0,9 C 1,8 C 1,6 km/h (1 Bft) 97,14 %
01.02.2018 06:40 1,7 C 4,4 C 94 % 1002,9 hPa 0,0 l/m 0,5 km/h (0 Bft) NO 44 0 min 0,000 mm 0,0 UV-I 0 W/m 0,8 C 1,7 C 1,6 km/h (1 Bft) 96,00 %
01.02.2018 06:42 1,7 C 4,4 C 94 % 1003,0 hPa 0,0 l/m 0,0 km/h (0 Bft) NO 44 0 min 0,000 mm 0,0 UV-I 0 W/m 0,8 C 1,7 C 0,0 km/h (0 Bft) 98,00 %
01.02.2018 06:44 1,7 C 4,4 C 94 % 1003,0 hPa 0,0 l/m 0,0 km/h (0 Bft) NO 44 0 min 0,000 mm 0,0 UV-I 0 W/m 0,8 C 1,7 C 0,0 km/h (0 Bft) 100,00 %
01.02.2018 06:46 1,7 C 4,4 C 94 % 1003,0 hPa 0,0 l/m 0,0 km/h (0 Bft) NO 44 0 min 0,000 mm 0,0 UV-I 0 W/m 0,8 C 1,7 C 0,0 km/h (0 Bft) 100,00 %
01.02.2018 06:48 1,6 C 4,4 C 94 % 1003,0 hPa 0,0 l/m 0,3 km/h (0 Bft) NO 44 0 min 0,000 mm 0,0 UV-I 0 W/m 0,7 C 1,6 C 1,6 km/h (1 Bft) 100,00 %
01.02.2018 06:50 1,6 C 4,4 C 95 % 1003,0 hPa 0,0 l/m 0,0 km/h (0 Bft) NO 44 0 min 0,000 mm 0,0 UV-I 0 W/m 0,9 C 1,6 C 0,0 km/h (0 Bft) 92,11 %
01.02.2018 06:52 1,7 C 4,4 C 95 % 1003,1 hPa 0,0 l/m 0,0 km/h (0 Bft) NO 44 0 min 0,000 mm 0,0 UV-I 0 W/m 1,0 C 1,7 C 0,0 km/h (0 Bft) 100,00 %
01.02.2018 06:54 1,7 C 4,4 C 95 % 1003,1 hPa 0,0 l/m 0,0 km/h (0 Bft) NO 44 0 min 0,000 mm 0,0 UV-I 0 W/m 1,0 C 1,7 C 0,0 km/h (0 Bft) 100,00 %
01.02.2018 06:56 1,7 C 4,4 C 95 % 1003,1 hPa 0,0 l/m 0,0 km/h (0 Bft) NO 44 0 min 0,000 mm 0,0 UV-I 0 W/m 1,0 C 1,7 C 0,0 km/h (0 Bft) 100,00 %
01.02.2018 06:58 1,7 C 4,4 C 95 % 1003,1 hPa 0,0 l/m 0,0 km/h (0 Bft) NO 44 0 min 0,000 mm 0,0 UV-I 0 W/m 1,0 C 1,7 C 0,0 km/h (0 Bft) 98,00 %
01.02.2018 07:00 1,7 C 4,4 C 95 % 1003,1 hPa 0,0 l/m 0,0 km/h (0 Bft) NO 44 0 min 0,000 mm 0,0 UV-I 0 W/m 1,0 C 1,7 C 0,0 km/h (0 Bft) 100,00 %
01.02.2018 07:02 1,7 C 4,4 C 95 % 1003,1 hPa 0,0 l/m 0,0 km/h (0 Bft) NO 44 0 min 0,000 mm 0,0 UV-I 0 W/m 1,0 C 1,7 C 0,0 km/h (0 Bft) 100,00 %
01.02.2018 07:04 1,7 C 4,4 C 95 % 1003,0 hPa 0,0 l/m 0,0 km/h (0 Bft) NO 44 0 min 0,000 mm 0,0 UV-I 0 W/m 1,0 C 1,7 C 0,0 km/h (0 Bft) 100,00 %
01.02.2018 07:06 1,7 C 4,4 C 95 % 1003,0 hPa 0,0 l/m 0,0 km/h (0 Bft) NO 44 0 min 0,000 mm 0,0 UV-I 0 W/m 1,0 C 1,7 C 0,0 km/h (0 Bft) 100,00 %
01.02.2018 07:08 1,7 C 4,4 C 95 % 1003,1 hPa 0,0 l/m 0,0 km/h (0 Bft) NO 44 0 min 0,000 mm 0,0 UV-I 0 W/m 1,0 C 1,7 C 0,0 km/h (0 Bft) 100,00 %
01.02.2018 07:10 1,7 C 4,4 C 95 % 1003,1 hPa 0,0 l/m 0,0 km/h (0 Bft) NO 44 0 min 0,000 mm 0,0 UV-I 0 W/m 1,0 C 1,7 C 0,0 km/h (0 Bft) 100,00 %
01.02.2018 07:12 1,8 C 4,4 C 95 % 1003,1 hPa 0,0 l/m 0,0 km/h (0 Bft) NO 44 0 min 0,000 mm 0,0 UV-I 0 W/m 1,1 C 1,8 C 0,0 km/h (0 Bft) 96,36 %
01.02.2018 07:14 1,8 C 4,4 C 95 % 1003,1 hPa 0,0 l/m 0,3 km/h (0 Bft) NO 44 0 min 0,000 mm 0,0 UV-I 0 W/m 1,1 C 1,8 C 1,6 km/h (1 Bft) 100,00 %
01.02.2018 07:16 1,8 C 4,4 C 94 % 1003,0 hPa 0,0 l/m 0,0 km/h (0 Bft) NO 44 0 min 0,000 mm 0,0 UV-I 0 W/m 0,9 C 1,8 C 0,0 km/h (0 Bft) 100,00 %
01.02.2018 07:18 1,8 C 4,4 C 95 % 1003,1 hPa 0,0 l/m 0,1 km/h (0 Bft) NO 44 0 min 0,000 mm 0,0 UV-I 0 W/m 1,1 C 1,8 C 1,6 km/h (1 Bft) 100,00 %
01.02.2018 07:20 1,8 C 4,4 C 94 % 1003,0 hPa 0,0 l/m 2,3 km/h (1 Bft) NO 44 0 min 0,000 mm 0,0 UV-I 0 W/m 0,9 C 1,8 C 3,2 km/h (1 Bft) 100,00 %
01.02.2018 07:22 1,7 C 4,4 C 95 % 1003,0 hPa 0,0 l/m 1,3 km/h (1 Bft) NO 44 0 min 0,000 mm 0,0 UV-I 0 W/m 1,0 C 1,7 C 3,2 km/h (1 Bft) 100,00 %
01.02.2018 07:24 1,8 C 4,4 C 95 % 1003,1 hPa 0,0 l/m 0,2 km/h (0 Bft) NO 44 0 min 0,000 mm 0,0 UV-I 0 W/m 1,1 C 1,8 C 1,6 km/h (1 Bft) 97,87 %
01.02.2018 07:26 1,8 C 4,4 C 95 % 1003,0 hPa 0,0 l/m 0,0 km/h (0 Bft) NO 44 0 min 0,000 mm 0,0 UV-I 0 W/m 1,1 C 1,8 C 0,0 km/h (0 Bft) 100,00 %
01.02.2018 07:28 1,8 C 4,4 C 94 % 1003,0 hPa 0,0 l/m 0,0 km/h (0 Bft) NO 44 0 min 0,000 mm 0,0 UV-I 5 W/m 0,9 C 1,8 C 0,0 km/h (0 Bft) 100,00 %
01.02.2018 07:30 1,8 C 4,4 C 94 % 1003,0 hPa 0,0 l/m 0,2 km/h (0 Bft) NO 44 0 min 0,000 mm 0,0 UV-I 5 W/m 0,9 C 1,8 C 1,6 km/h (1 Bft) 95,74 %
01.02.2018 07:32 1,8 C 4,4 C 94 % 1003,0 hPa 0,0 l/m 0,7 km/h (0 Bft) NO 44 0 min 0,000 mm 0,0 UV-I 5 W/m 0,9 C 1,8 C 1,6 km/h (1 Bft) 100,00 %
01.02.2018 07:34 1,8 C 4,4 C 94 % 1002,9 hPa 0,0 l/m 0,9 km/h (0 Bft) NO 44 0 min 0,000 mm 0,0 UV-I 5 W/m 0,9 C 1,8 C 1,6 km/h (1 Bft) 100,00 %
01.02.2018 07:36 1,8 C 4,4 C 94 % 1002,9 hPa 0,0 l/m 1,0 km/h (0 Bft) NO 43 0 min 0,000 mm 0,0 UV-I 5 W/m 0,9 C 1,8 C 3,2 km/h (1 Bft) 97,87 %
01.02.2018 07:38 1,8 C 4,4 C 94 % 1002,9 hPa 0,0 l/m 0,4 km/h (0 Bft) NO 43 0 min 0,000 mm 0,0 UV-I 6 W/m 0,9 C 1,8 C 3,2 km/h (1 Bft) 97,87 %
01.02.2018 07:40 1,8 C 4,4 C 94 % 1002,8 hPa 0,0 l/m 0,9 km/h (0 Bft) NW 306 0 min 0,000 mm 0,0 UV-I 7 W/m 0,9 C 1,8 C 4,8 km/h (1 Bft) 100,00 %
01.02.2018 07:42 1,8 C 4,4 C 94 % 1002,9 hPa 0,0 l/m 0,4 km/h (0 Bft) NW 306 0 min 0,000 mm 0,0 UV-I 7 W/m 0,9 C 1,8 C 3,2 km/h (1 Bft) 100,00 %
01.02.2018 07:44 1,8 C 4,4 C 94 % 1002,9 hPa 0,0 l/m 0,0 km/h (0 Bft) NW 306 0 min 0,000 mm 0,0 UV-I 9 W/m 0,9 C 1,8 C 0,0 km/h (0 Bft) 97,87 %
01.02.2018 07:46 1,8 C 4,4 C 95 % 1002,9 hPa 0,0 l/m 0,0 km/h (0 Bft) NW 306 0 min 0,000 mm 0,0 UV-I 9 W/m 1,1 C 1,8 C 0,0 km/h (0 Bft) 98,11 %
01.02.2018 07:48 1,8 C 4,4 C 95 % 1002,9 hPa 0,0 l/m 0,0 km/h (0 Bft) NW 306 0 min 0,000 mm 0,0 UV-I 9 W/m 1,1 C 1,8 C 0,0 km/h (0 Bft) 100,00 %
01.02.2018 07:50 1,8 C 4,4 C 94 % 1002,8 hPa 0,0 l/m 0,6 km/h (0 Bft) NW 306 0 min 0,000 mm 0,0 UV-I 10 W/m 0,9 C 1,8 C 3,2 km/h (1 Bft) 100,00 %
01.02.2018 07:52 1,8 C 4,4 C 95 % 1002,9 hPa 0,0 l/m 0,1 km/h (0 Bft) NW 306 0 min 0,000 mm 0,0 UV-I 11 W/m 1,1 C 1,8 C 1,6 km/h (1 Bft) 100,00 %
01.02.2018 07:54 1,8 C 4,4 C 95 % 1002,9 hPa 0,0 l/m 0,0 km/h (0 Bft) NW 306 0 min 0,000 mm 0,0 UV-I 11 W/m 1,1 C 1,8 C 0,0 km/h (0 Bft) 100,00 %
01.02.2018 07:56 1,8 C 4,4 C 95 % 1002,9 hPa 0,0 l/m 0,0 km/h (0 Bft) NW 306 0 min 0,000 mm 0,0 UV-I 12 W/m 1,1 C 1,8 C 0,0 km/h (0 Bft) 100,00 %
01.02.2018 07:58 1,8 C 4,4 C 94 % 1002,9 hPa 0,0 l/m 0,0 km/h (0 Bft) NW 306 0 min 0,000 mm 0,0 UV-I 13 W/m 0,9 C 1,8 C 0,0 km/h (0 Bft) 95,74 %
01.02.2018 08:00 1,8 C 4,4 C 95 % 1002,9 hPa 0,0 l/m 0,0 km/h (0 Bft) NW 306 0 min 0,000 mm 0,0 UV-I 15 W/m 1,1 C 1,8 C 0,0 km/h (0 Bft) 97,37 %
01.02.2018 08:02 1,8 C 4,4 C 94 % 1002,9 hPa 0,0 l/m 0,0 km/h (0 Bft) NW 306 0 min 0,000 mm 0,0 UV-I 16 W/m 0,9 C 1,8 C 0,0 km/h (0 Bft) 97,87 %
01.02.2018 08:04 1,9 C 4,4 C 95 % 1003,0 hPa 0,0 l/m 0,0 km/h (0 Bft) NW 306 0 min 0,000 mm 0,0 UV-I 18 W/m 1,2 C 1,9 C 0,0 km/h (0 Bft) 97,87 %
01.02.2018 08:06 1,9 C 4,4 C 94 % 1003,1 hPa 0,0 l/m 0,0 km/h (0 Bft) NW 306 0 min 0,000 mm 0,0 UV-I 19 W/m 1,0 C 1,9 C 0,0 km/h (0 Bft) 97,87 %
01.02.2018 08:08 1,9 C 4,4 C 94 % 1003,1 hPa 0,0 l/m 0,1 km/h (0 Bft) NW 306 0 min 0,000 mm 0,0 UV-I 21 W/m 1,0 C 1,9 C 1,6 km/h (1 Bft) 96,00 %
01.02.2018 08:10 1,9 C 4,4 C 94 % 1003,1 hPa 0,0 l/m 1,4 km/h (1 Bft) NW 306 0 min 0,000 mm 0,0 UV-I 19 W/m 1,0 C 1,9 C 3,2 km/h (1 Bft) 97,87 %
01.02.2018 08:12 1,9 C 4,4 C 94 % 1003,1 hPa 0,0 l/m 0,8 km/h (0 Bft) NW 306 0 min 0,000 mm 0,0 UV-I 19 W/m 1,0 C 1,9 C 3,2 km/h (1 Bft) 97,87 %
01.02.2018 08:14 2,0 C 4,4 C 94 % 1003,2 hPa 0,0 l/m 2,4 km/h (1 Bft) NW 306 0 min 0,000 mm 0,0 UV-I 17 W/m 1,1 C 2,0 C 3,2 km/h (1 Bft) 96,00 %
01.02.2018 08:16 2,0 C 4,4 C 94 % 1003,1 hPa 0,0 l/m 3,0 km/h (1 Bft) NW 306 0 min 0,000 mm 0,0 UV-I 15 W/m 1,1 C 2,0 C 4,8 km/h (1 Bft) 96,00 %
01.02.2018 08:18 1,9 C 4,4 C 94 % 1003,2 hPa 0,0 l/m 1,8 km/h (1 Bft) NW 305 0 min 0,000 mm 0,0 UV-I 14 W/m 1,0 C 1,9 C 3,2 km/h (1 Bft) 92,11 %
01.02.2018 08:20 2,0 C 4,4 C 94 % 1003,3 hPa 0,0 l/m 1,6 km/h (1 Bft) NW 305 0 min 0,000 mm 0,0 UV-I 14 W/m 1,1 C 2,0 C 3,2 km/h (1 Bft) 95,74 %
01.02.2018 08:22 2,0 C 4,4 C 95 % 1003,2 hPa 0,0 l/m 3,8 km/h (1 Bft) W-SW 240 0 min 0,000 mm 0,0 UV-I 14 W/m 1,3 C 2,0 C 4,8 km/h (1 Bft) 92,00 %
01.02.2018 08:24 2,0 C 4,4 C 94 % 1003,3 hPa 0,0 l/m 2,3 km/h (1 Bft) W-SW 240 0 min 0,000 mm 0,0 UV-I 14 W/m 1,1 C 2,0 C 4,8 km/h (1 Bft) 95,24 %
01.02.2018 08:26 2,1 C 4,4 C 94 % 1003,3 hPa 0,0 l/m 1,8 km/h (1 Bft) W-SW 240 0 min 0,000 mm 0,0 UV-I 14 W/m 1,2 C 2,1 C 3,2 km/h (1 Bft) 98,00 %
01.02.2018 08:28 2,1 C 4,4 C 94 % 1003,3 hPa 0,0 l/m 1,3 km/h (1 Bft) SW 230 0 min 0,000 mm 0,0 UV-I 14 W/m 1,2 C 2,1 C 3,2 km/h (1 Bft) 92,45 %
01.02.2018 08:30 2,1 C 4,4 C 94 % 1003,3 hPa 0,0 l/m 1,2 km/h (1 Bft) SW 229 0 min 0,000 mm 0,0 UV-I 14 W/m 1,2 C 2,1 C 3,2 km/h (1 Bft) 94,74 %
01.02.2018 08:32 2,2 C 4,4 C 95 % 1003,3 hPa 0,0 l/m 0,4 km/h (0 Bft) SW 229 0 min 0,000 mm 0,0 UV-I 15 W/m 1,5 C 2,2 C 3,2 km/h (1 Bft) 93,62 %
01.02.2018 08:34 2,2 C 4,4 C 95 % 1003,3 hPa 0,0 l/m 0,1 km/h (0 Bft) SW 229 0 min 0,000 mm 0,0 UV-I 16 W/m 1,5 C 2,2 C 1,6 km/h (1 Bft) 95,74 %
01.02.2018 08:36 2,3 C 4,4 C 95 % 1003,3 hPa 0,0 l/m 0,1 km/h (0 Bft) SW 229 0 min 0,000 mm 0,0 UV-I 18 W/m 1,6 C 2,3 C 1,6 km/h (1 Bft) 96,00 %
01.02.2018 08:38 2,3 C 4,4 C 95 % 1003,3 hPa 0,0 l/m 0,0 km/h (0 Bft) SW 229 0 min 0,000 mm 0,0 UV-I 18 W/m 1,6 C 2,3 C 0,0 km/h (0 Bft) 96,00 %
01.02.2018 08:40 2,3 C 4,4 C 95 % 1003,3 hPa 0,0 l/m 0,0 km/h (0 Bft) SW 229 0 min 0,000 mm 0,0 UV-I 19 W/m 1,6 C 2,3 C 0,0 km/h (0 Bft) 93,62 %
01.02.2018 08:42 2,3 C 4,4 C 94 % 1003,3 hPa 0,0 l/m 1,1 km/h (1 Bft) SW 229 0 min 0,000 mm 0,0 UV-I 18 W/m 1,4 C 2,3 C 1,6 km/h (1 Bft) 95,45 %
01.02.2018 08:44 2,4 C 4,4 C 94 % 1003,2 hPa 0,0 l/m 0,1 km/h (0 Bft) SW 229 0 min 0,000 mm 0,0 UV-I 18 W/m 1,5 C 2,4 C 1,6 km/h (1 Bft) 94,00 %
01.02.2018 08:46 2,4 C 4,4 C 94 % 1003,3 hPa 0,2 l/m 0,2 km/h (0 Bft) SW 229 0 min 0,000 mm 0,0 UV-I 19 W/m 1,5 C 2,4 C 1,6 km/h (1 Bft) 95,74 %
01.02.2018 08:48 2,4 C 4,4 C 94 % 1003,3 hPa 0,0 l/m 0,6 km/h (0 Bft) SW 229 0 min 0,000 mm 0,0 UV-I 19 W/m 1,5 C 2,4 C 1,6 km/h (1 Bft) 94,74 %
01.02.2018 08:50 2,4 C 4,4 C 95 % 1003,3 hPa 0,0 l/m 0,8 km/h (0 Bft) SW 229 0 min 0,000 mm 0,0 UV-I 20 W/m 1,7 C 2,4 C 3,2 km/h (1 Bft) 97,87 %
01.02.2018 08:52 2,4 C 4,4 C 95 % 1003,3 hPa 0,0 l/m 2,0 km/h (1 Bft) SW 218 0 min 0,000 mm 0,0 UV-I 23 W/m 1,7 C 2,4 C 4,8 km/h (1 Bft) 95,74 %
01.02.2018 08:54 2,5 C 4,4 C 95 % 1003,4 hPa 0,0 l/m 3,7 km/h (1 Bft) S-SW 205 0 min 0,000 mm 0,0 UV-I 24 W/m 1,8 C 2,5 C 4,8 km/h (1 Bft) 98,00 %
01.02.2018 08:56 2,6 C 4,4 C 95 % 1003,4 hPa 0,0 l/m 2,1 km/h (1 Bft) S-SW 205 0 min 0,000 mm 0,0 UV-I 25 W/m 1,9 C 2,6 C 4,8 km/h (1 Bft) 94,87 %
01.02.2018 08:58 2,6 C 4,4 C 95 % 1003,3 hPa 0,0 l/m 2,8 km/h (1 Bft) S-SO 165 0 min 0,000 mm 0,0 UV-I 25 W/m 1,9 C 2,6 C 3,2 km/h (1 Bft) 98,08 %
01.02.2018 09:00 2,6 C 4,4 C 95 % 1003,2 hPa 0,0 l/m 2,9 km/h (1 Bft) S-SO 165 0 min 0,000 mm 0,0 UV-I 26 W/m 1,9 C 2,6 C 6,4 km/h (2 Bft) 96,00 %
01.02.2018 09:02 2,7 C 4,4 C 95 % 1003,3 hPa 0,0 l/m 4,0 km/h (1 Bft) S-SO 159 0 min 0,000 mm 0,0 UV-I 30 W/m 2,0 C 2,7 C 6,4 km/h (2 Bft) 97,87 %
01.02.2018 09:04 2,9 C 4,4 C 94 % 1003,1 hPa 0,0 l/m 4,3 km/h (1 Bft) S-SO 165 0 min 0,000 mm 0,0 UV-I 36 W/m 2,0 C 2,9 C 9,7 km/h (2 Bft) 98,00 %
01.02.2018 09:06 3,1 C 4,4 C 94 % 1003,2 hPa 0,0 l/m 4,5 km/h (1 Bft) S-SO 163 0 min 0,000 mm 0,0 UV-I 44 W/m 2,2 C 3,1 C 6,4 km/h (2 Bft) 97,44 %
01.02.2018 09:08 3,2 C 4,4 C 93 % 1003,1 hPa 0,0 l/m 4,1 km/h (1 Bft) S 169 0 min 0,000 mm 0,0 UV-I 51 W/m 2,2 C 3,2 C 8,0 km/h (2 Bft) 98,11 %
01.02.2018 09:10 3,3 C 4,4 C 93 % 1003,1 hPa 0,0 l/m 5,1 km/h (1 Bft) S-SO 160 0 min 0,000 mm 0,0 UV-I 59 W/m 2,3 C 3,3 C 9,7 km/h (2 Bft) 100,00 %
01.02.2018 09:12 3,4 C 4,4 C 92 % 1003,1 hPa 0,0 l/m 5,4 km/h (1 Bft) S-SO 168 0 min 0,000 mm 0,0 UV-I 64 W/m 2,2 C 3,4 C 9,7 km/h (2 Bft) 100,00 %
01.02.2018 09:14 3,6 C 4,4 C 92 % 1003,0 hPa 0,0 l/m 5,4 km/h (1 Bft) S-SO 148 0 min 0,000 mm 0,0 UV-I 63 W/m 2,4 C 3,6 C 8,0 km/h (2 Bft) 100,00 %
01.02.2018 09:16 3,7 C 4,4 C 92 % 1003,1 hPa 0,0 l/m 6,0 km/h (2 Bft) S-SO 165 0 min 0,000 mm 0,0 UV-I 55 W/m 2,5 C 3,7 C 11,3 km/h (2 Bft) 100,00 %
01.02.2018 09:18 3,8 C 4,4 C 92 % 1003,0 hPa 0,0 l/m 3,3 km/h (1 Bft) S 175 0 min 0,000 mm 0,0 UV-I 47 W/m 2,6 C 3,8 C 6,4 km/h (2 Bft) 100,00 %
01.02.2018 09:20 3,9 C 4,4 C 92 % 1003,1 hPa 0,0 l/m 2,3 km/h (1 Bft) SW 219 0 min 0,000 mm 0,0 UV-I 45 W/m 2,7 C 3,9 C 4,8 km/h (1 Bft) 100,00 %
01.02.2018 09:22 3,8 C 4,4 C 92 % 1003,1 hPa 0,0 l/m 4,6 km/h (1 Bft) W 259 0 min 0,000 mm 0,0 UV-I 48 W/m 2,6 C 3,8 C 6,4 km/h (2 Bft) 98,00 %
01.02.2018 09:24 3,8 C 4,4 C 92 % 1003,1 hPa 0,0 l/m 5,5 km/h (1 Bft) S-SO 166 0 min 0,000 mm 0,0 UV-I 52 W/m 2,6 C 3,8 C 8,0 km/h (2 Bft) 100,00 %
01.02.2018 09:26 3,7 C 4,4 C 93 % 1003,0 hPa 0,0 l/m 3,5 km/h (1 Bft) S-SO 160 0 min 0,000 mm 0,0 UV-I 56 W/m 2,7 C 3,7 C 8,0 km/h (2 Bft) 100,00 %
01.02.2018 09:28 3,7 C 4,4 C 93 % 1003,0 hPa 0,0 l/m 2,9 km/h (1 Bft) S 169 0 min 0,000 mm 0,0 UV-I 56 W/m 2,7 C 3,7 C 6,4 km/h (2 Bft) 100,00 %
01.02.2018 09:30 3,8 C 4,4 C 93 % 1003,0 hPa 0,0 l/m 4,2 km/h (1 Bft) S-SO 166 0 min 0,000 mm 0,0 UV-I 57 W/m 2,8 C 3,8 C 8,0 km/h (2 Bft) 100,00 %
01.02.2018 09:32 3,9 C 4,4 C 93 % 1003,0 hPa 0,0 l/m 3,4 km/h (1 Bft) S-SO 152 0 min 0,000 mm 0,0 UV-I 62 W/m 2,9 C 3,9 C 6,4 km/h (2 Bft) 100,00 %
01.02.2018 09:34 4,1 C 4,4 C 93 % 1002,9 hPa 0,0 l/m 3,3 km/h (1 Bft) S 170 0 min 0,000 mm 0,0 UV-I 66 W/m 3,1 C 4,1 C 6,4 km/h (2 Bft) 100,00 %
01.02.2018 09:36 4,1 C 4,4 C 93 % 1003,0 hPa 0,0 l/m 4,7 km/h (1 Bft) SO 146 0 min 0,000 mm 0,0 UV-I 71 W/m 3,1 C 4,1 C 9,7 km/h (2 Bft) 100,00 %
01.02.2018 09:38 4,2 C 4,4 C 93 % 1003,0 hPa 0,0 l/m 5,7 km/h (1 Bft) S-SO 167 0 min 0,000 mm 0,0 UV-I 65 W/m 3,2 C 4,2 C 11,3 km/h (2 Bft) 100,00 %
01.02.2018 09:40 4,3 C 4,4 C 92 % 1003,0 hPa 0,0 l/m 5,7 km/h (1 Bft) SW 225 0 min 0,000 mm 0,0 UV-I 58 W/m 3,1 C 4,3 C 11,3 km/h (2 Bft) 100,00 %
01.02.2018 09:43 4,2 C 4,4 C 92 % 1003,0 hPa 0,0 l/m 5,4 km/h (1 Bft) S-SO 157 0 min 0,000 mm 0,0 UV-I 61 W/m 3,0 C 4,2 C 9,7 km/h (2 Bft) 100,00 %
01.02.2018 09:44 4,2 C 4,4 C 92 % 1003,0 hPa 0,2 l/m 6,9 km/h (2 Bft) S-SO 159 0 min 0,000 mm 0,0 UV-I 66 W/m 3,0 C 3,8 C 9,7 km/h (2 Bft) 100,00 %
01.02.2018 09:46 4,2 C 4,4 C 92 % 1003,0 hPa 0,0 l/m 6,1 km/h (2 Bft) S-SO 165 0 min 0,000 mm 0,0 UV-I 65 W/m 3,0 C 4,2 C 12,9 km/h (3 Bft) 100,00 %
01.02.2018 09:48 4,3 C 4,4 C 92 % 1003,1 hPa 0,0 l/m 7,1 km/h (2 Bft) S-SW 192 0 min 0,000 mm 0,0 UV-I 58 W/m 3,1 C 3,7 C 9,7 km/h (2 Bft) 100,00 %
01.02.2018 09:50 4,3 C 4,4 C 92 % 1003,1 hPa 0,0 l/m 5,0 km/h (1 Bft) S-SW 194 0 min 0,000 mm 0,0 UV-I 49 W/m 3,1 C 4,3 C 8,0 km/h (2 Bft) 100,00 %
01.02.2018 09:52 4,2 C 4,4 C 93 % 1003,0 hPa 0,0 l/m 3,9 km/h (1 Bft) S 190 0 min 0,000 mm 0,0 UV-I 42 W/m 3,2 C 4,2 C 8,0 km/h (2 Bft) 100,00 %
01.02.2018 09:54 4,2 C 4,4 C 93 % 1003,0 hPa 0,0 l/m 4,9 km/h (1 Bft) S-SW 200 0 min 0,000 mm 0,0 UV-I 37 W/m 3,2 C 4,2 C 8,0 km/h (2 Bft) 97,37 %
01.02.2018 09:56 4,2 C 4,4 C 93 % 1003,0 hPa 0,0 l/m 3,0 km/h (1 Bft) S 180 0 min 0,000 mm 0,0 UV-I 33 W/m 3,2 C 4,2 C 8,0 km/h (2 Bft) 100,00 %
01.02.2018 09:58 4,3 C 4,4 C 94 % 1003,0 hPa 0,0 l/m 3,0 km/h (1 Bft) S-SO 166 0 min 0,000 mm 0,0 UV-I 34 W/m 3,4 C 4,3 C 4,8 km/h (1 Bft) 100,00 %
01.02.2018 10:00 4,3 C 4,4 C 94 % 1003,0 hPa 0,0 l/m 3,8 km/h (1 Bft) S 175 0 min 0,025 mm 0,0 UV-I 35 W/m 3,4 C 4,3 C 6,4 km/h (2 Bft) 100,00 %
01.02.2018 10:02 4,4 C 4,4 C 93 % 1002,9 hPa 0,0 l/m 3,8 km/h (1 Bft) S-SW 202 0 min 0,000 mm 0,0 UV-I 36 W/m 3,4 C 4,4 C 6,4 km/h (2 Bft) 100,00 %
01.02.2018 10:04 4,4 C 4,4 C 94 % 1002,9 hPa 0,0 l/m 4,0 km/h (1 Bft) S 181 0 min 0,000 mm 0,0 UV-I 39 W/m 3,5 C 4,4 C 6,4 km/h (2 Bft) 100,00 %
01.02.2018 10:06 4,5 C 4,4 C 94 % 1002,9 hPa 0,0 l/m 4,2 km/h (1 Bft) S-SW 199 0 min 0,000 mm 0,0 UV-I 39 W/m 3,6 C 4,5 C 8,0 km/h (2 Bft) 100,00 %
01.02.2018 10:08 4,6 C 4,4 C 94 % 1002,9 hPa 0,0 l/m 3,8 km/h (1 Bft) S-SW 192 0 min 0,000 mm 0,0 UV-I 38 W/m 3,7 C 4,6 C 6,4 km/h (2 Bft) 97,14 %
01.02.2018 10:10 4,6 C 4,4 C 93 % 1002,9 hPa 0,0 l/m 3,3 km/h (1 Bft) S-SW 200 0 min 0,000 mm 0,0 UV-I 43 W/m 3,6 C 4,6 C 6,4 km/h (2 Bft) 100,00 %
01.02.2018 10:12 4,6 C 4,4 C 93 % 1002,9 hPa 0,0 l/m 2,9 km/h (1 Bft) S-SO 167 0 min 0,000 mm 0,0 UV-I 52 W/m 3,6 C 4,6 C 4,8 km/h (1 Bft) 100,00 %
01.02.2018 10:14 4,7 C 4,4 C 93 % 1002,9 hPa 0,0 l/m 4,0 km/h (1 Bft) S-SW 196 0 min 0,000 mm 0,0 UV-I 59 W/m 3,7 C 4,7 C 8,0 km/h (2 Bft) 100,00 %
01.02.2018 10:16 4,7 C 4,4 C 93 % 1002,9 hPa 0,0 l/m 3,5 km/h (1 Bft) S 190 0 min 0,000 mm 0,0 UV-I 68 W/m 3,7 C 4,7 C 4,8 km/h (1 Bft) 100,00 %
01.02.2018 10:18 4,8 C 4,4 C 93 % 1002,9 hPa 0,0 l/m 3,3 km/h (1 Bft) S 190 0 min 0,000 mm 0,0 UV-I 74 W/m 3,8 C 4,8 C 6,4 km/h (2 Bft) 100,00 %
01.02.2018 10:20 4,8 C 4,4 C 93 % 1002,8 hPa 0,0 l/m 4,2 km/h (1 Bft) S 185 0 min 0,000 mm 0,0 UV-I 80 W/m 3,8 C 4,8 C 6,4 km/h (2 Bft) 97,22 %
01.02.2018 10:22 4,9 C 4,4 C 93 % 1002,8 hPa 0,0 l/m 3,4 km/h (1 Bft) S-SW 201 0 min 0,000 mm 0,0 UV-I 91 W/m 3,9 C 4,9 C 4,8 km/h (1 Bft) 98,28 %
01.02.2018 10:24 4,9 C 4,4 C 93 % 1002,8 hPa 0,0 l/m 3,6 km/h (1 Bft) S-SW 204 0 min 0,000 mm 0,0 UV-I 102 W/m 3,9 C 4,9 C 6,4 km/h (2 Bft) 97,62 %
01.02.2018 10:26 5,0 C 4,4 C 93 % 1002,8 hPa 0,0 l/m 4,2 km/h (1 Bft) S-SW 204 0 min 0,000 mm 0,0 UV-I 113 W/m 4,0 C 5,0 C 6,4 km/h (2 Bft) 96,00 %
01.02.2018 10:28 5,1 C 4,4 C 93 % 1002,8 hPa 0,0 l/m 3,8 km/h (1 Bft) S-SW 204 0 min 0,000 mm 0,0 UV-I 119 W/m 4,1 C 5,1 C 6,4 km/h (2 Bft) 100,00 %
01.02.2018 10:30 5,2 C 4,4 C 93 % 1002,8 hPa 0,0 l/m 3,7 km/h (1 Bft) S-SW 203 0 min 0,000 mm 0,0 UV-I 115 W/m 4,2 C 5,2 C 4,8 km/h (1 Bft) 96,00 %
01.02.2018 10:32 5,3 C 4,4 C 93 % 1002,8 hPa 0,0 l/m 2,8 km/h (1 Bft) S-SW 203 0 min 0,000 mm 0,0 UV-I 110 W/m 4,3 C 5,3 C 4,8 km/h (1 Bft) 97,87 %
01.02.2018 10:34 5,4 C 4,4 C 93 % 1002,8 hPa 0,0 l/m 3,1 km/h (1 Bft) S-SW 202 0 min 0,000 mm 0,0 UV-I 105 W/m 4,4 C 5,4 C 4,8 km/h (1 Bft) 98,00 %
01.02.2018 10:36 5,4 C 4,4 C 92 % 1002,8 hPa 0,0 l/m 3,1 km/h (1 Bft) S-SW 202 0 min 0,000 mm 0,0 UV-I 101 W/m 4,2 C 5,4 C 4,8 km/h (1 Bft) 98,00 %
01.02.2018 10:38 5,6 C 4,4 C 92 % 1002,8 hPa 0,0 l/m 2,9 km/h (1 Bft) S-SW 202 0 min 0,000 mm 0,0 UV-I 95 W/m 4,4 C 5,6 C 4,8 km/h (1 Bft) 97,87 %
01.02.2018 10:40 5,6 C 4,4 C 92 % 1002,8 hPa 0,0 l/m 2,8 km/h (1 Bft) S-SW 202 0 min 0,000 mm 0,0 UV-I 86 W/m 4,4 C 5,6 C 4,8 km/h (1 Bft) 95,12 %
01.02.2018 10:42 5,6 C 4,4 C 91 % 1002,8 hPa 0,0 l/m 1,1 km/h (1 Bft) S-SW 202 0 min 0,000 mm 0,0 UV-I 76 W/m 4,2 C 5,6 C 3,2 km/h (1 Bft) 98,00 %
01.02.2018 10:44 5,6 C 4,4 C 91 % 1002,8 hPa 0,0 l/m 1,2 km/h (1 Bft) S-SW 202 0 min 0,000 mm 0,0 UV-I 70 W/m 4,2 C 5,6 C 3,2 km/h (1 Bft) 93,62 %
01.02.2018 10:46 5,6 C 4,4 C 91 % 1002,8 hPa 0,0 l/m 2,0 km/h (1 Bft) S-SW 202 0 min 0,000 mm 0,0 UV-I 69 W/m 4,2 C 5,6 C 4,8 km/h (1 Bft) 100,00 %
01.02.2018 10:48 5,6 C 4,4 C 91 % 1002,9 hPa 0,0 l/m 2,2 km/h (1 Bft) S-SW 202 0 min 0,000 mm 0,0 UV-I 69 W/m 4,2 C 5,6 C 4,8 km/h (1 Bft) 96,00 %
01.02.2018 10:50 5,7 C 4,4 C 91 % 1002,9 hPa 0,0 l/m 2,5 km/h (1 Bft) S-SW 202 0 min 0,000 mm 0,0 UV-I 62 W/m 4,3 C 5,7 C 4,8 km/h (1 Bft) 98,11 %
01.02.2018 10:52 5,7 C 4,4 C 90 % 1002,8 hPa 0,0 l/m 3,5 km/h (1 Bft) S-SW 198 0 min 0,000 mm 0,0 UV-I 57 W/m 4,2 C 5,7 C 4,8 km/h (1 Bft) 97,56 %
01.02.2018 10:54 5,8 C 4,4 C 90 % 1002,8 hPa 0,0 l/m 1,5 km/h (1 Bft) S-SW 198 0 min 0,000 mm 0,0 UV-I 60 W/m 4,3 C 5,8 C 4,8 km/h (1 Bft) 100,00 %
01.02.2018 10:56 5,8 C 4,4 C 90 % 1002,8 hPa 0,0 l/m 1,0 km/h (0 Bft) S-SW 207 0 min 0,000 mm 0,0 UV-I 69 W/m 4,3 C 5,8 C 3,2 km/h (1 Bft) 100,00 %
01.02.2018 10:58 5,8 C 4,4 C 90 % 1002,9 hPa 0,0 l/m 3,7 km/h (1 Bft) S-SW 207 0 min 0,000 mm 0,0 UV-I 69 W/m 4,3 C 5,8 C 4,8 km/h (1 Bft) 100,00 %
01.02.2018 11:00 5,8 C 4,4 C 90 % 1002,9 hPa 0,0 l/m 3,1 km/h (1 Bft) SW 215 0 min 0,000 mm 0,0 UV-I 65 W/m 4,3 C 5,8 C 4,8 km/h (1 Bft) 100,00 %
01.02.2018 11:02 5,8 C 4,4 C 90 % 1002,9 hPa 0,0 l/m 3,8 km/h (1 Bft) SW 217 0 min 0,026 mm 0,0 UV-I 64 W/m 4,3 C 5,8 C 4,8 km/h (1 Bft) 98,08 %
01.02.2018 11:04 5,8 C 4,4 C 90 % 1002,9 hPa 0,0 l/m 3,7 km/h (1 Bft) W-SW 258 0 min 0,000 mm 0,0 UV-I 67 W/m 4,3 C 5,8 C 6,4 km/h (2 Bft) 97,92 %
01.02.2018 11:06 5,8 C 4,4 C 90 % 1002,8 hPa 0,0 l/m 3,2 km/h (1 Bft) W 261 0 min 0,000 mm 0,0 UV-I 71 W/m 4,3 C 5,8 C 4,8 km/h (1 Bft) 100,00 %
01.02.2018 11:08 5,7 C 4,4 C 91 % 1002,8 hPa 0,0 l/m 2,7 km/h (1 Bft) W 261 0 min 0,000 mm 0,0 UV-I 81 W/m 4,3 C 5,7 C 3,2 km/h (1 Bft) 95,74 %
01.02.2018 11:10 5,7 C 4,4 C 91 % 1002,8 hPa 0,0 l/m 2,8 km/h (1 Bft) W 261 0 min 0,000 mm 0,0 UV-I 110 W/m 4,3 C 5,7 C 4,8 km/h (1 Bft) 100,00 %
01.02.2018 11:12 5,7 C 4,4 C 91 % 1002,7 hPa 0,0 l/m 2,9 km/h (1 Bft) W 261 0 min 0,000 mm 0,0 UV-I 146 W/m 4,3 C 5,7 C 4,8 km/h (1 Bft) 100,00 %
01.02.2018 11:14 5,8 C 4,4 C 92 % 1002,7 hPa 0,0 l/m 1,2 km/h (1 Bft) W 261 0 min 0,000 mm 0,0 UV-I 186 W/m 4,6 C 5,8 C 1,6 km/h (1 Bft) 100,00 %
01.02.2018 11:16 5,8 C 4,4 C 92 % 1002,7 hPa 0,0 l/m 0,5 km/h (0 Bft) W 261 0 min 0,000 mm 0,0 UV-I 207 W/m 4,6 C 5,8 C 1,6 km/h (1 Bft) 100,00 %
01.02.2018 11:18 5,9 C 4,4 C 92 % 1002,7 hPa 0,0 l/m 1,2 km/h (1 Bft) W 261 0 min 0,000 mm 0,0 UV-I 191 W/m 4,7 C 5,9 C 3,2 km/h (1 Bft) 100,00 %
01.02.2018 11:20 6,0 C 4,4 C 92 % 1002,7 hPa 0,0 l/m 2,8 km/h (1 Bft) W 260 0 min 0,000 mm 0,0 UV-I 184 W/m 4,8 C 6,0 C 4,8 km/h (1 Bft) 97,87 %
01.02.2018 11:22 6,2 C 4,4 C 91 % 1002,6 hPa 0,0 l/m 1,0 km/h (0 Bft) W 260 0 min 0,000 mm 0,2 UV-I 195 W/m 4,8 C 6,2 C 3,2 km/h (1 Bft) 98,00 %
01.02.2018 11:24 6,2 C 4,4 C 90 % 1002,6 hPa 0,0 l/m 1,3 km/h (1 Bft) W 260 0 min 0,000 mm 0,0 UV-I 190 W/m 4,7 C 6,2 C 3,2 km/h (1 Bft) 100,00 %
01.02.2018 11:26 6,2 C 4,4 C 90 % 1002,6 hPa 0,0 l/m 2,5 km/h (1 Bft) W 260 0 min 0,000 mm 0,0 UV-I 177 W/m 4,7 C 6,2 C 4,8 km/h (1 Bft) 100,00 %
01.02.2018 11:28 6,2 C 4,4 C 90 % 1002,6 hPa 0,0 l/m 1,0 km/h (0 Bft) W 260 0 min 0,000 mm 0,0 UV-I 184 W/m 4,7 C 6,2 C 3,2 km/h (1 Bft) 100,00 %
01.02.2018 11:30 6,2 C 4,4 C 90 % 1002,6 hPa 0,0 l/m 0,5 km/h (0 Bft) W 260 0 min 0,000 mm 0,0 UV-I 154 W/m 4,7 C 6,2 C 1,6 km/h (1 Bft) 100,00 %
01.02.2018 11:32 6,3 C 4,4 C 90 % 1002,6 hPa 0,0 l/m 2,5 km/h (1 Bft) W 260 0 min 0,000 mm 0,0 UV-I 130 W/m 4,8 C 6,3 C 4,8 km/h (1 Bft) 100,00 %
01.02.2018 11:34 6,3 C 4,4 C 90 % 1002,6 hPa 0,0 l/m 4,0 km/h (1 Bft) W 259 0 min 0,000 mm 0,0 UV-I 128 W/m 4,8 C 6,3 C 6,4 km/h (2 Bft) 100,00 %
01.02.2018 11:36 6,3 C 4,4 C 89 % 1002,5 hPa 0,0 l/m 1,9 km/h (1 Bft) W 259 0 min 0,000 mm 0,0 UV-I 148 W/m 4,6 C 6,3 C 3,2 km/h (1 Bft) 97,87 %
01.02.2018 11:38 6,3 C 4,4 C 89 % 1002,5 hPa 0,0 l/m 0,7 km/h (0 Bft) W 259 0 min 0,000 mm 0,0 UV-I 168 W/m 4,6 C 6,3 C 3,2 km/h (1 Bft) 100,00 %
01.02.2018 11:40 6,3 C 4,4 C 89 % 1002,4 hPa 0,0 l/m 0,6 km/h (0 Bft) W 259 0 min 0,000 mm 0,0 UV-I 155 W/m 4,6 C 6,3 C 3,2 km/h (1 Bft) 100,00 %
01.02.2018 11:42 6,4 C 4,4 C 90 % 1002,5 hPa 0,0 l/m 0,1 km/h (0 Bft) W 259 0 min 0,000 mm 0,0 UV-I 131 W/m 4,9 C 6,4 C 1,6 km/h (1 Bft) 100,00 %
01.02.2018 11:44 6,4 C 4,4 C 89 % 1002,5 hPa 0,0 l/m 0,1 km/h (0 Bft) W 259 0 min 0,000 mm 0,0 UV-I 136 W/m 4,7 C 6,4 C 1,6 km/h (1 Bft) 100,00 %
01.02.2018 11:46 6,4 C 4,4 C 89 % 1002,5 hPa 0,0 l/m 0,5 km/h (0 Bft) W 259 0 min 0,000 mm 0,0 UV-I 144 W/m 4,7 C 6,4 C 1,6 km/h (1 Bft) 100,00 %
01.02.2018 11:48 6,4 C 4,4 C 89 % 1002,5 hPa 0,0 l/m 1,8 km/h (1 Bft) W 259 0 min 0,000 mm 0,0 UV-I 130 W/m 4,7 C 6,4 C 3,2 km/h (1 Bft) 100,00 %
01.02.2018 11:50 6,4 C 4,4 C 89 % 1002,6 hPa 0,0 l/m 2,8 km/h (1 Bft) W 259 0 min 0,000 mm 0,0 UV-I 125 W/m 4,7 C 6,4 C 4,8 km/h (1 Bft) 100,00 %
01.02.2018 11:52 6,4 C 4,4 C 89 % 1002,6 hPa 0,0 l/m 3,0 km/h (1 Bft) W 259 0 min 0,000 mm 0,0 UV-I 125 W/m 4,7 C 6,4 C 4,8 km/h (1 Bft) 97,56 %
01.02.2018 11:54 6,3 C 4,4 C 88 % 1002,5 hPa 0,0 l/m 3,4 km/h (1 Bft) W 273 0 min 0,000 mm 0,0 UV-I 114 W/m 4,5 C 6,3 C 4,8 km/h (1 Bft) 96,00 %
01.02.2018 11:56 6,3 C 4,4 C 88 % 1002,5 hPa 0,0 l/m 3,1 km/h (1 Bft) W 273 0 min 0,000 mm 0,0 UV-I 93 W/m 4,5 C 6,3 C 4,8 km/h (1 Bft) 100,00 %
01.02.2018 11:58 6,3 C 4,4 C 89 % 1002,5 hPa 0,0 l/m 2,1 km/h (1 Bft) W 272 0 min 0,000 mm 0,0 UV-I 81 W/m 4,6 C 6,3 C 4,8 km/h (1 Bft) 100,00 %
01.02.2018 12:00 6,3 C 4,4 C 89 % 1002,5 hPa 0,0 l/m 2,7 km/h (1 Bft) W 272 0 min 0,051 mm 0,0 UV-I 77 W/m 4,6 C 6,3 C 4,8 km/h (1 Bft) 97,87 %
01.02.2018 12:02 6,2 C 4,4 C 89 % 1002,5 hPa 0,0 l/m 2,1 km/h (1 Bft) W 272 0 min 0,000 mm 0,0 UV-I 74 W/m 4,5 C 6,2 C 3,2 km/h (1 Bft) 100,00 %
01.02.2018 12:04 6,2 C 4,4 C 90 % 1002,5 hPa 0,0 l/m 2,4 km/h (1 Bft) W 273 0 min 0,000 mm 0,0 UV-I 74 W/m 4,7 C 6,2 C 3,2 km/h (1 Bft) 100,00 %
01.02.2018 12:06 6,1 C 4,4 C 90 % 1002,4 hPa 0,0 l/m 2,8 km/h (1 Bft) W 273 0 min 0,000 mm 0,0 UV-I 72 W/m 4,6 C 6,1 C 4,8 km/h (1 Bft) 98,00 %
01.02.2018 12:08 6,1 C 4,4 C 91 % 1002,4 hPa 0,0 l/m 4,4 km/h (1 Bft) W-NW 284 0 min 0,000 mm 0,0 UV-I 72 W/m 4,7 C 6,1 C 6,4 km/h (2 Bft) 100,00 %
01.02.2018 12:10 5,9 C 4,4 C 91 % 1002,4 hPa 0,0 l/m 3,4 km/h (1 Bft) W-NW 284 0 min 0,000 mm 0,0 UV-I 76 W/m 4,5 C 5,9 C 4,8 km/h (1 Bft) 100,00 %
01.02.2018 12:12 5,9 C 4,4 C 92 % 1002,4 hPa 0,0 l/m 1,0 km/h (0 Bft) W-NW 284 0 min 0,000 mm 0,0 UV-I 79 W/m 4,7 C 5,9 C 3,2 km/h (1 Bft) 100,00 %
01.02.2018 12:14 5,9 C 4,4 C 92 % 1002,4 hPa 0,0 l/m 2,8 km/h (1 Bft) W-NW 284 0 min 0,000 mm 0,0 UV-I 79 W/m 4,7 C 5,9 C 4,8 km/h (1 Bft) 97,96 %
01.02.2018 12:16 5,8 C 4,4 C 92 % 1002,4 hPa 0,0 l/m 0,0 km/h (0 Bft) W-NW 284 0 min 0,000 mm 0,0 UV-I 77 W/m 4,6 C 5,8 C 0,0 km/h (0 Bft) 100,00 %
01.02.2018 12:18 5,8 C 4,4 C 93 % 1002,4 hPa 0,0 l/m 3,2 km/h (1 Bft) W 279 0 min 0,000 mm 0,0 UV-I 73 W/m 4,8 C 5,8 C 6,4 km/h (2 Bft) 100,00 %
01.02.2018 12:20 5,8 C 4,4 C 93 % 1002,4 hPa 0,0 l/m 2,9 km/h (1 Bft) W 279 0 min 0,000 mm 0,0 UV-I 66 W/m 4,8 C 5,8 C 4,8 km/h (1 Bft) 100,00 %
01.02.2018 12:22 5,8 C 4,4 C 93 % 1002,4 hPa 0,0 l/m 1,9 km/h (1 Bft) W 279 0 min 0,000 mm 0,0 UV-I 62 W/m 4,8 C 5,8 C 3,2 km/h (1 Bft) 96,00 %
01.02.2018 12:24 5,8 C 4,4 C 93 % 1002,4 hPa 0,0 l/m 1,5 km/h (1 Bft) W 279 0 min 0,000 mm 0,0 UV-I 56 W/m 4,8 C 5,8 C 3,2 km/h (1 Bft) 97,87 %
01.02.2018 12:26 5,7 C 4,4 C 93 % 1002,4 hPa 0,0 l/m 1,8 km/h (1 Bft) W 279 0 min 0,000 mm 0,0 UV-I 54 W/m 4,7 C 5,7 C 3,2 km/h (1 Bft) 98,00 %
01.02.2018 12:28 5,7 C 4,4 C 93 % 1002,3 hPa 0,0 l/m 1,5 km/h (1 Bft) W 279 0 min 0,000 mm 0,0 UV-I 56 W/m 4,7 C 5,7 C 3,2 km/h (1 Bft) 95,12 %
01.02.2018 12:30 5,7 C 4,4 C 93 % 1002,3 hPa 0,0 l/m 1,7 km/h (1 Bft) W 279 0 min 0,000 mm 0,0 UV-I 58 W/m 4,7 C 5,7 C 4,8 km/h (1 Bft) 96,00 %
01.02.2018 12:32 5,7 C 4,4 C 93 % 1002,3 hPa 0,2 l/m 3,1 km/h (1 Bft) W 279 0 min 0,000 mm 0,0 UV-I 60 W/m 4,7 C 5,7 C 4,8 km/h (1 Bft) 97,56 %
01.02.2018 12:34 5,7 C 4,4 C 93 % 1002,3 hPa 0,0 l/m 2,6 km/h (1 Bft) W 279 0 min 0,000 mm 0,0 UV-I 63 W/m 4,7 C 5,7 C 3,2 km/h (1 Bft) 97,87 %
01.02.2018 12:36 5,7 C 4,4 C 93 % 1002,3 hPa 0,0 l/m 2,4 km/h (1 Bft) W 279 0 min 0,000 mm 0,0 UV-I 68 W/m 4,7 C 5,7 C 4,8 km/h (1 Bft) 98,11 %
01.02.2018 12:38 5,7 C 4,4 C 93 % 1002,3 hPa 0,0 l/m 4,2 km/h (1 Bft) W-SW 249 0 min 0,000 mm 0,0 UV-I 77 W/m 4,7 C 5,7 C 6,4 km/h (2 Bft) 95,74 %
01.02.2018 12:40 5,7 C 4,4 C 93 % 1002,2 hPa 0,0 l/m 4,3 km/h (1 Bft) W 264 0 min 0,000 mm 0,0 UV-I 82 W/m 4,7 C 5,7 C 6,4 km/h (2 Bft) 94,74 %
01.02.2018 12:42 5,7 C 4,4 C 93 % 1002,2 hPa 0,0 l/m 3,7 km/h (1 Bft) W 269 0 min 0,000 mm 0,0 UV-I 82 W/m 4,7 C 5,7 C 6,4 km/h (2 Bft) 98,00 %
01.02.2018 12:44 5,7 C 4,4 C 93 % 1002,2 hPa 0,0 l/m 4,6 km/h (1 Bft) W-SW 256 0 min 0,000 mm 0,0 UV-I 84 W/m 4,7 C 5,7 C 6,4 km/h (2 Bft) 97,73 %
01.02.2018 12:46 5,7 C 4,4 C 93 % 1002,2 hPa 0,0 l/m 3,6 km/h (1 Bft) W 260 0 min 0,000 mm 0,0 UV-I 92 W/m 4,7 C 5,7 C 4,8 km/h (1 Bft) 98,00 %
01.02.2018 12:48 5,7 C 4,4 C 93 % 1002,3 hPa 0,0 l/m 3,7 km/h (1 Bft) W 260 0 min 0,000 mm 0,0 UV-I 102 W/m 4,7 C 5,7 C 4,8 km/h (1 Bft) 93,62 %
01.02.2018 12:50 5,7 C 5,0 C 93 % 1002,3 hPa 0,0 l/m 4,2 km/h (1 Bft) W 260 0 min 0,000 mm 0,0 UV-I 104 W/m 4,7 C 5,7 C 6,4 km/h (2 Bft) 97,87 %
01.02.2018 12:52 5,7 C 4,4 C 94 % 1002,3 hPa 0,0 l/m 4,3 km/h (1 Bft) W 263 0 min 0,000 mm 0,0 UV-I 100 W/m 4,8 C 5,7 C 6,4 km/h (2 Bft) 96,23 %
01.02.2018 12:54 5,7 C 4,4 C 94 % 1002,2 hPa 0,2 l/m 4,8 km/h (1 Bft) W 278 0 min 0,000 mm 0,0 UV-I 94 W/m 4,8 C 5,7 C 6,4 km/h (2 Bft) 97,44 %
01.02.2018 12:56 5,7 C 4,4 C 94 % 1002,2 hPa 0,0 l/m 3,9 km/h (1 Bft) W 280 0 min 0,000 mm 0,0 UV-I 88 W/m 4,8 C 5,7 C 6,4 km/h (2 Bft) 94,00 %
01.02.2018 12:58 5,7 C 4,4 C 94 % 1002,3 hPa 0,0 l/m 4,8 km/h (1 Bft) W-SW 251 0 min 0,000 mm 0,0 UV-I 84 W/m 4,8 C 5,7 C 8,0 km/h (2 Bft) 98,00 %
01.02.2018 13:00 5,7 C 4,4 C 94 % 1002,3 hPa 0,0 l/m 6,0 km/h (2 Bft) W 275 0 min 0,025 mm 0,0 UV-I 87 W/m 4,8 C 5,7 C 9,7 km/h (2 Bft) 96,00 %
01.02.2018 13:02 5,7 C 4,4 C 94 % 1002,2 hPa 0,0 l/m 4,6 km/h (1 Bft) W 271 0 min 0,000 mm 0,0 UV-I 89 W/m 4,8 C 5,7 C 6,4 km/h (2 Bft) 97,87 %
01.02.2018 13:04 5,6 C 4,4 C 94 % 1002,2 hPa 0,0 l/m 5,5 km/h (1 Bft) W 277 0 min 0,000 mm 0,0 UV-I 90 W/m 4,7 C 5,6 C 11,3 km/h (2 Bft) 97,14 %
01.02.2018 13:06 5,6 C 4,4 C 94 % 1002,3 hPa 0,0 l/m 5,3 km/h (1 Bft) W 271 0 min 0,000 mm 0,0 UV-I 90 W/m 4,7 C 5,6 C 9,7 km/h (2 Bft) 95,74 %
01.02.2018 13:08 5,6 C 4,4 C 94 % 1002,3 hPa 0,0 l/m 6,9 km/h (2 Bft) W 281 0 min 0,000 mm 0,0 UV-I 88 W/m 4,7 C 5,2 C 11,3 km/h (2 Bft) 97,87 %
01.02.2018 13:10 5,6 C 4,4 C 94 % 1002,3 hPa 0,0 l/m 4,4 km/h (1 Bft) W-SW 250 0 min 0,000 mm 0,0 UV-I 84 W/m 4,7 C 5,6 C 6,4 km/h (2 Bft) 94,34 %
01.02.2018 13:12 5,6 C 5,0 C 94 % 1002,3 hPa 0,0 l/m 6,2 km/h (2 Bft) W 261 0 min 0,000 mm 0,0 UV-I 78 W/m 4,7 C 5,6 C 8,0 km/h (2 Bft) 94,74 %
01.02.2018 13:14 5,5 C 4,4 C 94 % 1002,3 hPa 0,0 l/m 5,4 km/h (1 Bft) W-SW 254 0 min 0,000 mm 0,0 UV-I 73 W/m 4,6 C 5,5 C 9,7 km/h (2 Bft) 98,00 %
01.02.2018 13:16 5,6 C 4,4 C 94 % 1002,3 hPa 0,0 l/m 7,1 km/h (2 Bft) W 281 0 min 0,000 mm 0,0 UV-I 69 W/m 4,7 C 5,0 C 11,3 km/h (2 Bft) 98,00 %
01.02.2018 13:18 5,5 C 4,4 C 94 % 1002,3 hPa 0,0 l/m 6,8 km/h (2 Bft) W 277 0 min 0,000 mm 0,0 UV-I 61 W/m 4,6 C 5,2 C 11,3 km/h (2 Bft) 95,74 %
01.02.2018 13:20 5,5 C 4,4 C 95 % 1002,3 hPa 0,0 l/m 4,5 km/h (1 Bft) W-NW 284 0 min 0,000 mm 0,0 UV-I 54 W/m 4,8 C 5,5 C 6,4 km/h (2 Bft) 98,11 %
01.02.2018 13:22 5,5 C 5,0 C 94 % 1002,2 hPa 0,0 l/m 5,6 km/h (1 Bft) W 264 0 min 0,000 mm 0,0 UV-I 58 W/m 4,6 C 5,5 C 9,7 km/h (2 Bft) 97,67 %
01.02.2018 13:24 5,5 C 4,4 C 95 % 1002,2 hPa 0,0 l/m 4,4 km/h (1 Bft) W 273 0 min 0,000 mm 0,0 UV-I 62 W/m 4,8 C 5,5 C 6,4 km/h (2 Bft) 97,44 %
01.02.2018 13:26 5,5 C 4,4 C 95 % 1002,2 hPa 0,0 l/m 5,0 km/h (1 Bft) W 264 0 min 0,000 mm 0,0 UV-I 63 W/m 4,8 C 5,5 C 6,4 km/h (2 Bft) 96,23 %
01.02.2018 13:28 5,5 C 4,4 C 95 % 1002,3 hPa 0,0 l/m 4,4 km/h (1 Bft) W 264 0 min 0,000 mm 0,0 UV-I 63 W/m 4,8 C 5,5 C 6,4 km/h (2 Bft) 95,92 %
01.02.2018 13:30 5,5 C 5,0 C 95 % 1002,3 hPa 0,2 l/m 3,9 km/h (1 Bft) W 268 0 min 0,000 mm 0,0 UV-I 68 W/m 4,8 C 5,5 C 4,8 km/h (1 Bft) 96,08 %
01.02.2018 13:32 5,5 C 5,0 C 95 % 1002,2 hPa 0,0 l/m 4,5 km/h (1 Bft) W-SW 258 0 min 0,000 mm 0,0 UV-I 70 W/m 4,8 C 5,5 C 6,4 km/h (2 Bft) 97,87 %
01.02.2018 13:34 5,5 C 4,4 C 95 % 1002,2 hPa 0,0 l/m 4,4 km/h (1 Bft) W-SW 252 0 min 0,000 mm 0,0 UV-I 67 W/m 4,8 C 5,5 C 8,0 km/h (2 Bft) 97,87 %
01.02.2018 13:36 5,5 C 4,4 C 95 % 1002,3 hPa 0,0 l/m 6,5 km/h (2 Bft) W 263 0 min 0,000 mm 0,0 UV-I 61 W/m 4,8 C 5,4 C 11,3 km/h (2 Bft) 97,56 %
01.02.2018 13:38 5,5 C 4,4 C 95 % 1002,3 hPa 0,0 l/m 4,8 km/h (1 Bft) SW 232 0 min 0,000 mm 0,0 UV-I 55 W/m 4,8 C 5,5 C 6,4 km/h (2 Bft) 97,56 %
01.02.2018 13:40 5,5 C 4,4 C 95 % 1002,3 hPa 0,0 l/m 4,1 km/h (1 Bft) W 267 0 min 0,000 mm 0,0 UV-I 54 W/m 4,8 C 5,5 C 6,4 km/h (2 Bft) 98,11 %
01.02.2018 13:42 5,5 C 4,4 C 95 % 1002,3 hPa 0,0 l/m 7,0 km/h (2 Bft) W-SW 255 0 min 0,000 mm 0,0 UV-I 48 W/m 4,8 C 5,0 C 12,9 km/h (3 Bft) 98,00 %
01.02.2018 13:44 5,5 C 5,0 C 94 % 1002,3 hPa 0,0 l/m 6,7 km/h (2 Bft) W-SW 257 0 min 0,000 mm 0,0 UV-I 48 W/m 4,6 C 5,3 C 9,7 km/h (2 Bft) 97,37 %
01.02.2018 13:46 5,5 C 5,0 C 95 % 1002,4 hPa 0,2 l/m 9,1 km/h (2 Bft) S-SW 208 0 min 0,000 mm 0,0 UV-I 58 W/m 4,8 C 3,3 C 14,5 km/h (3 Bft) 95,74 %
01.02.2018 13:48 5,5 C 5,0 C 95 % 1002,3 hPa 0,0 l/m 6,4 km/h (2 Bft) W-SW 241 0 min 0,000 mm 0,0 UV-I 61 W/m 4,8 C 5,5 C 11,3 km/h (2 Bft) 97,87 %
01.02.2018 13:50 5,5 C 4,4 C 95 % 1002,4 hPa 0,0 l/m 6,8 km/h (2 Bft) SW 236 0 min 0,000 mm 0,0 UV-I 65 W/m 4,8 C 5,2 C 11,3 km/h (2 Bft) 98,00 %
01.02.2018 13:52 5,6 C 4,4 C 95 % 1002,4 hPa 0,0 l/m 6,7 km/h (2 Bft) W 265 0 min 0,000 mm 0,0 UV-I 67 W/m 4,9 C 5,4 C 9,7 km/h (2 Bft) 96,00 %
01.02.2018 13:54 5,6 C 4,4 C 95 % 1002,4 hPa 0,0 l/m 9,7 km/h (2 Bft) W-SW 250 0 min 0,000 mm 0,0 UV-I 67 W/m 4,9 C 2,9 C 14,5 km/h (3 Bft) 97,73 %
01.02.2018 13:56 5,5 C 5,0 C 95 % 1002,4 hPa 0,2 l/m 11,8 km/h (2 Bft) W-SW 246 0 min 0,000 mm 0,0 UV-I 63 W/m 4,8 C 1,5 C 20,9 km/h (4 Bft) 96,23 %
01.02.2018 13:58 5,6 C 5,0 C 95 % 1002,4 hPa 0,0 l/m 10,4 km/h (2 Bft) SW 229 0 min 0,000 mm 0,0 UV-I 55 W/m 4,9 C 2,5 C 17,7 km/h (3 Bft) 97,87 %
01.02.2018 14:00 5,6 C 5,0 C 95 % 1002,5 hPa 0,0 l/m 14,7 km/h (3 Bft) SW 232 0 min 0,025 mm 0,0 UV-I 53 W/m 4,9 C -0,0 C 19,3 km/h (3 Bft) 97,37 %
01.02.2018 14:02 5,5 C 4,4 C 93 % 1002,3 hPa 0,0 l/m 18,3 km/h (3 Bft) W-NW 286 0 min 0,000 mm 0,0 UV-I 50 W/m 4,5 C -1,8 C 25,7 km/h (4 Bft) 98,00 %
01.02.2018 14:04 5,4 C 4,4 C 93 % 1002,4 hPa 0,0 l/m 15,4 km/h (3 Bft) SW 225 0 min 0,000 mm 0,0 UV-I 48 W/m 4,4 C -0,6 C 22,5 km/h (4 Bft) 97,62 %
01.02.2018 14:05 5,4 C 4,4 C 93 % 1002,5 hPa 0,0 l/m 17,7 km/h (3 Bft) W 270 0 min 0,000 mm 0,0 UV-I 46 W/m 4,4 C -1,7 C 25,7 km/h (4 Bft) 99,12 %
01.02.2018 14:10 5,3 C 5,0 C 93 % 1002,6 hPa 0,2 l/m 14,5 km/h (3 Bft) W-SW 247 0 min 0,000 mm 0,0 UV-I 44 W/m 4,3 C -0,3 C 24,1 km/h (4 Bft) 98,25 %
01.02.2018 14:15 5,2 C 4,4 C 93 % 1002,5 hPa 0,0 l/m 14,5 km/h (3 Bft) W-SW 247 0 min 0,000 mm 0,0 UV-I 54 W/m 4,2 C -0,4 C 25,7 km/h (4 Bft) 98,25 %
01.02.2018 14:20 5,2 C 4,4 C 93 % 1002,6 hPa 0,2 l/m 12,9 km/h (3 Bft) SW 225 0 min 0,000 mm 0,0 UV-I 56 W/m 4,2 C 0,5 C 22,5 km/h (4 Bft) 85,09 %
01.02.2018 14:22 5,2 C 4,4 C 93 % 1002,7 hPa 0,0 l/m 15,9 km/h (3 Bft) W-SW 239 0 min 0,000 mm 0,0 UV-I 62 W/m 4,2 C -1,1 C 19,3 km/h (3 Bft) 99,05 %
01.02.2018 14:25 5,2 C 4,4 C 92 % 1002,7 hPa 0,0 l/m 14,5 km/h (3 Bft) W-SW 247 0 min 0,000 mm 0,0 UV-I 65 W/m 4,0 C -0,4 C 22,5 km/h (4 Bft) 98,25 %
01.02.2018 14:30 5,1 C 5,0 C 92 % 1002,7 hPa 0,0 l/m 17,7 km/h (3 Bft) W-SW 247 0 min 0,000 mm 0,0 UV-I 74 W/m 3,9 C -2,1 C 27,4 km/h (4 Bft) 96,49 %
01.02.2018 14:32 5,1 C 5,0 C 92 % 1002,7 hPa 0,0 l/m 17,1 km/h (3 Bft) W-SW 245 0 min 0,000 mm 0,0 UV-I 67 W/m 3,9 C -1,8 C 24,1 km/h (4 Bft) 98,47 %
01.02.2018 14:34 5,1 C 5,0 C 92 % 1002,7 hPa 0,0 l/m 15,6 km/h (3 Bft) SW 230 0 min 0,000 mm 0,0 UV-I 66 W/m 3,9 C -1,1 C 24,1 km/h (4 Bft) 97,56 %
01.02.2018 14:36 5,0 C 5,0 C 92 % 1002,8 hPa 0,0 l/m 15,7 km/h (3 Bft) W-SW 243 0 min 0,000 mm 0,0 UV-I 57 W/m 3,8 C -1,3 C 25,7 km/h (4 Bft) 98,11 %
01.02.2018 14:38 5,0 C 4,4 C 92 % 1002,8 hPa 0,0 l/m 14,3 km/h (3 Bft) SW 236 0 min 0,000 mm 0,0 UV-I 48 W/m 3,8 C -0,6 C 20,9 km/h (4 Bft) 97,56 %
01.02.2018 14:40 4,9 C 4,4 C 92 % 1002,9 hPa 0,0 l/m 16,0 km/h (3 Bft) SW 227 0 min 0,000 mm 0,0 UV-I 42 W/m 3,7 C -1,5 C 22,5 km/h (4 Bft) 96,23 %
01.02.2018 14:42 4,9 C 5,0 C 92 % 1002,9 hPa 0,2 l/m 14,4 km/h (3 Bft) SW 228 0 min 0,000 mm 0,0 UV-I 36 W/m 3,7 C -0,7 C 25,7 km/h (4 Bft) 97,44 %
01.02.2018 14:44 4,8 C 5,0 C 92 % 1003,0 hPa 0,0 l/m 18,8 km/h (3 Bft) W-SW 252 0 min 0,000 mm 0,0 UV-I 36 W/m 3,6 C -2,9 C 32,2 km/h (5 Bft) 97,73 %
01.02.2018 14:46 4,8 C 5,0 C 93 % 1003,1 hPa 0,2 l/m 13,7 km/h (3 Bft) W-SW 257 0 min 0,000 mm 0,0 UV-I 44 W/m 3,8 C -0,5 C 19,3 km/h (3 Bft) 91,49 %
01.02.2018 14:48 4,7 C 5,0 C 93 % 1003,1 hPa 0,0 l/m 19,0 km/h (3 Bft) SW 221 0 min 0,000 mm 0,0 UV-I 57 W/m 3,7 C -3,1 C 30,6 km/h (5 Bft) 95,74 %
01.02.2018 14:50 4,7 C 5,0 C 93 % 1003,2 hPa 0,0 l/m 21,1 km/h (4 Bft) S-SW 200 0 min 0,000 mm 0,0 UV-I 64 W/m 3,7 C -4,0 C 29,0 km/h (5 Bft) 95,74 %
01.02.2018 14:52 4,6 C 5,0 C 92 % 1003,3 hPa 0,0 l/m 16,0 km/h (3 Bft) W-SW 254 0 min 0,000 mm 0,0 UV-I 59 W/m 3,4 C -1,9 C 22,5 km/h (4 Bft) 97,87 %
01.02.2018 14:54 4,5 C 4,4 C 92 % 1003,3 hPa 0,0 l/m 13,4 km/h (3 Bft) W 271 0 min 0,000 mm 0,0 UV-I 53 W/m 3,3 C -0,7 C 20,9 km/h (4 Bft) 93,62 %
01.02.2018 14:56 4,4 C 4,4 C 93 % 1003,3 hPa 0,0 l/m 18,7 km/h (3 Bft) W-SW 250 0 min 0,000 mm 0,0 UV-I 52 W/m 3,4 C -3,4 C 33,8 km/h (5 Bft) 100,00 %
01.02.2018 14:58 4,3 C 4,4 C 92 % 1003,4 hPa 0,0 l/m 21,7 km/h (4 Bft) W 270 0 min 0,000 mm 0,0 UV-I 54 W/m 3,1 C -4,7 C 32,2 km/h (5 Bft) 98,00 %
01.02.2018 15:00 4,2 C 5,0 C 92 % 1003,4 hPa 0,0 l/m 19,4 km/h (3 Bft) W 270 0 min 0,026 mm 0,0 UV-I 52 W/m 3,0 C -4,0 C 32,2 km/h (5 Bft) 97,56 %
01.02.2018 15:02 4,2 C 5,0 C 92 % 1003,5 hPa 0,0 l/m 12,6 km/h (3 Bft) W-SW 248 0 min 0,000 mm 0,0 UV-I 47 W/m 3,0 C -0,5 C 14,5 km/h (3 Bft) 97,92 %
01.02.2018 15:04 4,1 C 5,0 C 92 % 1003,5 hPa 0,2 l/m 16,7 km/h (3 Bft) W-SW 250 0 min 0,000 mm 0,0 UV-I 36 W/m 2,9 C -2,9 C 27,4 km/h (4 Bft) 100,00 %
01.02.2018 15:06 4,1 C 5,0 C 93 % 1003,5 hPa 0,0 l/m 12,7 km/h (3 Bft) W-NW 284 0 min 0,000 mm 0,0 UV-I 38 W/m 3,1 C -0,7 C 22,5 km/h (4 Bft) 98,11 %
01.02.2018 15:08 4,0 C 5,0 C 93 % 1003,5 hPa 0,0 l/m 9,7 km/h (2 Bft) W-NW 285 0 min 0,000 mm 0,0 UV-I 32 W/m 3,0 C 1,2 C 17,7 km/h (3 Bft) 100,00 %
01.02.2018 15:10 3,9 C 5,0 C 93 % 1003,6 hPa 0,0 l/m 5,5 km/h (1 Bft) SW 233 0 min 0,000 mm 0,0 UV-I 26 W/m 2,9 C 3,9 C 12,9 km/h (3 Bft) 100,00 %
01.02.2018 15:12 3,8 C 5,0 C 93 % 1003,7 hPa 0,0 l/m 10,8 km/h (2 Bft) W 271 0 min 0,000 mm 0,0 UV-I 27 W/m 2,8 C 0,2 C 17,7 km/h (3 Bft) 96,23 %
01.02.2018 15:14 3,8 C 5,0 C 94 % 1003,7 hPa 0,2 l/m 10,9 km/h (2 Bft) W-SW 250 0 min 0,000 mm 0,0 UV-I 30 W/m 2,9 C 0,1 C 17,7 km/h (3 Bft) 100,00 %
01.02.2018 15:16 3,7 C 5,0 C 94 % 1003,8 hPa 0,0 l/m 14,0 km/h (3 Bft) W 263 0 min 0,000 mm 0,0 UV-I 35 W/m 2,8 C -1,9 C 24,1 km/h (4 Bft) 97,56 %
01.02.2018 15:18 3,6 C 5,0 C 94 % 1003,8 hPa 0,0 l/m 7,7 km/h (2 Bft) NW 321 0 min 0,000 mm 0,0 UV-I 44 W/m 2,7 C 2,4 C 12,9 km/h (3 Bft) 100,00 %
01.02.2018 15:20 3,6 C 5,0 C 94 % 1003,9 hPa 0,0 l/m 10,2 km/h (2 Bft) NW 306 0 min 0,000 mm 0,0 UV-I 46 W/m 2,7 C 0,4 C 14,5 km/h (3 Bft) 100,00 %
01.02.2018 15:22 3,5 C 5,0 C 94 % 1003,9 hPa 0,0 l/m 15,7 km/h (3 Bft) W-SW 252 0 min 0,000 mm 0,0 UV-I 46 W/m 2,6 C -3,1 C 25,7 km/h (4 Bft) 100,00 %
01.02.2018 15:24 3,4 C 5,0 C 94 % 1003,9 hPa 0,0 l/m 14,8 km/h (3 Bft) W-SW 256 0 min 0,000 mm 0,0 UV-I 44 W/m 2,5 C -2,8 C 20,9 km/h (4 Bft) 100,00 %
01.02.2018 15:25 3,4 C 5,0 C 93 % 1003,9 hPa 0,0 l/m 12,9 km/h (3 Bft) W 270 0 min 0,000 mm 0,0 UV-I 45 W/m 2,4 C -1,7 C 25,7 km/h (4 Bft) 97,37 %
01.02.2018 15:30 3,4 C 5,0 C 94 % 1003,9 hPa 0,0 l/m 11,3 km/h (2 Bft) W 270 0 min 0,000 mm 0,0 UV-I 41 W/m 2,5 C -0,6 C 20,9 km/h (4 Bft) 97,37 %
01.02.2018 15:32 3,4 C 5,0 C 94 % 1003,9 hPa 0,0 l/m 8,6 km/h (2 Bft) W-SW 249 0 min 0,000 mm 0,0 UV-I 36 W/m 2,5 C 1,4 C 11,3 km/h (2 Bft) 97,01 %
01.02.2018 15:34 3,4 C 5,0 C 94 % 1004,0 hPa 0,0 l/m 10,6 km/h (2 Bft) NW 308 0 min 0,000 mm 0,0 UV-I 33 W/m 2,5 C -0,1 C 14,5 km/h (3 Bft) 97,50 %
01.02.2018 15:36 3,4 C 5,0 C 94 % 1003,9 hPa 0,0 l/m 12,4 km/h (3 Bft) W 281 0 min 0,000 mm 0,0 UV-I 35 W/m 2,5 C -1,3 C 16,1 km/h (3 Bft) 100,00 %
01.02.2018 15:38 3,3 C 5,0 C 94 % 1003,9 hPa 0,0 l/m 12,0 km/h (2 Bft) W-SW 246 0 min 0,000 mm 0,0 UV-I 38 W/m 2,4 C -1,2 C 19,3 km/h (3 Bft) 100,00 %
01.02.2018 15:40 3,3 C 5,0 C 94 % 1004,0 hPa 0,0 l/m 13,5 km/h (3 Bft) W 259 0 min 0,000 mm 0,0 UV-I 37 W/m 2,4 C -2,1 C 24,1 km/h (4 Bft) 100,00 %
01.02.2018 15:42 3,3 C 5,0 C 94 % 1004,0 hPa 0,0 l/m 10,8 km/h (2 Bft) W-NW 282 0 min 0,000 mm 0,0 UV-I 35 W/m 2,4 C -0,4 C 16,1 km/h (3 Bft) 100,00 %
01.02.2018 15:44 3,3 C 5,0 C 94 % 1004,1 hPa 0,0 l/m 10,5 km/h (2 Bft) W-SW 258 0 min 0,000 mm 0,0 UV-I 35 W/m 2,4 C -0,2 C 14,5 km/h (3 Bft) 98,21 %
01.02.2018 15:46 3,3 C 5,0 C 94 % 1004,2 hPa 0,0 l/m 10,0 km/h (2 Bft) W 264 0 min 0,000 mm 0,0 UV-I 34 W/m 2,4 C 0,2 C 16,1 km/h (3 Bft) 98,00 %
01.02.2018 15:48 3,2 C 5,0 C 94 % 1004,2 hPa 0,0 l/m 11,2 km/h (2 Bft) W 269 0 min 0,000 mm 0,0 UV-I 31 W/m 2,3 C -0,8 C 16,1 km/h (3 Bft) 100,00 %
01.02.2018 15:50 3,2 C 5,0 C 94 % 1004,3 hPa 0,0 l/m 8,4 km/h (2 Bft) W 259 0 min 0,000 mm 0,0 UV-I 27 W/m 2,3 C 1,4 C 14,5 km/h (3 Bft) 100,00 %
01.02.2018 15:52 3,3 C 5,0 C 94 % 1004,2 hPa 0,0 l/m 9,3 km/h (2 Bft) W-SW 246 0 min 0,000 mm 0,0 UV-I 27 W/m 2,4 C 0,7 C 12,9 km/h (3 Bft) 100,00 %
01.02.2018 15:54 3,3 C 5,0 C 94 % 1004,3 hPa 0,0 l/m 7,8 km/h (2 Bft) W-SW 250 0 min 0,000 mm 0,0 UV-I 26 W/m 2,4 C 2,0 C 12,9 km/h (3 Bft) 100,00 %
01.02.2018 15:56 3,3 C 5,0 C 94 % 1004,3 hPa 0,0 l/m 9,4 km/h (2 Bft) W-SW 248 0 min 0,000 mm 0,0 UV-I 26 W/m 2,4 C 0,7 C 12,9 km/h (3 Bft) 100,00 %
01.02.2018 15:58 3,3 C 5,0 C 95 % 1004,3 hPa 0,0 l/m 9,7 km/h (2 Bft) W-SW 258 0 min 0,000 mm 0,0 UV-I 25 W/m 2,6 C 0,4 C 12,9 km/h (3 Bft) 98,00 %
01.02.2018 16:00 3,3 C 5,0 C 94 % 1004,4 hPa 0,0 l/m 10,9 km/h (2 Bft) SW 236 0 min 0,025 mm 0,0 UV-I 21 W/m 2,4 C -0,5 C 16,1 km/h (3 Bft) 97,37 %
01.02.2018 16:02 3,3 C 5,0 C 94 % 1004,4 hPa 0,0 l/m 14,0 km/h (3 Bft) SW 236 0 min 0,000 mm 0,0 UV-I 18 W/m 2,4 C -2,4 C 20,9 km/h (4 Bft) 100,00 %
01.02.2018 16:04 3,3 C 5,0 C 94 % 1004,4 hPa 0,0 l/m 12,5 km/h (3 Bft) W 267 0 min 0,000 mm 0,0 UV-I 17 W/m 2,4 C -1,5 C 16,1 km/h (3 Bft) 100,00 %
01.02.2018 16:06 3,4 C 5,0 C 94 % 1004,4 hPa 0,0 l/m 9,9 km/h (2 Bft) W-SW 257 0 min 0,000 mm 0,0 UV-I 16 W/m 2,5 C 0,4 C 16,1 km/h (3 Bft) 100,00 %
01.02.2018 16:08 3,4 C 5,0 C 94 % 1004,4 hPa 0,0 l/m 10,7 km/h (2 Bft) W 269 0 min 0,000 mm 0,0 UV-I 16 W/m 2,5 C -0,2 C 17,7 km/h (3 Bft) 100,00 %
01.02.2018 16:10 3,4 C 5,0 C 94 % 1004,5 hPa 0,0 l/m 9,0 km/h (2 Bft) W 265 0 min 0,000 mm 0,0 UV-I 17 W/m 2,5 C 1,1 C 16,1 km/h (3 Bft) 100,00 %
01.02.2018 16:12 3,4 C 5,0 C 94 % 1004,3 hPa 0,0 l/m 9,1 km/h (2 Bft) SW 236 0 min 0,000 mm 0,0 UV-I 17 W/m 2,5 C 1,0 C 16,1 km/h (3 Bft) 100,00 %
01.02.2018 16:14 3,4 C 5,0 C 94 % 1004,2 hPa 0,0 l/m 9,8 km/h (2 Bft) S-SW 204 0 min 0,000 mm 0,0 UV-I 18 W/m 2,5 C 0,5 C 17,7 km/h (3 Bft) 100,00 %
01.02.2018 16:16 3,4 C 5,0 C 94 % 1004,1 hPa 0,2 l/m 8,7 km/h (2 Bft) S-SW 198 0 min 0,000 mm 0,0 UV-I 19 W/m 2,5 C 1,3 C 12,9 km/h (3 Bft) 100,00 %
01.02.2018 16:18 3,4 C 5,0 C 94 % 1004,3 hPa 0,0 l/m 10,2 km/h (2 Bft) S-SW 203 0 min 0,000 mm 0,0 UV-I 18 W/m 2,5 C 0,2 C 14,5 km/h (3 Bft) 100,00 %
01.02.2018 16:20 3,4 C 5,0 C 94 % 1004,4 hPa 0,0 l/m 12,3 km/h (3 Bft) SW 232 0 min 0,000 mm 0,0 UV-I 16 W/m 2,5 C -1,3 C 19,3 km/h (3 Bft) 100,00 %
01.02.2018 16:22 3,4 C 5,0 C 94 % 1004,4 hPa 0,0 l/m 12,1 km/h (2 Bft) W-SW 240 0 min 0,000 mm 0,0 UV-I 16 W/m 2,5 C -1,2 C 19,3 km/h (3 Bft) 100,00 %
01.02.2018 16:24 3,4 C 5,0 C 94 % 1004,5 hPa 0,0 l/m 10,3 km/h (2 Bft) SW 219 0 min 0,000 mm 0,0 UV-I 13 W/m 2,5 C 0,1 C 14,5 km/h (3 Bft) 100,00 %
01.02.2018 16:26 3,4 C 4,4 C 94 % 1004,7 hPa 0,0 l/m 11,5 km/h (2 Bft) W-SW 258 0 min 0,000 mm 0,0 UV-I 12 W/m 2,5 C -0,8 C 16,1 km/h (3 Bft) 98,08 %
01.02.2018 16:28 3,4 C 5,0 C 94 % 1004,7 hPa 0,0 l/m 9,9 km/h (2 Bft) W-SW 248 0 min 0,000 mm 0,0 UV-I 12 W/m 2,5 C 0,4 C 17,7 km/h (3 Bft) 100,00 %
01.02.2018 16:30 3,4 C 5,0 C 94 % 1004,6 hPa 0,0 l/m 14,4 km/h (3 Bft) SW 232 0 min 0,000 mm 0,0 UV-I 11 W/m 2,5 C -2,5 C 24,1 km/h (4 Bft) 100,00 %
01.02.2018 16:32 3,4 C 5,0 C 94 % 1004,7 hPa 0,0 l/m 15,4 km/h (3 Bft) S-SW 196 0 min 0,000 mm 0,0 UV-I 12 W/m 2,5 C -3,1 C 24,1 km/h (4 Bft) 100,00 %
01.02.2018 16:34 3,4 C 5,0 C 94 % 1004,7 hPa 0,0 l/m 17,0 km/h (3 Bft) SW 228 0 min 0,000 mm 0,0 UV-I 11 W/m 2,5 C -3,9 C 22,5 km/h (4 Bft) 98,11 %
01.02.2018 16:36 3,4 C 5,0 C 93 % 1004,8 hPa 0,0 l/m 15,7 km/h (3 Bft) SW 220 0 min 0,000 mm 0,0 UV-I 11 W/m 2,4 C -3,2 C 24,1 km/h (4 Bft) 97,87 %
01.02.2018 16:38 3,4 C 5,0 C 93 % 1004,8 hPa 0,0 l/m 15,6 km/h (3 Bft) SW 229 0 min 0,000 mm 0,0 UV-I 11 W/m 2,4 C -3,2 C 22,5 km/h (4 Bft) 98,00 %
01.02.2018 16:40 3,4 C 5,0 C 93 % 1004,8 hPa 0,0 l/m 14,9 km/h (3 Bft) W-SW 252 0 min 0,000 mm 0,0 UV-I 12 W/m 2,4 C -2,8 C 20,9 km/h (4 Bft) 96,15 %
01.02.2018 16:42 3,4 C 5,0 C 93 % 1004,8 hPa 0,0 l/m 18,1 km/h (3 Bft) W-SW 240 0 min 0,000 mm 0,0 UV-I 11 W/m 2,4 C -4,4 C 25,7 km/h (4 Bft) 96,92 %
01.02.2018 16:44 3,3 C 5,0 C 93 % 1004,8 hPa 0,0 l/m 13,9 km/h (3 Bft) SW 224 0 min 0,000 mm 0,0 UV-I 10 W/m 2,3 C -2,4 C 24,1 km/h (4 Bft) 98,00 %
01.02.2018 16:46 3,3 C 5,0 C 93 % 1004,8 hPa 0,0 l/m 11,0 km/h (2 Bft) SW 229 0 min 0,000 mm 0,0 UV-I 9 W/m 2,3 C -0,5 C 20,9 km/h (4 Bft) 97,56 %
01.02.2018 16:48 3,3 C 5,0 C 93 % 1004,8 hPa 0,0 l/m 13,8 km/h (3 Bft) W-SW 244 0 min 0,000 mm 0,0 UV-I 8 W/m 2,3 C -2,3 C 24,1 km/h (4 Bft) 97,56 %
01.02.2018 16:50 3,3 C 5,0 C 93 % 1004,9 hPa 0,0 l/m 17,9 km/h (3 Bft) SW 236 0 min 0,000 mm 0,0 UV-I 7 W/m 2,3 C -4,4 C 27,4 km/h (4 Bft) 96,00 %
01.02.2018 16:52 3,2 C 5,0 C 93 % 1004,8 hPa 0,0 l/m 16,9 km/h (3 Bft) W-SW 242 0 min 0,000 mm 0,0 UV-I 7 W/m 2,2 C -4,1 C 22,5 km/h (4 Bft) 98,00 %
01.02.2018 16:54 3,2 C 5,0 C 93 % 1004,9 hPa 0,0 l/m 14,4 km/h (3 Bft) SW 225 0 min 0,000 mm 0,0 UV-I 7 W/m 2,2 C -2,8 C 27,4 km/h (4 Bft) 97,87 %
01.02.2018 16:56 3,2 C 5,0 C 93 % 1004,9 hPa 0,0 l/m 16,0 km/h (3 Bft) SW 229 0 min 0,000 mm 0,0 UV-I 6 W/m 2,2 C -3,6 C 25,7 km/h (4 Bft) 97,56 %
01.02.2018 16:58 3,2 C 5,0 C 93 % 1004,9 hPa 0,0 l/m 16,3 km/h (3 Bft) W-SW 252 0 min 0,000 mm 0,0 UV-I 5 W/m 2,2 C -3,8 C 24,1 km/h (4 Bft) 98,00 %
01.02.2018 17:00 3,1 C 5,0 C 93 % 1004,9 hPa 0,0 l/m 15,4 km/h (3 Bft) SW 215 0 min 0,000 mm 0,0 UV-I 5 W/m 2,1 C -3,4 C 24,1 km/h (4 Bft) 96,00 %
01.02.2018 17:02 3,1 C 5,0 C 93 % 1005,0 hPa 0,0 l/m 12,6 km/h (3 Bft) S-SW 201 0 min 0,000 mm 0,0 UV-I 5 W/m 2,1 C -1,8 C 17,7 km/h (3 Bft) 95,12 %
01.02.2018 17:04 3,1 C 5,0 C 93 % 1005,0 hPa 0,0 l/m 13,5 km/h (3 Bft) W 266 0 min 0,000 mm 0,0 UV-I 5 W/m 2,1 C -2,4 C 22,5 km/h (4 Bft) 94,34 %
01.02.2018 17:06 3,0 C 5,0 C 93 % 1005,0 hPa 0,0 l/m 10,7 km/h (2 Bft) SW 232 0 min 0,000 mm 0,0 UV-I 5 W/m 2,0 C -0,7 C 20,9 km/h (4 Bft) 93,62 %
01.02.2018 17:08 3,0 C 5,0 C 93 % 1005,0 hPa 0,0 l/m 16,1 km/h (3 Bft) W-SW 239 0 min 0,000 mm 0,0 UV-I 4 W/m 2,0 C -3,9 C 25,7 km/h (4 Bft) 93,75 %
01.02.2018 17:10 3,0 C 5,0 C 93 % 1005,1 hPa 0,0 l/m 16,3 km/h (3 Bft) W-SW 246 0 min 0,000 mm 0,0 UV-I 0 W/m 2,0 C -4,0 C 22,5 km/h (4 Bft) 97,37 %
01.02.2018 17:12 2,9 C 5,0 C 93 % 1005,1 hPa 0,0 l/m 10,6 km/h (2 Bft) W-SW 240 0 min 0,000 mm 0,0 UV-I 0 W/m 1,9 C -0,7 C 20,9 km/h (4 Bft) 97,87 %
01.02.2018 17:14 2,9 C 5,0 C 94 % 1005,1 hPa 0,0 l/m 13,0 km/h (3 Bft) W-SW 238 0 min 0,000 mm 0,0 UV-I 0 W/m 2,0 C -2,3 C 20,9 km/h (4 Bft) 97,14 %
01.02.2018 17:16 2,9 C 5,0 C 94 % 1005,1 hPa 0,0 l/m 14,2 km/h (3 Bft) S-SW 200 0 min 0,000 mm 0,0 UV-I 0 W/m 2,0 C -3,0 C 24,1 km/h (4 Bft) 98,53 %
01.02.2018 17:18 2,9 C 5,0 C 94 % 1005,2 hPa 0,0 l/m 13,9 km/h (3 Bft) S-SW 193 0 min 0,000 mm 0,0 UV-I 0 W/m 2,0 C -2,8 C 22,5 km/h (4 Bft) 97,37 %
01.02.2018 17:20 2,9 C 5,0 C 94 % 1005,3 hPa 0,0 l/m 14,7 km/h (3 Bft) SW 226 0 min 0,000 mm 0,0 UV-I 0 W/m 2,0 C -3,3 C 20,9 km/h (4 Bft) 97,87 %
01.02.2018 17:22 2,9 C 5,0 C 94 % 1005,3 hPa 0,0 l/m 14,1 km/h (3 Bft) S-SW 193 0 min 0,000 mm 0,0 UV-I 0 W/m 2,0 C -3,0 C 20,9 km/h (4 Bft) 98,00 %
01.02.2018 17:24 2,9 C 5,0 C 94 % 1005,3 hPa 0,0 l/m 12,7 km/h (3 Bft) S-SW 203 0 min 0,000 mm 0,0 UV-I 0 W/m 2,0 C -2,1 C 17,7 km/h (3 Bft) 98,00 %
01.02.2018 17:26 2,9 C 5,0 C 94 % 1005,4 hPa 0,0 l/m 14,1 km/h (3 Bft) SW 215 0 min 0,000 mm 0,0 UV-I 0 W/m 2,0 C -3,0 C 20,9 km/h (4 Bft) 96,00 %
01.02.2018 17:28 2,9 C 5,0 C 94 % 1005,3 hPa 0,0 l/m 11,0 km/h (2 Bft) SW 217 0 min 0,000 mm 0,0 UV-I 0 W/m 2,0 C -1,0 C 16,1 km/h (3 Bft) 97,87 %
01.02.2018 17:30 2,9 C 5,0 C 94 % 1005,4 hPa 0,0 l/m 11,6 km/h (2 Bft) SW 234 0 min 0,000 mm 0,0 UV-I 0 W/m 2,0 C -1,4 C 16,1 km/h (3 Bft) 95,74 %
01.02.2018 17:32 2,9 C 5,0 C 94 % 1005,4 hPa 0,0 l/m 13,7 km/h (3 Bft) S-SW 213 0 min 0,000 mm 0,0 UV-I 0 W/m 2,0 C -2,7 C 24,1 km/h (4 Bft) 95,12 %
01.02.2018 17:34 2,9 C 5,0 C 94 % 1005,4 hPa 0,0 l/m 13,8 km/h (3 Bft) SW 236 0 min 0,000 mm 0,0 UV-I 0 W/m 2,0 C -2,8 C 22,5 km/h (4 Bft) 98,00 %
01.02.2018 17:36 2,8 C 5,0 C 94 % 1005,5 hPa 0,0 l/m 12,3 km/h (3 Bft) S-SW 205 0 min 0,000 mm 0,0 UV-I 0 W/m 1,9 C -2,0 C 20,9 km/h (4 Bft) 97,73 %
01.02.2018 17:38 2,8 C 5,0 C 94 % 1005,5 hPa 0,0 l/m 12,7 km/h (3 Bft) W-SW 241 0 min 0,000 mm 0,0 UV-I 0 W/m 1,9 C -2,2 C 19,3 km/h (3 Bft) 94,87 %
01.02.2018 17:40 2,8 C 5,0 C 94 % 1005,4 hPa 0,0 l/m 8,5 km/h (2 Bft) SW 229 0 min 0,000 mm 0,0 UV-I 0 W/m 1,9 C 0,9 C 12,9 km/h (3 Bft) 98,00 %
01.02.2018 17:42 2,8 C 5,0 C 94 % 1005,5 hPa 0,0 l/m 10,5 km/h (2 Bft) SW 222 0 min 0,000 mm 0,0 UV-I 0 W/m 1,9 C -0,7 C 17,7 km/h (3 Bft) 97,87 %
01.02.2018 17:44 2,8 C 5,0 C 94 % 1005,5 hPa 0,0 l/m 11,3 km/h (2 Bft) W-SW 254 0 min 0,000 mm 0,0 UV-I 0 W/m 1,9 C -1,3 C 16,1 km/h (3 Bft) 97,87 %
01.02.2018 17:46 2,7 C 5,0 C 94 % 1005,6 hPa 0,0 l/m 13,5 km/h (3 Bft) SW 223 0 min 0,000 mm 0,0 UV-I 0 W/m 1,8 C -2,8 C 20,9 km/h (4 Bft) 96,43 %
01.02.2018 17:48 2,7 C 5,0 C 94 % 1005,6 hPa 0,0 l/m 8,3 km/h (2 Bft) SW 221 0 min 0,000 mm 0,0 UV-I 0 W/m 1,8 C 0,9 C 12,9 km/h (3 Bft) 97,56 %
01.02.2018 17:50 2,7 C 5,0 C 94 % 1005,6 hPa 0,0 l/m 14,5 km/h (3 Bft) S-SW 202 0 min 0,000 mm 0,0 UV-I 0 W/m 1,8 C -3,4 C 20,9 km/h (4 Bft) 94,34 %
01.02.2018 17:52 2,7 C 5,0 C 94 % 1005,6 hPa 0,0 l/m 14,7 km/h (3 Bft) SW 220 0 min 0,000 mm 0,0 UV-I 0 W/m 1,8 C -3,5 C 22,5 km/h (4 Bft) 95,12 %
01.02.2018 17:54 2,6 C 5,0 C 94 % 1005,6 hPa 0,0 l/m 13,5 km/h (3 Bft) SW 227 0 min 0,000 mm 0,0 UV-I 0 W/m 1,7 C -3,0 C 19,3 km/h (3 Bft) 98,00 %
01.02.2018 17:56 2,6 C 5,0 C 94 % 1005,6 hPa 0,0 l/m 13,5 km/h (3 Bft) S-SW 207 0 min 0,000 mm 0,0 UV-I 0 W/m 1,7 C -3,0 C 20,9 km/h (4 Bft) 97,37 %
01.02.2018 17:58 2,6 C 5,0 C 94 % 1005,7 hPa 0,0 l/m 15,0 km/h (3 Bft) S 181 0 min 0,000 mm 0,0 UV-I 0 W/m 1,7 C -3,8 C 24,1 km/h (4 Bft) 96,00 %
01.02.2018 18:00 2,6 C 5,0 C 94 % 1005,7 hPa 0,0 l/m 14,8 km/h (3 Bft) SW 231 0 min 0,000 mm 0,0 UV-I 0 W/m 1,7 C -3,7 C 20,9 km/h (4 Bft) 98,21 %
01.02.2018 18:02 2,6 C 5,0 C 94 % 1005,7 hPa 0,0 l/m 12,1 km/h (2 Bft) W-SW 250 0 min 0,000 mm 0,0 UV-I 0 W/m 1,7 C -2,1 C 16,1 km/h (3 Bft) 97,37 %
01.02.2018 18:04 2,5 C 5,0 C 94 % 1005,7 hPa 0,0 l/m 13,9 km/h (3 Bft) S-SW 209 0 min 0,000 mm 0,0 UV-I 0 W/m 1,6 C -3,3 C 19,3 km/h (3 Bft) 98,11 %
01.02.2018 18:06 2,5 C 5,0 C 94 % 1005,7 hPa 0,0 l/m 12,7 km/h (3 Bft) S-SW 199 0 min 0,000 mm 0,0 UV-I 0 W/m 1,6 C -2,6 C 19,3 km/h (3 Bft) 100,00 %
01.02.2018 18:08 2,4 C 5,0 C 94 % 1005,9 hPa 0,0 l/m 11,2 km/h (2 Bft) SW 222 0 min 0,000 mm 0,0 UV-I 0 W/m 1,5 C -1,7 C 19,3 km/h (3 Bft) 100,00 %
01.02.2018 18:10 2,4 C 5,0 C 94 % 1005,9 hPa 0,0 l/m 13,5 km/h (3 Bft) S-SW 208 0 min 0,000 mm 0,0 UV-I 0 W/m 1,5 C -3,2 C 19,3 km/h (3 Bft) 100,00 %
01.02.2018 18:12 2,4 C 5,0 C 94 % 1005,9 hPa 0,0 l/m 14,0 km/h (3 Bft) W-SW 257 0 min 0,000 mm 0,0 UV-I 0 W/m 1,5 C -3,5 C 20,9 km/h (4 Bft) 100,00 %
01.02.2018 18:14 2,4 C 5,0 C 94 % 1005,9 hPa 0,0 l/m 15,0 km/h (3 Bft) S-SW 213 0 min 0,000 mm 0,0 UV-I 0 W/m 1,5 C -4,1 C 22,5 km/h (4 Bft) 100,00 %
01.02.2018 18:16 2,3 C 5,0 C 94 % 1005,9 hPa 0,0 l/m 13,9 km/h (3 Bft) W-SW 241 0 min 0,000 mm 0,0 UV-I 0 W/m 1,4 C -3,6 C 19,3 km/h (3 Bft) 100,00 %
01.02.2018 18:18 2,3 C 5,0 C 94 % 1006,0 hPa 0,0 l/m 13,4 km/h (3 Bft) SW 235 0 min 0,000 mm 0,0 UV-I 0 W/m 1,4 C -3,3 C 20,9 km/h (4 Bft) 100,00 %
01.02.2018 18:20 2,3 C 5,0 C 94 % 1005,9 hPa 0,0 l/m 11,9 km/h (2 Bft) SW 219 0 min 0,000 mm 0,0 UV-I 0 W/m 1,4 C -2,3 C 16,1 km/h (3 Bft) 98,11 %
01.02.2018 18:22 2,3 C 5,0 C 94 % 1005,9 hPa 0,0 l/m 12,2 km/h (2 Bft) S-SW 208 0 min 0,000 mm 0,0 UV-I 0 W/m 1,4 C -2,5 C 17,7 km/h (3 Bft) 100,00 %
01.02.2018 18:24 2,3 C 5,0 C 94 % 1006,0 hPa 0,0 l/m 13,2 km/h (3 Bft) S-SW 211 0 min 0,000 mm 0,0 UV-I 0 W/m 1,4 C -3,1 C 20,9 km/h (4 Bft) 100,00 %
01.02.2018 18:26 2,3 C 5,0 C 94 % 1006,0 hPa 0,0 l/m 12,7 km/h (3 Bft) S-SW 204 0 min 0,000 mm 0,0 UV-I 0 W/m 1,4 C -2,8 C 17,7 km/h (3 Bft) 98,00 %
01.02.2018 18:28 2,3 C 5,0 C 94 % 1006,1 hPa 0,0 l/m 11,9 km/h (2 Bft) W-SW 244 0 min 0,000 mm 0,0 UV-I 0 W/m 1,4 C -2,3 C 22,5 km/h (4 Bft) 100,00 %
01.02.2018 18:30 2,3 C 5,0 C 94 % 1006,1 hPa 0,0 l/m 11,6 km/h (2 Bft) S-SW 197 0 min 0,000 mm 0,0 UV-I 0 W/m 1,4 C -2,1 C 20,9 km/h (4 Bft) 100,00 %
01.02.2018 18:32 2,3 C 5,0 C 94 % 1006,1 hPa 0,0 l/m 14,0 km/h (3 Bft) SW 230 0 min 0,000 mm 0,0 UV-I 0 W/m 1,4 C -3,6 C 22,5 km/h (4 Bft) 100,00 %
01.02.2018 18:34 2,3 C 5,0 C 94 % 1006,1 hPa 0,0 l/m 9,0 km/h (2 Bft) S-SO 153 0 min 0,000 mm 0,0 UV-I 0 W/m 1,4 C -0,1 C 14,5 km/h (3 Bft) 100,00 %
01.02.2018 18:36 2,3 C 5,0 C 94 % 1006,2 hPa 0,0 l/m 11,0 km/h (2 Bft) S-SW 211 0 min 0,000 mm 0,0 UV-I 0 W/m 1,4 C -1,7 C 22,5 km/h (4 Bft) 98,21 %
01.02.2018 18:38 2,3 C 5,0 C 94 % 1006,2 hPa 0,0 l/m 13,4 km/h (3 Bft) SW 217 0 min 0,000 mm 0,0 UV-I 0 W/m 1,4 C -3,3 C 19,3 km/h (3 Bft) 100,00 %
01.02.2018 18:40 2,3 C 5,0 C 94 % 1006,1 hPa 0,0 l/m 12,2 km/h (2 Bft) SW 217 0 min 0,000 mm 0,0 UV-I 0 W/m 1,4 C -2,5 C 19,3 km/h (3 Bft) 100,00 %
01.02.2018 18:42 2,3 C 5,0 C 94 % 1006,0 hPa 0,0 l/m 8,6 km/h (2 Bft) S-SW 209 0 min 0,000 mm 0,0 UV-I 0 W/m 1,4 C 0,2 C 16,1 km/h (3 Bft) 98,00 %
01.02.2018 18:44 2,3 C 5,0 C 94 % 1006,1 hPa 0,0 l/m 9,8 km/h (2 Bft) SW 215 0 min 0,000 mm 0,0 UV-I 0 W/m 1,4 C -0,8 C 16,1 km/h (3 Bft) 98,11 %
01.02.2018 18:46 2,3 C 5,0 C 94 % 1006,1 hPa 0,0 l/m 11,8 km/h (2 Bft) S-SW 200 0 min 0,000 mm 0,0 UV-I 0 W/m 1,4 C -2,2 C 19,3 km/h (3 Bft) 94,74 %
01.02.2018 18:48 2,3 C 5,0 C 94 % 1006,1 hPa 0,0 l/m 10,4 km/h (2 Bft) S-SW 211 0 min 0,000 mm 0,0 UV-I 0 W/m 1,4 C -1,2 C 14,5 km/h (3 Bft) 98,15 %
01.02.2018 18:50 2,3 C 5,0 C 94 % 1006,2 hPa 0,0 l/m 10,5 km/h (2 Bft) SW 217 0 min 0,000 mm 0,0 UV-I 0 W/m 1,4 C -1,3 C 16,1 km/h (3 Bft) 95,74 %
01.02.2018 18:52 2,3 C 5,0 C 94 % 1006,2 hPa 0,0 l/m 9,7 km/h (2 Bft) SW 223 0 min 0,000 mm 0,0 UV-I 0 W/m 1,4 C -0,7 C 16,1 km/h (3 Bft) 94,87 %
01.02.2018 18:54 2,3 C 5,0 C 94 % 1006,2 hPa 0,0 l/m 12,5 km/h (3 Bft) S-SW 200 0 min 0,000 mm 0,0 UV-I 0 W/m 1,4 C -2,7 C 22,5 km/h (4 Bft) 98,00 %
01.02.2018 18:56 2,3 C 5,0 C 93 % 1006,2 hPa 0,0 l/m 11,5 km/h (2 Bft) W-SW 240 0 min 0,000 mm 0,0 UV-I 0 W/m 1,3 C -2,0 C 17,7 km/h (3 Bft) 94,74 %
01.02.2018 18:58 2,3 C 5,0 C 93 % 1006,2 hPa 0,0 l/m 12,1 km/h (2 Bft) W-SW 246 0 min 0,000 mm 0,0 UV-I 0 W/m 1,3 C -2,4 C 17,7 km/h (3 Bft) 98,21 %
01.02.2018 19:00 2,3 C 5,0 C 93 % 1006,3 hPa 0,0 l/m 13,0 km/h (3 Bft) S-SW 211 0 min 0,000 mm 0,0 UV-I 0 W/m 1,3 C -3,0 C 19,3 km/h (3 Bft) 98,00 %
01.02.2018 19:02 2,3 C 5,0 C 93 % 1006,4 hPa 0,0 l/m 12,1 km/h (2 Bft) W 272 0 min 0,000 mm 0,0 UV-I 0 W/m 1,3 C -2,4 C 19,3 km/h (3 Bft) 95,12 %
01.02.2018 19:04 2,2 C 5,0 C 93 % 1006,4 hPa 0,0 l/m 14,1 km/h (3 Bft) S-SW 211 0 min 0,000 mm 0,0 UV-I 0 W/m 1,2 C -3,8 C 19,3 km/h (3 Bft) 98,00 %
01.02.2018 19:06 2,2 C 5,0 C 93 % 1006,4 hPa 0,0 l/m 11,6 km/h (2 Bft) W-SW 249 0 min 0,000 mm 0,0 UV-I 0 W/m 1,2 C -2,2 C 17,7 km/h (3 Bft) 97,87 %
01.02.2018 19:08 2,2 C 5,0 C 93 % 1006,4 hPa 0,0 l/m 11,9 km/h (2 Bft) W-SW 242 0 min 0,000 mm 0,0 UV-I 0 W/m 1,2 C -2,4 C 17,7 km/h (3 Bft) 93,62 %
01.02.2018 19:10 2,2 C 5,0 C 93 % 1006,4 hPa 0,0 l/m 10,2 km/h (2 Bft) SO 146 0 min 0,000 mm 0,0 UV-I 0 W/m 1,2 C -1,2 C 17,7 km/h (3 Bft) 97,56 %
01.02.2018 19:12 2,2 C 5,0 C 93 % 1006,5 hPa 0,0 l/m 10,6 km/h (2 Bft) SW 216 0 min 0,000 mm 0,0 UV-I 0 W/m 1,2 C -1,5 C 16,1 km/h (3 Bft) 98,00 %
01.02.2018 19:14 2,1 C 5,0 C 93 % 1006,4 hPa 0,0 l/m 7,4 km/h (2 Bft) SW 216 0 min 0,000 mm 0,0 UV-I 0 W/m 1,1 C 1,1 C 9,7 km/h (2 Bft) 98,11 %
01.02.2018 19:16 2,1 C 5,0 C 94 % 1006,4 hPa 0,0 l/m 10,4 km/h (2 Bft) SW 229 0 min 0,000 mm 0,0 UV-I 0 W/m 1,2 C -1,4 C 19,3 km/h (3 Bft) 94,29 %
01.02.2018 19:18 2,1 C 5,0 C 94 % 1006,5 hPa 0,2 l/m 11,6 km/h (2 Bft) S-SW 211 0 min 0,000 mm 0,0 UV-I 0 W/m 1,2 C -2,3 C 20,9 km/h (4 Bft) 98,31 %
01.02.2018 19:20 2,1 C 5,0 C 94 % 1006,5 hPa 0,0 l/m 9,8 km/h (2 Bft) S-SW 207 0 min 0,000 mm 0,0 UV-I 0 W/m 1,2 C -1,0 C 12,9 km/h (3 Bft) 100,00 %
01.02.2018 19:22 2,1 C 5,0 C 94 % 1006,5 hPa 0,0 l/m 11,6 km/h (2 Bft) W-SW 241 0 min 0,000 mm 0,0 UV-I 0 W/m 1,2 C -2,3 C 16,1 km/h (3 Bft) 100,00 %
01.02.2018 19:24 2,1 C 5,0 C 94 % 1006,5 hPa 0,0 l/m 7,9 km/h (2 Bft) S-SW 200 0 min 0,000 mm 0,0 UV-I 0 W/m 1,2 C 0,7 C 12,9 km/h (3 Bft) 95,45 %
01.02.2018 19:26 2,1 C 5,0 C 94 % 1006,5 hPa 0,0 l/m 11,3 km/h (2 Bft) S-SW 205 0 min 0,000 mm 0,0 UV-I 0 W/m 1,2 C -2,1 C 16,1 km/h (3 Bft) 100,00 %
01.02.2018 19:28 2,1 C 5,0 C 94 % 1006,5 hPa 0,0 l/m 11,6 km/h (2 Bft) S-SW 200 0 min 0,000 mm 0,0 UV-I 0 W/m 1,2 C -2,3 C 14,5 km/h (3 Bft) 100,00 %
01.02.2018 19:30 2,1 C 5,0 C 94 % 1006,4 hPa 0,0 l/m 13,7 km/h (3 Bft) SW 215 0 min 0,000 mm 0,0 UV-I 0 W/m 1,2 C -3,7 C 20,9 km/h (4 Bft) 100,00 %
01.02.2018 19:32 2,1 C 5,0 C 94 % 1006,4 hPa 0,0 l/m 11,8 km/h (2 Bft) S-SW 199 0 min 0,000 mm 0,0 UV-I 0 W/m 1,2 C -2,4 C 19,3 km/h (3 Bft) 100,00 %
01.02.2018 19:34 2,1 C 5,0 C 94 % 1006,3 hPa 0,0 l/m 9,8 km/h (2 Bft) S-SW 204 0 min 0,000 mm 0,0 UV-I 0 W/m 1,2 C -1,0 C 14,5 km/h (3 Bft) 100,00 %
01.02.2018 19:35 2,1 C 5,0 C 94 % 1006,3 hPa 0,0 l/m 11,3 km/h (2 Bft) S-SW 202 0 min 0,000 mm 0,0 UV-I 0 W/m 1,2 C -2,1 C 19,3 km/h (3 Bft) 95,61 %
01.02.2018 19:40 2,1 C 5,0 C 94 % 1006,3 hPa 0,0 l/m 11,3 km/h (2 Bft) S-SO 168 0 min 0,000 mm 0,0 UV-I 0 W/m 1,2 C -2,1 C 17,7 km/h (3 Bft) 100,00 %
01.02.2018 19:42 2,1 C 5,0 C 94 % 1006,3 hPa 0,0 l/m 12,4 km/h (3 Bft) S-SW 208 0 min 0,000 mm 0,0 UV-I 0 W/m 1,2 C -2,9 C 17,7 km/h (3 Bft) 97,87 %
01.02.2018 19:44 2,0 C 5,0 C 94 % 1006,3 hPa 0,0 l/m 10,8 km/h (2 Bft) S-SO 165 0 min 0,000 mm 0,0 UV-I 0 W/m 1,1 C -1,8 C 17,7 km/h (3 Bft) 100,00 %
01.02.2018 19:46 2,0 C 5,0 C 94 % 1006,3 hPa 0,0 l/m 11,7 km/h (2 Bft) S-SW 201 0 min 0,000 mm 0,0 UV-I 0 W/m 1,1 C -2,5 C 16,1 km/h (3 Bft) 100,00 %
01.02.2018 19:48 2,0 C 5,0 C 94 % 1006,3 hPa 0,0 l/m 10,1 km/h (2 Bft) S-SW 195 0 min 0,000 mm 0,0 UV-I 0 W/m 1,1 C -1,3 C 17,7 km/h (3 Bft) 100,00 %
01.02.2018 19:50 2,0 C 5,0 C 94 % 1006,3 hPa 0,0 l/m 9,2 km/h (2 Bft) S-SW 200 0 min 0,000 mm 0,0 UV-I 0 W/m 1,1 C -0,6 C 17,7 km/h (3 Bft) 98,11 %
01.02.2018 19:52 2,0 C 5,0 C 94 % 1006,4 hPa 0,0 l/m 9,8 km/h (2 Bft) S-SW 196 0 min 0,000 mm 0,0 UV-I 0 W/m 1,1 C -1,1 C 16,1 km/h (3 Bft) 100,00 %
01.02.2018 19:54 2,0 C 5,0 C 94 % 1006,3 hPa 0,0 l/m 10,8 km/h (2 Bft) S-SO 168 0 min 0,000 mm 0,0 UV-I 0 W/m 1,1 C -1,8 C 16,1 km/h (3 Bft) 100,00 %
01.02.2018 19:56 2,0 C 5,0 C 94 % 1006,3 hPa 0,0 l/m 11,7 km/h (2 Bft) S-SW 208 0 min 0,000 mm 0,0 UV-I 0 W/m 1,1 C -2,5 C 19,3 km/h (3 Bft) 100,00 %
01.02.2018 19:58 2,0 C 5,0 C 94 % 1006,3 hPa 0,0 l/m 11,0 km/h (2 Bft) S 180 0 min 0,000 mm 0,0 UV-I 0 W/m 1,1 C -2,0 C 17,7 km/h (3 Bft) 100,00 %
01.02.2018 20:00 2,1 C 5,0 C 94 % 1006,3 hPa 0,0 l/m 9,4 km/h (2 Bft) S-SW 205 0 min 0,000 mm 0,0 UV-I 0 W/m 1,2 C -0,7 C 14,5 km/h (3 Bft) 100,00 %
01.02.2018 20:02 2,1 C 5,0 C 94 % 1006,3 hPa 0,0 l/m 9,9 km/h (2 Bft) S-SW 198 0 min 0,000 mm 0,0 UV-I 0 W/m 1,2 C -1,1 C 14,5 km/h (3 Bft) 100,00 %
01.02.2018 20:04 2,0 C 5,0 C 94 % 1006,3 hPa 0,0 l/m 8,0 km/h (2 Bft) S-SW 203 0 min 0,000 mm 0,0 UV-I 0 W/m 1,1 C 0,5 C 12,9 km/h (3 Bft) 100,00 %
01.02.2018 20:06 2,0 C 5,0 C 94 % 1006,3 hPa 0,0 l/m 8,3 km/h (2 Bft) S 182 0 min 0,000 mm 0,0 UV-I 0 W/m 1,1 C 0,2 C 14,5 km/h (3 Bft) 100,00 %
01.02.2018 20:08 2,0 C 5,0 C 94 % 1006,3 hPa 0,0 l/m 9,1 km/h (2 Bft) S-SW 201 0 min 0,000 mm 0,0 UV-I 0 W/m 1,1 C -0,5 C 17,7 km/h (3 Bft) 100,00 %
01.02.2018 20:10 1,9 C 5,0 C 94 % 1006,3 hPa 0,0 l/m 10,2 km/h (2 Bft) S-SW 202 0 min 0,000 mm 0,0 UV-I 0 W/m 1,0 C -1,5 C 16,1 km/h (3 Bft) 100,00 %
01.02.2018 20:12 1,9 C 5,0 C 94 % 1006,3 hPa 0,0 l/m 9,5 km/h (2 Bft) S-SW 194 0 min 0,000 mm 0,0 UV-I 0 W/m 1,0 C -1,0 C 12,9 km/h (3 Bft) 100,00 %
01.02.2018 20:14 1,9 C 5,0 C 94 % 1006,3 hPa 0,0 l/m 8,1 km/h (2 Bft) S-SW 199 0 min 0,000 mm 0,0 UV-I 0 W/m 1,0 C 0,3 C 11,3 km/h (2 Bft) 97,92 %
01.02.2018 20:16 2,0 C 5,0 C 94 % 1006,4 hPa 0,0 l/m 8,6 km/h (2 Bft) S-SW 207 0 min 0,000 mm 0,0 UV-I 0 W/m 1,1 C -0,1 C 12,9 km/h (3 Bft) 100,00 %
01.02.2018 20:18 2,0 C 5,0 C 94 % 1006,5 hPa 0,0 l/m 6,8 km/h (2 Bft) S-SW 203 0 min 0,000 mm 0,0 UV-I 0 W/m 1,1 C 1,6 C 11,3 km/h (2 Bft) 100,00 %
01.02.2018 20:20 2,0 C 5,0 C 94 % 1006,5 hPa 0,0 l/m 10,1 km/h (2 Bft) W-SW 244 0 min 0,000 mm 0,0 UV-I 0 W/m 1,1 C -1,3 C 14,5 km/h (3 Bft) 100,00 %
01.02.2018 20:22 2,0 C 5,0 C 94 % 1006,5 hPa 0,0 l/m 7,0 km/h (2 Bft) S-SW 204 0 min 0,000 mm 0,0 UV-I 0 W/m 1,1 C 1,4 C 9,7 km/h (2 Bft) 97,87 %
01.02.2018 20:24 2,0 C 5,0 C 94 % 1006,5 hPa 0,0 l/m 8,2 km/h (2 Bft) SW 216 0 min 0,000 mm 0,0 UV-I 0 W/m 1,1 C 0,3 C 16,1 km/h (3 Bft) 100,00 %
01.02.2018 20:26 2,0 C 5,0 C 94 % 1006,5 hPa 0,0 l/m 7,1 km/h (2 Bft) SW 219 0 min 0,000 mm 0,0 UV-I 0 W/m 1,1 C 1,3 C 12,9 km/h (3 Bft) 98,00 %
01.02.2018 20:28 2,0 C 5,0 C 94 % 1006,5 hPa 0,0 l/m 7,1 km/h (2 Bft) S 179 0 min 0,000 mm 0,0 UV-I 0 W/m 1,1 C 1,3 C 12,9 km/h (3 Bft) 100,00 %
01.02.2018 20:30 2,0 C 5,0 C 94 % 1006,5 hPa 0,0 l/m 5,5 km/h (1 Bft) S-SW 209 0 min 0,000 mm 0,0 UV-I 0 W/m 1,1 C 2,0 C 9,7 km/h (2 Bft) 100,00 %
01.02.2018 20:32 2,0 C 5,0 C 94 % 1006,5 hPa 0,0 l/m 5,3 km/h (1 Bft) S-SW 198 0 min 0,000 mm 0,0 UV-I 0 W/m 1,1 C 2,0 C 11,3 km/h (2 Bft) 98,21 %
01.02.2018 20:34 2,1 C 5,0 C 94 % 1006,5 hPa 0,0 l/m 7,4 km/h (2 Bft) S-SO 155 0 min 0,000 mm 0,0 UV-I 0 W/m 1,2 C 1,1 C 14,5 km/h (3 Bft) 100,00 %
01.02.2018 20:36 2,0 C 5,0 C 94 % 1006,5 hPa 0,0 l/m 6,8 km/h (2 Bft) SW 221 0 min 0,000 mm 0,0 UV-I 0 W/m 1,1 C 1,6 C 11,3 km/h (2 Bft) 100,00 %
01.02.2018 20:38 2,1 C 5,0 C 94 % 1006,5 hPa 0,0 l/m 8,6 km/h (2 Bft) S-SW 211 0 min 0,000 mm 0,0 UV-I 0 W/m 1,2 C 0,0 C 14,5 km/h (3 Bft) 100,00 %
01.02.2018 20:40 2,1 C 5,0 C 94 % 1006,5 hPa 0,0 l/m 7,7 km/h (2 Bft) SW 214 0 min 0,000 mm 0,0 UV-I 0 W/m 1,2 C 0,8 C 12,9 km/h (3 Bft) 100,00 %
01.02.2018 20:42 2,1 C 5,0 C 94 % 1006,5 hPa 0,0 l/m 7,2 km/h (2 Bft) SW 219 0 min 0,000 mm 0,0 UV-I 0 W/m 1,2 C 1,3 C 9,7 km/h (2 Bft) 100,00 %
01.02.2018 20:44 2,1 C 5,0 C 94 % 1006,5 hPa 0,0 l/m 8,0 km/h (2 Bft) SW 217 0 min 0,000 mm 0,0 UV-I 0 W/m 1,2 C 0,6 C 11,3 km/h (2 Bft) 98,00 %
01.02.2018 20:46 2,2 C 5,0 C 94 % 1006,5 hPa 0,0 l/m 6,9 km/h (2 Bft) SW 217 0 min 0,000 mm 0,0 UV-I 0 W/m 1,3 C 1,7 C 11,3 km/h (2 Bft) 100,00 %
01.02.2018 20:48 2,2 C 5,0 C 94 % 1006,5 hPa 0,0 l/m 6,9 km/h (2 Bft) SW 216 0 min 0,000 mm 0,0 UV-I 0 W/m 1,3 C 1,7 C 9,7 km/h (2 Bft) 97,44 %
01.02.2018 20:50 2,2 C 5,0 C 94 % 1006,5 hPa 0,0 l/m 6,6 km/h (2 Bft) SW 215 0 min 0,000 mm 0,0 UV-I 0 W/m 1,3 C 2,0 C 9,7 km/h (2 Bft) 98,11 %
01.02.2018 20:52 2,2 C 5,0 C 93 % 1006,5 hPa 0,0 l/m 6,7 km/h (2 Bft) SW 227 0 min 0,000 mm 0,0 UV-I 0 W/m 1,2 C 1,9 C 9,7 km/h (2 Bft) 96,23 %
01.02.2018 20:54 2,2 C 5,0 C 93 % 1006,5 hPa 0,0 l/m 5,2 km/h (1 Bft) S-SW 209 0 min 0,000 mm 0,0 UV-I 0 W/m 1,2 C 2,2 C 8,0 km/h (2 Bft) 97,37 %
01.02.2018 20:56 2,2 C 5,0 C 93 % 1006,5 hPa 0,0 l/m 5,2 km/h (1 Bft) SW 218 0 min 0,000 mm 0,0 UV-I 0 W/m 1,2 C 2,2 C 8,0 km/h (2 Bft) 98,21 %
01.02.2018 20:58 2,2 C 5,0 C 93 % 1006,5 hPa 0,0 l/m 7,1 km/h (2 Bft) SW 219 0 min 0,000 mm 0,0 UV-I 0 W/m 1,2 C 1,5 C 11,3 km/h (2 Bft) 97,14 %
01.02.2018 21:00 2,2 C 5,0 C 93 % 1006,5 hPa 0,0 l/m 7,6 km/h (2 Bft) SW 215 0 min 0,000 mm 0,0 UV-I 0 W/m 1,2 C 1,0 C 12,9 km/h (3 Bft) 94,64 %
01.02.2018 21:02 2,2 C 5,0 C 93 % 1006,6 hPa 0,0 l/m 6,5 km/h (2 Bft) SW 215 0 min 0,000 mm 0,0 UV-I 0 W/m 1,2 C 2,1 C 8,0 km/h (2 Bft) 96,55 %
01.02.2018 21:04 2,2 C 5,0 C 93 % 1006,6 hPa 0,0 l/m 6,6 km/h (2 Bft) S-SW 213 0 min 0,000 mm 0,0 UV-I 0 W/m 1,2 C 2,0 C 9,7 km/h (2 Bft) 95,16 %
01.02.2018 21:06 2,2 C 5,0 C 93 % 1006,5 hPa 0,0 l/m 5,6 km/h (1 Bft) S-SW 207 0 min 0,000 mm 0,0 UV-I 0 W/m 1,2 C 2,2 C 11,3 km/h (2 Bft) 96,23 %
01.02.2018 21:08 2,2 C 5,0 C 93 % 1006,5 hPa 0,0 l/m 6,1 km/h (2 Bft) SW 234 0 min 0,000 mm 0,0 UV-I 0 W/m 1,2 C 2,2 C 9,7 km/h (2 Bft) 92,11 %
01.02.2018 21:10 2,2 C 5,0 C 93 % 1006,5 hPa 0,0 l/m 5,1 km/h (1 Bft) SW 225 0 min 0,000 mm 0,0 UV-I 0 W/m 1,2 C 2,2 C 8,0 km/h (2 Bft) 94,34 %
01.02.2018 21:12 2,2 C 5,0 C 93 % 1006,6 hPa 0,0 l/m 3,8 km/h (1 Bft) SW 231 0 min 0,000 mm 0,0 UV-I 0 W/m 1,2 C 2,2 C 6,4 km/h (2 Bft) 95,45 %
01.02.2018 21:14 2,2 C 5,0 C 93 % 1006,6 hPa 0,0 l/m 4,2 km/h (1 Bft) W-SW 240 0 min 0,000 mm 0,0 UV-I 0 W/m 1,2 C 2,2 C 8,0 km/h (2 Bft) 96,00 %
01.02.2018 21:16 2,2 C 5,0 C 93 % 1006,6 hPa 0,0 l/m 4,3 km/h (1 Bft) W-SW 240 0 min 0,000 mm 0,0 UV-I 0 W/m 1,2 C 2,2 C 6,4 km/h (2 Bft) 90,24 %
01.02.2018 21:18 2,2 C 5,0 C 93 % 1006,6 hPa 0,0 l/m 5,2 km/h (1 Bft) SW 223 0 min 0,000 mm 0,0 UV-I 0 W/m 1,2 C 2,2 C 8,0 km/h (2 Bft) 95,74 %
01.02.2018 21:20 2,1 C 5,0 C 93 % 1006,6 hPa 0,0 l/m 3,8 km/h (1 Bft) SW 225 0 min 0,000 mm 0,0 UV-I 0 W/m 1,1 C 2,1 C 4,8 km/h (1 Bft) 94,34 %
01.02.2018 21:22 2,1 C 5,0 C 93 % 1006,6 hPa 0,0 l/m 3,1 km/h (1 Bft) SW 225 0 min 0,000 mm 0,0 UV-I 0 W/m 1,1 C 2,1 C 4,8 km/h (1 Bft) 93,62 %
01.02.2018 21:24 2,1 C 5,0 C 93 % 1006,6 hPa 0,0 l/m 3,1 km/h (1 Bft) SW 226 0 min 0,000 mm 0,0 UV-I 0 W/m 1,1 C 2,1 C 6,4 km/h (2 Bft) 97,44 %
01.02.2018 21:26 2,1 C 5,0 C 93 % 1006,6 hPa 0,0 l/m 2,7 km/h (1 Bft) SW 225 0 min 0,000 mm 0,0 UV-I 0 W/m 1,1 C 2,1 C 4,8 km/h (1 Bft) 94,55 %
01.02.2018 21:28 2,1 C 5,0 C 94 % 1006,6 hPa 0,0 l/m 2,1 km/h (1 Bft) SW 225 0 min 0,000 mm 0,0 UV-I 0 W/m 1,2 C 2,1 C 3,2 km/h (1 Bft) 97,44 %
01.02.2018 21:30 2,0 C 5,0 C 94 % 1006,7 hPa 0,0 l/m 1,9 km/h (1 Bft) SW 225 0 min 0,000 mm 0,0 UV-I 0 W/m 1,1 C 2,0 C 3,2 km/h (1 Bft) 94,64 %
01.02.2018 21:32 2,0 C 5,0 C 94 % 1006,7 hPa 0,0 l/m 1,9 km/h (1 Bft) SW 225 0 min 0,000 mm 0,0 UV-I 0 W/m 1,1 C 2,0 C 4,8 km/h (1 Bft) 97,37 %
01.02.2018 21:34 2,0 C 5,0 C 94 % 1006,7 hPa 0,0 l/m 1,9 km/h (1 Bft) SW 225 0 min 0,000 mm 0,0 UV-I 0 W/m 1,1 C 2,0 C 3,2 km/h (1 Bft) 98,00 %
01.02.2018 21:36 1,9 C 5,0 C 94 % 1006,7 hPa 0,0 l/m 0,9 km/h (0 Bft) SW 225 0 min 0,000 mm 0,0 UV-I 0 W/m 1,0 C 1,9 C 3,2 km/h (1 Bft) 98,00 %
01.02.2018 21:38 1,9 C 5,0 C 94 % 1006,7 hPa 0,0 l/m 1,8 km/h (1 Bft) SW 225 0 min 0,000 mm 0,0 UV-I 0 W/m 1,0 C 1,9 C 3,2 km/h (1 Bft) 97,87 %
01.02.2018 21:40 1,9 C 5,0 C 94 % 1006,8 hPa 0,0 l/m 1,5 km/h (1 Bft) SW 225 0 min 0,000 mm 0,0 UV-I 0 W/m 1,0 C 1,9 C 3,2 km/h (1 Bft) 98,00 %
01.02.2018 21:42 1,8 C 5,0 C 94 % 1006,8 hPa 0,0 l/m 1,8 km/h (1 Bft) SW 225 0 min 0,000 mm 0,0 UV-I 0 W/m 0,9 C 1,8 C 3,2 km/h (1 Bft) 97,56 %
01.02.2018 21:44 1,8 C 5,0 C 94 % 1006,8 hPa 0,0 l/m 2,0 km/h (1 Bft) SW 225 0 min 0,000 mm 0,0 UV-I 0 W/m 0,9 C 1,8 C 3,2 km/h (1 Bft) 96,00 %
01.02.2018 21:46 1,8 C 5,0 C 94 % 1006,7 hPa 0,0 l/m 1,3 km/h (1 Bft) SW 225 0 min 0,000 mm 0,0 UV-I 0 W/m 0,9 C 1,8 C 3,2 km/h (1 Bft) 97,37 %
01.02.2018 21:48 1,7 C 5,0 C 95 % 1006,7 hPa 0,0 l/m 1,7 km/h (1 Bft) SW 225 0 min 0,000 mm 0,0 UV-I 0 W/m 1,0 C 1,7 C 3,2 km/h (1 Bft) 95,74 %
01.02.2018 21:50 1,8 C 5,0 C 95 % 1006,8 hPa 0,0 l/m 2,1 km/h (1 Bft) SW 225 0 min 0,000 mm 0,0 UV-I 0 W/m 1,1 C 1,8 C 3,2 km/h (1 Bft) 98,00 %
01.02.2018 21:52 1,7 C 5,0 C 95 % 1006,8 hPa 0,0 l/m 1,5 km/h (1 Bft) SW 225 0 min 0,000 mm 0,0 UV-I 0 W/m 1,0 C 1,7 C 3,2 km/h (1 Bft) 98,00 %
01.02.2018 21:54 1,8 C 5,0 C 95 % 1006,8 hPa 0,0 l/m 1,7 km/h (1 Bft) SW 225 0 min 0,000 mm 0,0 UV-I 0 W/m 1,1 C 1,8 C 3,2 km/h (1 Bft) 98,00 %
01.02.2018 21:56 1,7 C 5,0 C 95 % 1006,8 hPa 0,0 l/m 2,1 km/h (1 Bft) SW 225 0 min 0,000 mm 0,0 UV-I 0 W/m 1,0 C 1,7 C 3,2 km/h (1 Bft) 97,22 %
01.02.2018 21:58 1,7 C 5,0 C 95 % 1006,8 hPa 0,0 l/m 1,4 km/h (1 Bft) SW 225 0 min 0,000 mm 0,0 UV-I 0 W/m 1,0 C 1,7 C 3,2 km/h (1 Bft) 98,18 %
01.02.2018 22:00 1,7 C 5,0 C 95 % 1006,8 hPa 0,0 l/m 2,0 km/h (1 Bft) SW 225 0 min 0,000 mm 0,0 UV-I 0 W/m 1,0 C 1,7 C 4,8 km/h (1 Bft) 98,00 %
01.02.2018 22:02 1,7 C 5,0 C 95 % 1006,8 hPa 0,0 l/m 0,9 km/h (0 Bft) SW 225 0 min 0,000 mm 0,0 UV-I 0 W/m 1,0 C 1,7 C 1,6 km/h (1 Bft) 97,44 %
01.02.2018 22:04 1,7 C 5,0 C 95 % 1006,8 hPa 0,0 l/m 0,4 km/h (0 Bft) SW 225 0 min 0,000 mm 0,0 UV-I 0 W/m 1,0 C 1,7 C 1,6 km/h (1 Bft) 97,87 %
01.02.2018 22:06 1,7 C 5,0 C 95 % 1006,7 hPa 0,0 l/m 1,3 km/h (1 Bft) SW 225 0 min 0,000 mm 0,0 UV-I 0 W/m 1,0 C 1,7 C 3,2 km/h (1 Bft) 98,11 %
01.02.2018 22:08 1,6 C 5,0 C 95 % 1006,7 hPa 0,0 l/m 0,8 km/h (0 Bft) SW 225 0 min 0,000 mm 0,0 UV-I 0 W/m 0,9 C 1,6 C 1,6 km/h (1 Bft) 100,00 %
01.02.2018 22:10 1,7 C 5,0 C 95 % 1006,7 hPa 0,0 l/m 0,5 km/h (0 Bft) SW 225 0 min 0,000 mm 0,0 UV-I 0 W/m 1,0 C 1,7 C 3,2 km/h (1 Bft) 100,00 %
01.02.2018 22:12 1,7 C 5,0 C 95 % 1006,7 hPa 0,0 l/m 0,9 km/h (0 Bft) SW 225 0 min 0,000 mm 0,0 UV-I 0 W/m 1,0 C 1,7 C 3,2 km/h (1 Bft) 97,87 %
01.02.2018 22:14 1,6 C 4,4 C 95 % 1006,7 hPa 0,0 l/m 0,5 km/h (0 Bft) SW 225 0 min 0,000 mm 0,0 UV-I 0 W/m 0,9 C 1,6 C 1,6 km/h (1 Bft) 98,00 %
01.02.2018 22:16 1,7 C 5,0 C 95 % 1006,7 hPa 0,0 l/m 0,9 km/h (0 Bft) SW 225 0 min 0,000 mm 0,0 UV-I 0 W/m 1,0 C 1,7 C 3,2 km/h (1 Bft) 100,00 %
01.02.2018 22:18 1,6 C 5,0 C 95 % 1006,7 hPa 0,0 l/m 2,3 km/h (1 Bft) SW 225 0 min 0,000 mm 0,0 UV-I 0 W/m 0,9 C 1,6 C 4,8 km/h (1 Bft) 100,00 %
01.02.2018 22:20 1,6 C 5,0 C 95 % 1006,7 hPa 0,0 l/m 1,7 km/h (1 Bft) SW 225 0 min 0,000 mm 0,0 UV-I 0 W/m 0,9 C 1,6 C 3,2 km/h (1 Bft) 100,00 %
01.02.2018 22:22 1,5 C 5,0 C 96 % 1006,7 hPa 0,0 l/m 1,1 km/h (1 Bft) SW 225 0 min 0,000 mm 0,0 UV-I 0 W/m 0,9 C 1,5 C 1,6 km/h (1 Bft) 100,00 %
01.02.2018 22:24 1,5 C 5,0 C 95 % 1006,7 hPa 0,0 l/m 0,5 km/h (0 Bft) SW 225 0 min 0,000 mm 0,0 UV-I 0 W/m 0,8 C 1,5 C 1,6 km/h (1 Bft) 100,00 %
01.02.2018 22:26 1,4 C 5,0 C 96 % 1006,8 hPa 0,0 l/m 0,0 km/h (0 Bft) SW 225 0 min 0,000 mm 0,0 UV-I 0 W/m 0,8 C 1,4 C 0,0 km/h (0 Bft) 100,00 %
01.02.2018 22:28 1,4 C 5,0 C 96 % 1006,7 hPa 0,0 l/m 0,0 km/h (0 Bft) SW 225 0 min 0,000 mm 0,0 UV-I 0 W/m 0,8 C 1,4 C 0,0 km/h (0 Bft) 100,00 %
01.02.2018 22:30 1,4 C 5,0 C 96 % 1006,7 hPa 0,0 l/m 0,0 km/h (0 Bft) SW 225 0 min 0,000 mm 0,0 UV-I 0 W/m 0,8 C 1,4 C 0,0 km/h (0 Bft) 97,87 %
01.02.2018 22:32 1,4 C 5,0 C 96 % 1006,7 hPa 0,0 l/m 0,0 km/h (0 Bft) SW 225 0 min 0,000 mm 0,0 UV-I 0 W/m 0,8 C 1,4 C 0,0 km/h (0 Bft) 100,00 %
01.02.2018 22:34 1,5 C 5,0 C 96 % 1006,8 hPa 0,0 l/m 0,0 km/h (0 Bft) SW 225 0 min 0,000 mm 0,0 UV-I 0 W/m 0,9 C 1,5 C 0,0 km/h (0 Bft) 100,00 %
01.02.2018 22:36 1,6 C 5,0 C 96 % 1006,7 hPa 0,0 l/m 0,0 km/h (0 Bft) SW 225 0 min 0,000 mm 0,0 UV-I 0 W/m 1,0 C 1,6 C 0,0 km/h (0 Bft) 100,00 %
01.02.2018 22:38 1,6 C 5,0 C 96 % 1006,8 hPa 0,0 l/m 0,0 km/h (0 Bft) SW 225 0 min 0,000 mm 0,0 UV-I 0 W/m 1,0 C 1,6 C 0,0 km/h (0 Bft) 100,00 %
01.02.2018 22:40 1,6 C 5,0 C 96 % 1006,7 hPa 0,0 l/m 0,0 km/h (0 Bft) SW 225 0 min 0,000 mm 0,0 UV-I 0 W/m 1,0 C 1,6 C 0,0 km/h (0 Bft) 100,00 %
01.02.2018 22:42 1,6 C 5,0 C 96 % 1006,8 hPa 0,0 l/m 0,0 km/h (0 Bft) SW 225 0 min 0,000 mm 0,0 UV-I 0 W/m 1,0 C 1,6 C 0,0 km/h (0 Bft) 100,00 %
01.02.2018 22:44 1,6 C 5,0 C 96 % 1006,8 hPa 0,0 l/m 0,0 km/h (0 Bft) SW 225 0 min 0,000 mm 0,0 UV-I 0 W/m 1,0 C 1,6 C 0,0 km/h (0 Bft) 94,87 %
01.02.2018 22:46 1,6 C 5,0 C 96 % 1006,8 hPa 0,0 l/m 0,0 km/h (0 Bft) SW 225 0 min 0,000 mm 0,0 UV-I 0 W/m 1,0 C 1,6 C 0,0 km/h (0 Bft) 98,00 %
01.02.2018 22:48 1,6 C 5,0 C 96 % 1006,8 hPa 0,0 l/m 0,0 km/h (0 Bft) SW 225 0 min 0,000 mm 0,0 UV-I 0 W/m 1,0 C 1,6 C 0,0 km/h (0 Bft) 95,74 %
01.02.2018 22:50 1,6 C 5,0 C 96 % 1006,9 hPa 0,0 l/m 0,0 km/h (0 Bft) SW 225 0 min 0,000 mm 0,0 UV-I 0 W/m 1,0 C 1,6 C 1,6 km/h (1 Bft) 100,00 %
01.02.2018 22:52 1,6 C 5,0 C 96 % 1006,9 hPa 0,0 l/m 0,0 km/h (0 Bft) SW 225 0 min 0,000 mm 0,0 UV-I 0 W/m 1,0 C 1,6 C 0,0 km/h (0 Bft) 100,00 %
01.02.2018 22:54 1,6 C 5,0 C 96 % 1006,9 hPa 0,0 l/m 0,0 km/h (0 Bft) SW 225 0 min 0,000 mm 0,0 UV-I 0 W/m 1,0 C 1,6 C 0,0 km/h (0 Bft) 98,00 %
01.02.2018 22:56 1,5 C 5,0 C 96 % 1007,0 hPa 0,0 l/m 0,0 km/h (0 Bft) SW 225 0 min 0,000 mm 0,0 UV-I 0 W/m 0,9 C 1,5 C 0,0 km/h (0 Bft) 100,00 %
01.02.2018 22:58 1,5 C 5,0 C 96 % 1007,0 hPa 0,0 l/m 0,0 km/h (0 Bft) SW 225 0 min 0,000 mm 0,0 UV-I 0 W/m 0,9 C 1,5 C 0,0 km/h (0 Bft) 97,87 %
01.02.2018 23:00 1,4 C 5,0 C 96 % 1007,0 hPa 0,0 l/m 0,0 km/h (0 Bft) SW 225 0 min 0,000 mm 0,0 UV-I 0 W/m 0,8 C 1,4 C 0,0 km/h (0 Bft) 96,00 %
01.02.2018 23:02 1,4 C 5,0 C 96 % 1006,9 hPa 0,0 l/m 0,0 km/h (0 Bft) SW 225 0 min 0,000 mm 0,0 UV-I 0 W/m 0,8 C 1,4 C 0,0 km/h (0 Bft) 96,00 %
01.02.2018 23:04 1,3 C 5,0 C 96 % 1007,0 hPa 0,0 l/m 0,0 km/h (0 Bft) SW 225 0 min 0,000 mm 0,0 UV-I 0 W/m 0,7 C 1,3 C 0,0 km/h (0 Bft) 97,87 %
01.02.2018 23:06 1,3 C 5,0 C 96 % 1006,9 hPa 0,0 l/m 0,0 km/h (0 Bft) SW 225 0 min 0,000 mm 0,0 UV-I 0 W/m 0,7 C 1,3 C 0,0 km/h (0 Bft) 96,00 %
01.02.2018 23:08 1,2 C 5,0 C 96 % 1006,9 hPa 0,0 l/m 0,2 km/h (0 Bft) SW 225 0 min 0,000 mm 0,0 UV-I 0 W/m 0,6 C 1,2 C 1,6 km/h (1 Bft) 97,37 %
01.02.2018 23:10 1,2 C 5,0 C 96 % 1007,0 hPa 0,0 l/m 2,2 km/h (1 Bft) SW 225 0 min 0,000 mm 0,0 UV-I 0 W/m 0,6 C 1,2 C 3,2 km/h (1 Bft) 98,00 %
01.02.2018 23:12 1,2 C 5,0 C 96 % 1007,0 hPa 0,0 l/m 2,7 km/h (1 Bft) SW 216 0 min 0,000 mm 0,0 UV-I 0 W/m 0,6 C 1,2 C 4,8 km/h (1 Bft) 94,00 %
01.02.2018 23:14 1,3 C 5,0 C 96 % 1006,9 hPa 0,0 l/m 2,7 km/h (1 Bft) SW 216 0 min 0,000 mm 0,0 UV-I 0 W/m 0,7 C 1,3 C 4,8 km/h (1 Bft) 98,00 %
01.02.2018 23:16 1,3 C 5,0 C 96 % 1006,9 hPa 0,0 l/m 2,6 km/h (1 Bft) SW 216 0 min 0,000 mm 0,0 UV-I 0 W/m 0,7 C 1,3 C 4,8 km/h (1 Bft) 97,87 %
01.02.2018 23:18 1,3 C 5,0 C 96 % 1006,9 hPa 0,0 l/m 1,3 km/h (1 Bft) SW 216 0 min 0,000 mm 0,0 UV-I 0 W/m 0,7 C 1,3 C 3,2 km/h (1 Bft) 97,22 %
01.02.2018 23:20 1,3 C 5,0 C 96 % 1006,9 hPa 0,0 l/m 3,5 km/h (1 Bft) SW 216 0 min 0,000 mm 0,0 UV-I 0 W/m 0,7 C 1,3 C 4,8 km/h (1 Bft) 98,00 %
01.02.2018 23:22 1,4 C 5,0 C 96 % 1006,9 hPa 0,0 l/m 2,5 km/h (1 Bft) SW 216 0 min 0,000 mm 0,0 UV-I 0 W/m 0,8 C 1,4 C 4,8 km/h (1 Bft) 98,08 %
01.02.2018 23:24 1,4 C 5,0 C 96 % 1006,9 hPa 0,0 l/m 3,0 km/h (1 Bft) SW 216 0 min 0,000 mm 0,0 UV-I 0 W/m 0,8 C 1,4 C 4,8 km/h (1 Bft) 97,44 %
01.02.2018 23:26 1,4 C 5,0 C 96 % 1006,9 hPa 0,0 l/m 4,3 km/h (1 Bft) SW 216 0 min 0,000 mm 0,0 UV-I 0 W/m 0,8 C 1,4 C 6,4 km/h (2 Bft) 97,87 %
01.02.2018 23:28 1,4 C 5,0 C 96 % 1007,0 hPa 0,0 l/m 4,1 km/h (1 Bft) SW 216 0 min 0,000 mm 0,0 UV-I 0 W/m 0,8 C 1,4 C 6,4 km/h (2 Bft) 95,74 %
01.02.2018 23:30 1,3 C 5,0 C 96 % 1006,9 hPa 0,0 l/m 3,5 km/h (1 Bft) SW 216 0 min 0,000 mm 0,0 UV-I 0 W/m 0,7 C 1,3 C 6,4 km/h (2 Bft) 96,00 %
01.02.2018 23:32 1,3 C 5,0 C 96 % 1006,9 hPa 0,0 l/m 4,0 km/h (1 Bft) SW 216 0 min 0,000 mm 0,0 UV-I 0 W/m 0,7 C 1,3 C 4,8 km/h (1 Bft) 100,00 %
01.02.2018 23:34 1,3 C 5,0 C 96 % 1006,9 hPa 0,0 l/m 3,9 km/h (1 Bft) SW 216 0 min 0,000 mm 0,0 UV-I 0 W/m 0,7 C 1,3 C 4,8 km/h (1 Bft) 97,87 %
01.02.2018 23:36 1,2 C 5,0 C 96 % 1006,9 hPa 0,0 l/m 4,5 km/h (1 Bft) S-SW 192 0 min 0,000 mm 0,0 UV-I 0 W/m 0,6 C 1,2 C 6,4 km/h (2 Bft) 100,00 %
01.02.2018 23:38 1,2 C 4,4 C 96 % 1006,9 hPa 0,0 l/m 4,4 km/h (1 Bft) S-SW 194 0 min 0,000 mm 0,0 UV-I 0 W/m 0,6 C 1,2 C 6,4 km/h (2 Bft) 98,11 %
01.02.2018 23:40 1,2 C 4,4 C 96 % 1006,9 hPa 0,0 l/m 4,2 km/h (1 Bft) S-SW 202 0 min 0,000 mm 0,0 UV-I 0 W/m 0,6 C 1,2 C 6,4 km/h (2 Bft) 100,00 %
01.02.2018 23:42 1,3 C 4,4 C 96 % 1006,9 hPa 0,0 l/m 4,3 km/h (1 Bft) SW 221 0 min 0,000 mm 0,0 UV-I 0 W/m 0,7 C 1,3 C 6,4 km/h (2 Bft) 100,00 %
01.02.2018 23:44 1,3 C 4,4 C 96 % 1006,9 hPa 0,0 l/m 3,4 km/h (1 Bft) SW 221 0 min 0,000 mm 0,0 UV-I 0 W/m 0,7 C 1,3 C 4,8 km/h (1 Bft) 100,00 %
01.02.2018 23:46 1,3 C 4,4 C 96 % 1006,9 hPa 0,0 l/m 3,0 km/h (1 Bft) W-SW 257 0 min 0,000 mm 0,0 UV-I 0 W/m 0,7 C 1,3 C 4,8 km/h (1 Bft) 100,00 %
01.02.2018 23:48 1,3 C 5,0 C 96 % 1006,9 hPa 0,0 l/m 4,1 km/h (1 Bft) W-SW 241 0 min 0,000 mm 0,0 UV-I 0 W/m 0,7 C 1,3 C 4,8 km/h (1 Bft) 98,39 %
01.02.2018 23:50 1,3 C 4,4 C 96 % 1006,9 hPa 0,0 l/m 3,6 km/h (1 Bft) W-SW 246 0 min 0,000 mm 0,0 UV-I 0 W/m 0,7 C 1,3 C 6,4 km/h (2 Bft) 100,00 %
01.02.2018 23:52 1,3 C 4,4 C 96 % 1006,9 hPa 0,0 l/m 3,4 km/h (1 Bft) SW 235 0 min 0,000 mm 0,0 UV-I 0 W/m 0,7 C 1,3 C 4,8 km/h (1 Bft) 100,00 %
01.02.2018 23:54 1,3 C 5,0 C 96 % 1007,0 hPa 0,0 l/m 3,4 km/h (1 Bft) SW 235 0 min 0,000 mm 0,0 UV-I 0 W/m 0,7 C 1,3 C 4,8 km/h (1 Bft) 100,00 %
01.02.2018 23:56 1,2 C 5,0 C 96 % 1006,9 hPa 0,0 l/m 3,9 km/h (1 Bft) W-SW 242 0 min 0,000 mm 0,0 UV-I 0 W/m 0,6 C 1,2 C 4,8 km/h (1 Bft) 96,23 %
01.02.2018 23:58 1,2 C 4,4 C 96 % 1006,9 hPa 0,0 l/m 2,4 km/h (1 Bft) W-SW 242 0 min 0,000 mm 0,0 UV-I 0 W/m 0,6 C 1,2 C 4,8 km/h (1 Bft) 100,00 %
_ Min-Zeit 01:54 00:00 11:54 12:40 - 00:20 - - - - - - 01:30 14:58 00:32 14:20
Minimum _ 0,5 C 4,4 C 88 % 1002,2 hPa - 0,0 km/h (0 Bft) - - - - - - -0,1 C -4,7 C 0,0 km/h (0 Bft) 85,09 %
_ Max-Zeit 11:42 12:50 01:34 22:56 08:46 14:58 - - 00:00 12:00 11:22 11:16 11:42 11:42 14:56 00:44
Maximum _ 6,4 C 5,0 C 96 % 1007,0 hPa 0,2 l/m 21,7 km/h
W (4 Bft)
- - 0 min 0,051 mm 0,2 UV-I 207 W/m 4,9 C 6,4 C 33,8 km/h
W-SW (5 Bft)
100,00 %
Durchschnitt _ 2,8 C 4,6 C 94 % 1004,2 hPa #3,0 l/m 5,1 km/h (1 Bft) SW - #0 min. #0,203 mm 0,2 UV-I 55 W/m 1,9 C 1,5 C 8,4 km/h (2 Bft) 98,10 %